[[{"header":{"parameterUnit":"m.s-1","parameterCategory":1,"la1":30.6,"la2":28.766,"lo1":-90.7593,"lo2":-88.6598,"dy":0.0162,"dx":0.0183,"nx":116,"ny":114,"refTime":"2023-03-14T06:00:00:Z","depth":0,"parameterNumber":2,"parameterNumberName":"U-component_of_WINDS"},"data":[0.0,0.0,0.0,0.0,0.0,0.0,0.0,0.0,0.0,0.0,0.0,0.0,0.0,0.0,0.0,0.0,0.0,0.0,0.0,0.0,0.0,0.0,0.0,0.0,0.0,0.0,0.0,0.0,0.0,0.0,0.0,0.0,0.0,0.0,0.0,0.0,0.0,0.0,0.0,0.0,0.0,0.0,0.0,0.0,0.0,0.0,0.0,0.0,0.0,0.0,0.0,0.0,0.0,0.0,0.0,0.0,0.0,0.0,0.0,0.0,0.0,0.0,0.0,0.0,0.0,0.0,0.0,0.0,0.0,0.0,0.0,0.0,0.0,0.0,0.0,0.0,0.0,0.0,0.0,0.0,0.0,0.0,0.0,0.0,0.0,0.0,0.0,0.0,0.0,0.0,0.0,0.0,0.0,0.0,0.0,0.0,0.0,0.0,0.0,0.0,0.0,0.0,0.0,0.0,0.0,0.0,0.0,0.0,0.0,0.0,0.0,0.0,0.0,0.0,0.0,0.0,0.0,0.0,0.0,0.0,0.0,0.0,0.0,0.0,0.0,0.0,0.0,0.0,0.0,0.0,0.0,0.0,0.0,0.0,0.0,0.0,0.0,0.0,0.0,0.0,0.0,0.0,0.0,0.0,0.0,0.0,0.0,0.0,0.0,0.0,0.0,0.0,0.0,0.0,0.0,0.0,0.0,0.0,0.0,0.0,0.0,0.0,0.0,0.0,0.0,0.0,0.0,0.0,0.0,0.0,0.0,0.0,0.0,0.0,0.0,0.0,0.0,0.0,0.0,0.0,0.0,0.0,0.0,0.0,0.0,0.0,0.0,0.0,0.0,0.0,0.0,0.0,0.0,0.0,0.0,0.0,0.0,0.0,0.0,0.0,0.0,0.0,0.0,0.0,0.0,0.0,0.0,0.0,0.0,0.0,0.0,0.0,0.0,0.0,0.0,0.0,0.0,0.0,0.0,0.0,0.0,0.0,0.0,0.0,0.0,0.0,0.0,0.0,0.0,0.0,0.0,0.0,0.0,0.0,0.0,0.0,0.0,0.0,0.0,0.0,0.0,0.0,0.0,0.0,0.0,0.0,0.0,0.0,0.0,0.0,0.0,0.0,0.0,0.0,0.0,0.0,0.0,0.0,0.0,0.0,0.0,0.0,0.0,0.0,0.0,0.0,0.0,0.0,0.0,0.0,0.0,0.0,0.0,0.0,0.0,0.0,0.0,0.0,0.0,0.0,0.0,0.0,0.0,0.0,0.0,0.0,0.0,0.0,0.0,0.0,0.0,0.0,0.0,0.0,0.0,0.0,0.0,0.0,0.0,0.0,0.0,0.0,0.0,0.0,0.0,0.0,0.0,0.0,0.0,0.0,0.0,0.0,0.0,0.0,0.0,0.0,0.0,0.0,0.0,0.0,0.0,0.0,0.0,0.0,0.0,0.0,0.0,0.0,0.0,0.0,0.0,0.0,0.0,0.0,0.0,0.0,0.0,0.0,0.0,0.0,0.0,0.0,0.0,0.0,0.0,0.0,0.0,0.0,0.0,0.0,0.0,0.0,0.0,0.0,0.0,0.0,0.0,0.0,0.0,0.0,0.0,0.0,0.0,0.0,0.0,0.0,0.0,0.0,0.0,0.0,0.0,0.0,0.0,0.0,0.0,0.0,0.0,0.0,0.0,0.0,0.0,0.0,0.0,0.0,0.0,0.0,0.0,0.0,0.0,0.0,0.0,0.0,0.0,0.0,0.0,0.0,0.0,0.0,0.0,0.0,0.0,0.0,0.0,0.0,0.0,0.0,0.0,0.0,0.0,0.0,0.0,0.0,0.0,0.0,0.0,0.0,0.0,0.0,0.0,0.0,0.0,0.0,0.0,0.0,0.0,0.0,0.0,0.0,0.0,0.0,0.0,0.0,0.0,0.0,0.0,0.0,0.0,0.0,0.0,0.0,0.0,0.0,0.0,0.0,0.0,0.0,0.0,0.0,0.0,0.0,0.0,0.0,0.0,0.0,0.0,0.0,0.0,0.0,0.0,0.0,0.0,0.0,0.0,0.0,0.0,0.0,0.0,0.0,0.0,0.0,0.0,0.0,0.0,0.0,0.0,0.0,0.0,0.0,0.0,0.0,0.0,0.0,0.0,0.0,0.0,0.0,0.0,0.0,0.0,0.0,0.0,0.0,0.0,0.0,0.0,0.0,0.0,0.0,0.0,0.0,0.0,0.0,0.0,0.0,0.0,0.0,0.0,0.0,0.0,0.0,0.0,0.0,0.0,0.0,0.0,0.0,0.0,0.0,0.0,0.0,0.0,0.0,0.0,0.0,0.0,0.0,0.0,0.0,0.0,0.0,0.0,0.0,0.0,0.0,0.0,0.0,0.0,0.0,0.0,0.0,0.0,0.0,0.0,0.0,0.0,0.0,0.0,0.0,0.0,0.0,0.0,0.0,0.0,0.0,0.0,0.0,0.0,0.0,0.0,0.0,0.0,0.0,0.0,0.0,0.0,0.0,0.0,0.0,0.0,0.0,0.0,0.0,0.0,0.0,0.0,0.0,0.0,0.0,0.0,0.0,0.0,0.0,0.0,0.0,0.0,0.0,0.0,0.0,0.0,0.0,0.0,0.0,0.0,0.0,0.0,0.0,0.0,0.0,0.0,0.0,0.0,0.0,0.0,0.0,0.0,0.0,0.0,0.0,0.0,0.0,0.0,0.0,0.0,0.0,0.0,0.0,0.0,0.0,0.0,0.0,0.0,0.0,0.0,0.0,0.0,0.0,0.0,0.0,0.0,0.0,0.0,0.0,0.0,0.0,0.0,0.0,0.0,0.0,0.0,0.0,0.0,0.0,0.0,0.0,0.0,0.0,0.0,0.0,0.0,0.0,0.0,0.0,0.0,0.0,0.0,0.0,0.0,0.0,0.0,0.0,0.0,0.0,0.0,0.0,0.0,0.0,0.0,0.0,0.0,0.0,0.0,0.0,0.0,0.0,0.0,0.0,0.0,0.0,0.0,0.0,0.0,0.0,0.0,0.0,0.0,0.0,0.0,0.0,0.0,0.0,0.0,0.0,0.0,0.0,0.0,0.0,0.0,0.0,0.0,0.0,0.0,0.0,0.0,0.0,0.0,0.0,0.0,0.0,0.0,0.0,0.0,0.0,0.0,0.0,0.0,0.0,0.0,0.0,0.0,0.0,0.0,0.0,0.0,0.0,0.0,0.0,0.0,0.0,0.0,0.0,0.0,0.0,0.0,0.0,0.0,0.0,0.0,0.0,0.0,0.0,0.0,0.0,0.0,0.0,0.0,0.0,0.0,0.0,0.0,0.0,0.0,0.0,0.0,0.0,0.0,0.0,0.0,0.0,0.0,0.0,0.0,0.0,0.0,0.0,0.0,0.0,0.0,0.0,0.0,0.0,0.0,0.0,0.0,0.0,0.0,0.0,0.0,0.0,0.0,0.0,0.0,0.0,0.0,0.0,0.0,0.0,0.0,0.0,0.0,0.0,0.0,0.0,0.0,0.0,0.0,0.0,0.0,0.0,0.0,0.0,0.0,0.0,0.0,0.0,0.0,0.0,0.0,0.0,0.0,0.0,0.0,0.0,0.0,0.0,0.0,0.0,0.0,0.0,0.0,0.0,0.0,0.0,0.0,0.0,0.0,0.0,0.0,0.0,0.0,0.0,0.0,0.0,0.0,0.0,0.0,0.0,0.0,0.0,0.0,0.0,0.0,0.0,0.0,0.0,0.0,0.0,0.0,0.0,0.0,0.0,0.0,0.0,0.0,0.0,0.0,0.0,0.0,0.0,0.0,0.0,0.0,0.0,0.0,0.0,0.0,0.0,0.0,0.0,0.0,0.0,0.0,0.0,0.0,0.0,0.0,0.0,0.0,0.0,0.0,0.0,0.0,0.0,0.0,0.0,0.0,0.0,0.0,0.0,0.0,0.0,0.0,0.0,0.0,0.0,0.0,0.0,0.0,0.0,0.0,0.0,0.0,0.0,0.0,0.0,0.0,0.0,0.0,0.0,0.0,0.0,0.0,0.0,0.0,0.0,0.0,0.0,0.0,0.0,0.0,0.0,0.0,0.0,0.0,0.0,0.0,0.0,0.0,0.0,0.0,0.0,0.0,0.0,0.0,0.0,0.0,0.0,0.0,0.0,0.0,0.0,0.0,0.0,0.0,0.0,0.0,0.0,0.0,0.0,0.0,0.0,0.0,0.0,0.0,0.0,0.0,0.0,0.0,0.0,0.0,0.0,0.0,0.0,0.0,0.0,0.0,0.0,0.0,0.0,0.0,0.0,0.0,0.0,0.0,0.0,0.0,0.0,0.0,0.0,0.0,0.0,0.0,0.0,0.0,0.0,0.0,0.0,0.0,0.0,0.0,0.0,0.0,0.0,0.0,0.0,0.0,0.0,0.0,0.0,0.0,0.0,0.0,0.0,0.0,0.0,0.0,0.0,0.0,0.0,0.0,0.0,0.0,0.0,0.0,0.0,0.0,0.0,0.0,0.0,0.0,0.0,0.0,0.0,0.0,0.0,0.0,0.0,0.0,0.0,0.0,0.0,0.0,0.0,0.0,0.0,0.0,0.0,0.0,0.0,0.0,0.0,0.0,0.0,0.0,0.0,0.0,0.0,0.0,0.0,0.0,0.0,0.0,0.0,0.0,0.0,0.0,0.0,0.0,0.0,0.0,0.0,0.0,0.0,0.0,0.0,0.0,0.0,0.0,0.0,0.0,0.0,0.0,0.0,0.0,0.0,0.0,0.0,0.0,0.0,0.0,0.0,0.0,0.0,0.0,0.0,0.0,0.0,0.0,0.0,0.0,0.0,0.0,0.0,0.0,0.0,0.0,0.0,0.0,0.0,0.0,0.0,0.0,0.0,0.0,0.0,0.0,0.0,0.0,0.0,0.0,0.0,0.0,0.0,0.0,0.0,0.0,0.0,0.0,0.0,0.0,0.0,0.0,0.0,0.0,0.0,0.0,0.0,0.0,0.0,0.0,0.0,0.0,0.0,0.0,0.0,0.0,0.0,0.0,0.0,0.0,0.0,0.0,0.0,0.0,0.0,0.0,0.0,0.0,0.0,0.0,0.0,0.0,0.0,0.0,0.0,0.0,0.0,0.0,0.0,0.0,0.0,0.0,0.0,0.0,0.0,0.0,0.0,0.0,0.0,0.0,0.0,0.0,0.0,0.0,0.0,0.0,0.0,0.0,0.0,0.0,0.0,0.0,0.0,0.0,0.0,0.0,0.0,0.0,0.0,0.0,0.0,0.0,0.0,0.0,0.0,0.0,0.0,0.0,0.0,0.0,0.0,0.0,0.0,0.0,0.0,0.0,0.0,0.0,0.0,0.0,0.0,0.0,0.0,0.0,0.0,0.0,0.0,0.0,0.0,0.0,0.0,0.0,0.0,0.0,0.0,0.0,0.0,0.0,0.0,0.0,0.0,0.0,0.0,0.0,0.0,0.0,0.0,0.0,0.0,0.0,0.0,0.0,0.0,0.0,0.0,0.0,0.0,0.0,0.0,0.0,0.0,0.0,0.0,0.0,0.0,0.0,0.0,0.0,0.0,0.0,0.0,0.0,0.0,0.0,0.0,0.0,0.0,0.0,0.0,0.0,0.0,0.0,0.0,0.0,0.0,0.0,0.0,0.0,0.0,0.0,0.0,0.0,0.0,0.0,0.0,0.0,0.0,0.0,0.0,0.0,0.0,0.0,0.0,0.0,0.0,0.0,0.0,0.0,0.0,0.0,0.0,0.0,0.0,0.0,0.0,0.0,0.0,0.0,0.0,0.0,0.0,0.0,0.0,0.0,0.0,0.0,0.0,0.0,0.0,0.0,0.0,0.0,0.0,0.0,0.0,0.0,0.0,0.0,0.0,0.0,0.0,0.0,0.0,0.0,0.0,0.0,0.0,0.0,0.0,0.0,0.0,0.0,0.0,0.0,0.0,0.0,0.0,0.0,0.0,0.0,0.0,0.0,0.0,0.0,0.0,0.0,0.0,0.0,0.0,0.0,0.0,0.0,0.0,0.0,0.0,0.0,0.0,0.0,0.0,0.0,0.0,0.0,0.0,0.0,0.0,0.0,0.0,0.0,0.0,0.0,0.0,8.5508,0.0,0.0,0.0,0.0,0.0,0.0,0.0,0.0,0.0,0.0,0.0,0.0,0.0,0.0,0.0,0.0,0.0,0.0,0.0,0.0,0.0,0.0,0.0,0.0,0.0,0.0,0.0,0.0,0.0,0.0,0.0,0.0,0.0,0.0,0.0,0.0,0.0,0.0,0.0,0.0,0.0,0.0,0.0,0.0,0.0,0.0,0.0,0.0,0.0,0.0,0.0,0.0,0.0,0.0,0.0,0.0,0.0,0.0,0.0,0.0,0.0,0.0,0.0,0.0,0.0,0.0,0.0,0.0,0.0,0.0,0.0,0.0,0.0,0.0,0.0,0.0,0.0,0.0,0.0,0.0,0.0,0.0,0.0,0.0,0.0,0.0,0.0,0.0,0.0,0.0,0.0,0.0,0.0,0.0,0.0,0.0,0.0,0.0,0.0,0.0,0.0,0.0,0.0,0.0,0.0,0.0,0.0,0.0,0.0,0.0,0.0,0.0,0.0,0.0,0.0,0.0,8.6133,0.0,0.0,0.0,0.0,0.0,0.0,0.0,0.0,0.0,0.0,0.0,0.0,0.0,0.0,0.0,0.0,0.0,0.0,0.0,0.0,0.0,0.0,0.0,0.0,0.0,0.0,0.0,0.0,0.0,0.0,0.0,0.0,0.0,0.0,0.0,0.0,0.0,0.0,0.0,0.0,0.0,0.0,0.0,0.0,0.0,0.0,0.0,0.0,0.0,0.0,0.0,0.0,0.0,0.0,0.0,0.0,0.0,0.0,0.0,0.0,0.0,0.0,0.0,0.0,0.0,0.0,0.0,0.0,0.0,0.0,0.0,0.0,0.0,0.0,0.0,0.0,0.0,0.0,0.0,0.0,0.0,0.0,0.0,0.0,0.0,0.0,0.0,0.0,0.0,0.0,0.0,0.0,0.0,0.0,0.0,0.0,0.0,0.0,0.0,0.0,0.0,0.0,0.0,0.0,0.0,0.0,0.0,0.0,0.0,8.7929,8.7969,8.8789,8.914,8.9101,8.8594,8.8203,8.7929,0.0,0.0,0.0,0.0,0.0,0.0,0.0,0.0,0.0,0.0,0.0,0.0,0.0,0.0,0.0,0.0,0.0,0.0,0.0,0.0,0.0,0.0,0.0,0.0,0.0,0.0,0.0,0.0,0.0,0.0,0.0,0.0,0.0,0.0,0.0,0.0,0.0,0.0,0.0,8.2305,8.2299,8.2285,8.2304,8.2304,0.0,0.0,0.0,0.0,0.0,0.0,0.0,0.0,0.0,0.0,0.0,0.0,0.0,0.0,0.0,0.0,0.0,0.0,0.0,0.0,0.0,0.0,0.0,0.0,0.0,0.0,0.0,0.0,0.0,0.0,0.0,0.0,0.0,0.0,0.0,0.0,0.0,0.0,0.0,0.0,0.0,0.0,0.0,8.2304,8.2304,0.0,0.0,0.0,0.0,0.0,0.0,0.0,0.0,0.0,0.0,0.0,0.0,0.0,0.0,8.7148,8.7969,8.8359,8.8398,8.9258,8.9687,8.9687,9.0547,9.0976,9.0976,9.164,0.0,8.9687,8.9687,0.0,0.0,0.0,0.0,0.0,0.0,0.0,0.0,0.0,0.0,0.0,0.0,0.0,0.0,0.0,0.0,0.0,0.0,0.0,0.0,0.0,0.0,0.0,0.0,0.0,0.0,0.0,0.0,0.0,0.0,0.0,0.0,0.0,0.0,0.0,0.0,8.2303,8.2297,8.2293,8.2285,8.2292,8.2289,8.2289,8.2289,8.2289,8.2289,0.0,0.0,0.0,0.0,0.0,0.0,0.0,0.0,0.0,0.0,0.0,0.0,0.0,0.0,0.0,0.0,0.0,0.0,0.0,0.0,0.0,0.0,0.0,0.0,0.0,0.0,0.0,0.0,0.0,0.0,0.0,0.0,0.0,0.0,0.0,0.0,0.0,0.0,0.0,8.2734,8.3047,8.3047,8.3476,8.3906,0.0,0.0,0.0,0.0,0.0,0.0,0.0,0.0,0.0,8.7578,8.7617,8.8242,8.9609,9.0,9.039,9.0898,9.0781,9.0742,9.0742,9.1133,9.1289,9.1367,9.2226,9.2187,9.1406,9.0937,9.0429,9.0,0.0,0.0,0.0,0.0,0.0,9.2617,0.0,0.0,0.0,0.0,0.0,0.0,0.0,0.0,0.0,0.0,0.0,0.0,0.0,0.0,0.0,7.8437,0.0,0.0,0.0,0.0,0.0,0.0,0.0,0.0,0.0,0.0,0.0,8.2315,8.2301,8.2297,8.2293,8.2292,8.2292,8.2293,8.2293,8.2293,8.2293,8.2293,8.232,0.0,0.0,0.0,0.0,0.0,0.0,0.0,0.0,0.0,0.0,0.0,0.0,0.0,0.0,0.0,0.0,0.0,0.0,0.0,0.0,0.0,0.0,0.0,0.0,0.0,0.0,0.0,0.0,0.0,0.0,0.0,0.0,0.0,0.0,0.0,0.0,0.0,0.0,8.3398,8.3945,8.3945,8.4492,8.5,0.0,0.0,0.0,0.0,0.0,0.0,8.6836,8.7656,8.8515,8.9336,8.957,9.0195,9.1289,9.1523,9.1836,9.2265,9.1836,9.164,9.164,9.1875,9.1953,9.2031,9.3125,9.3476,9.3164,9.207,9.125,9.0664,9.0664,9.1211,9.1953,9.1953,9.2539,9.3281,0.0,0.0,0.0,0.0,0.0,0.0,0.0,0.0,0.0,0.0,0.0,0.0,0.0,0.0,7.8437,7.8515,7.9961,8.0898,0.0,0.0,0.0,0.0,0.0,0.0,0.0,0.0,0.0,8.2304,8.2304,8.2297,8.2293,8.2293,8.2293,8.2293,8.2293,8.2293,8.2293,8.2293,8.2293,8.2299,0.0,0.0,0.0,0.0,0.0,0.0,0.0,0.0,0.0,0.0,0.0,0.0,0.0,0.0,0.0,0.0,0.0,0.0,0.0,0.0,0.0,0.0,0.0,0.0,0.0,0.0,0.0,0.0,0.0,0.0,0.0,0.0,0.0,0.0,0.0,0.0,0.0,0.0,0.0,8.4844,8.4883,0.0,0.0,0.0,0.0,8.7304,8.7422,8.7773,8.8515,8.9414,9.0273,9.1133,9.1953,9.2031,9.1328,9.2109,9.2148,9.1367,9.2148,9.2539,9.2578,9.3398,9.3789,9.3867,9.5586,9.582,9.4922,9.3242,9.25,9.2461,9.2461,9.3008,9.3789,9.3789,9.4336,9.5078,0.0,0.0,0.0,0.0,0.0,0.0,0.0,0.0,0.0,0.0,0.0,0.0,0.0,7.832,7.8945,8.0,8.0664,8.125,8.1797,0.0,0.0,0.0,0.0,0.0,0.0,0.0,8.2303,8.2285,8.2285,8.2315,8.2293,8.2293,8.2293,8.2293,8.2293,8.2293,8.2293,8.2293,8.2293,8.2293,8.2293,8.2285,0.0,0.0,0.0,0.0,0.0,0.0,0.0,0.0,0.0,0.0,0.0,0.0,0.0,0.0,0.0,0.0,0.0,0.0,0.0,0.0,0.0,0.0,0.0,0.0,0.0,0.0,0.0,0.0,0.0,0.0,0.0,0.0,0.0,0.0,0.0,0.0,0.0,8.5742,8.6211,0.0,0.0,8.75,8.7929,8.8242,8.9297,8.9844,8.9531,9.0351,9.0976,9.1289,9.1601,9.2148,9.2969,9.3281,9.3554,9.3828,9.4687,9.5117,9.5156,9.5976,9.6367,9.6367,9.6992,9.7109,9.6758,9.6133,9.5586,9.5117,9.5117,9.5625,9.6367,9.6367,9.6523,9.6797,0.0,0.0,0.0,0.0,0.0,0.0,0.0,0.0,0.0,0.0,0.0,7.7851,7.8437,7.8984,7.9805,8.0898,8.1289,8.1679,8.2265,0.0,0.0,0.0,8.2304,0.0,0.0,8.23,8.2289,8.2293,8.2293,8.2254,8.2215,8.2215,8.2176,8.2098,8.2098,8.2098,8.2098,8.2098,8.2176,8.2293,8.2293,8.2315,8.23,0.0,0.0,0.0,0.0,0.0,0.0,0.0,0.0,0.0,0.0,0.0,0.0,0.0,0.0,0.0,0.0,0.0,0.0,0.0,0.0,0.0,0.0,0.0,0.0,0.0,0.0,0.0,0.0,0.0,0.0,0.0,0.0,0.0,0.0,0.0,8.664,8.664,8.7383,8.8008,8.832,8.8828,8.9258,8.957,9.0351,9.0742,9.0469,9.1289,9.1875,9.2187,9.2461,9.332,9.4765,9.4765,9.5195,9.6054,9.664,9.6914,9.6914,9.7461,9.7539,9.7304,9.7578,9.7539,9.7304,9.7578,9.7578,9.7304,9.7031,9.7226,9.7695,9.7695,9.7695,9.7695,0.0,0.0,0.0,0.0,0.0,0.0,0.0,0.0,0.0,0.0,7.7969,7.8515,7.8555,8.0039,8.1015,8.1054,8.1797,8.2304,8.2304,8.2304,0.0,8.2304,8.2304,8.23,8.2293,8.2293,8.2293,8.2293,8.2293,8.2176,8.202,8.1968,8.189,8.1695,8.1695,8.1695,8.1695,8.1695,8.1929,8.228,8.2287,8.2293,8.2299,0.0,0.0,0.0,0.0,0.0,0.0,0.0,0.0,0.0,0.0,0.0,0.0,0.0,0.0,0.0,0.0,0.0,0.0,0.0,0.0,0.0,0.0,0.0,0.0,0.0,0.0,0.0,0.0,0.0,0.0,0.0,0.0,0.0,8.6367,8.6992,8.7539,8.7578,8.8281,8.9062,8.9961,9.0039,9.039,9.125,9.0586,9.0469,9.1289,9.2226,9.3086,9.3906,9.4804,9.5664,9.6523,9.6523,9.6875,9.7656,9.7695,9.7695,9.7695,9.7773,9.7344,9.664,9.7422,9.7344,9.6679,9.7461,9.8281,9.8945,9.8086,9.7773,9.7773,9.7773,9.7773,9.7773,0.0,0.0,0.0,0.0,0.0,0.0,0.0,0.0,0.0,0.0,7.8359,7.8945,8.0195,8.0703,8.125,8.1875,8.2148,8.2304,8.2304,0.0,8.2304,8.2304,8.2292,8.231,8.2293,8.2293,8.2293,8.2293,8.2137,8.2059,8.2014,8.1854,8.1746,8.1708,8.1708,8.1708,8.1708,8.1708,8.1746,8.1895,8.2023,8.2098,8.2098,0.0,0.0,0.0,0.0,0.0,0.0,0.0,0.0,0.0,0.0,0.0,0.0,0.0,0.0,0.0,0.0,0.0,0.0,0.0,0.0,0.0,0.0,0.0,0.0,0.0,0.0,0.0,0.0,0.0,0.0,0.0,0.0,8.8086,8.7265,8.7851,8.8594,8.9258,8.9492,8.9961,9.0859,9.0937,9.1054,9.1289,9.2265,9.2656,9.2265,9.4258,9.5234,9.4844,9.625,9.7148,9.7383,9.6797,9.6601,9.6836,9.7422,9.7695,9.7734,9.9023,9.9453,9.9258,9.9492,9.9453,9.9258,9.9492,9.9726,9.9844,9.8984,9.9023,9.9609,9.9609,9.9609,9.9609,0.0,0.0,0.0,0.0,0.0,0.0,0.0,0.0,0.0,0.0,7.8741,7.9448,8.0858,8.1191,8.157,8.2172,8.2207,8.2187,8.2226,0.0,8.2304,8.2295,8.231,8.2293,8.2293,8.2215,8.2176,8.2176,8.1981,8.1831,8.1748,8.1632,8.1516,8.1439,8.1439,8.1439,8.1439,8.1439,8.1439,8.1462,8.1677,8.1792,8.1903,8.2098,8.2159,8.2178,8.2256,8.2529,8.2844,8.2851,0.0,0.0,0.0,0.0,0.0,0.0,0.0,0.0,0.0,0.0,0.0,0.0,0.0,0.0,0.0,0.0,0.0,0.0,0.0,0.0,0.0,0.0,0.0,0.0,8.9258,8.9062,8.8594,8.8945,8.9414,8.9922,9.0312,9.0898,9.1758,9.1836,9.2148,9.289,9.3867,9.4375,9.4258,9.5664,9.6289,9.5742,9.6328,9.6992,9.7695,9.7226,9.7383,9.8086,9.8554,9.8789,9.8828,9.9844,10.0312,0.0,10.0312,10.0312,10.0312,10.0312,10.0312,0.0,0.0,0.0,0.0,0.0,10.1094,10.1289,0.0,0.0,0.0,0.0,0.0,0.0,0.0,0.0,7.7655,7.8506,7.9236,8.001,8.0988,8.1499,8.1872,8.2084,8.205,8.2024,8.2108,8.2226,8.2295,8.2273,8.2287,8.2254,8.2254,8.2059,8.1961,8.2006,8.1772,8.1593,8.1439,8.1362,8.1285,8.1131,8.1208,8.1246,8.1246,8.1323,8.1362,8.14,8.1554,8.1708,8.1811,8.2046,8.2215,8.2293,8.2528,8.3074,8.375,8.3747,0.0,0.0,0.0,0.0,0.0,0.0,0.0,0.0,0.0,0.0,0.0,0.0,0.0,0.0,0.0,0.0,0.0,0.0,0.0,0.0,0.0,0.0,0.0,0.0,9.0156,9.0195,9.0273,9.0273,9.0273,9.0273,9.0976,9.1836,9.2812,9.289,9.3515,9.5078,9.5273,9.5625,9.6328,0.0,0.0,0.0,0.0,9.6484,9.7969,9.789,9.8633,10.0195,10.0195,10.0195,10.0195,10.0312,10.0312,10.0312,10.0312,10.0312,10.0312,10.0312,10.0312,10.0312,10.0312,10.0312,10.039,10.1211,10.1914,10.25,0.0,0.0,0.0,0.0,0.0,0.0,0.0,7.7812,7.8484,7.9194,8.0051,8.0856,8.1639,8.1753,8.1854,8.2082,8.2041,8.2053,8.226,8.2271,8.221,8.2053,8.2065,8.2059,8.2059,8.1864,8.1858,8.2006,8.1659,8.1523,8.1662,8.1285,8.1208,8.1362,8.1855,8.2086,8.2124,8.2848,8.3118,8.3118,8.3156,8.2854,8.2457,8.283,8.338,8.4044,8.4245,8.4401,8.457,8.4645,8.4765,8.4883,8.4883,0.0,0.0,0.0,0.0,0.0,0.0,0.0,0.0,0.0,0.0,0.0,0.0,0.0,0.0,0.0,0.0,0.0,0.0,0.0,0.0,9.0898,9.1054,9.1289,9.1992,9.2109,9.2109,9.2109,9.2265,9.2969,9.4531,9.4687,9.4844,9.5156,9.5859,9.6015,9.5469,9.6719,0.0,9.7461,9.8672,9.9453,9.9804,9.9101,9.8906,9.9258,0.0,0.0,9.9297,9.9961,10.0312,10.0312,10.0312,10.0312,10.0312,10.0312,10.0312,10.0312,10.0312,10.0312,10.0312,10.0508,10.0703,10.0781,0.0,0.0,0.0,0.0,0.0,0.0,0.0,7.8203,7.8933,8.0101,8.0572,8.113,8.2006,8.1902,8.1895,8.2109,8.1986,8.1978,8.2145,8.2061,8.1959,8.1854,8.1854,8.1854,8.1854,8.1655,8.1608,8.1701,8.14,8.1285,8.14,8.16,8.1753,8.19,8.2593,8.2939,8.2984,8.3439,8.3593,8.3593,8.3593,8.367,8.3734,8.37,8.396,8.4395,8.4693,8.5065,8.5462,8.5487,8.5815,8.6211,8.6172,8.6484,8.6836,0.0,0.0,0.0,0.0,0.0,0.0,0.0,0.0,0.0,0.0,0.0,0.0,0.0,0.0,8.9609,0.0,0.0,9.0937,9.1797,9.1953,9.2265,9.3125,9.3242,9.3242,9.3242,9.3633,9.4258,9.5117,9.5586,9.5859,9.5859,9.664,9.7109,9.7109,9.789,9.8359,9.8359,9.8789,9.9219,9.9648,9.9219,9.9219,9.9648,9.9648,9.9648,9.9687,10.0117,10.0508,10.1015,10.1015,10.1211,10.1601,10.1601,10.1601,10.1601,10.1601,10.1289,10.1015,10.1015,10.1211,10.1601,0.0,0.0,0.0,0.0,0.0,0.0,0.0,0.0,7.9258,8.0781,8.1026,8.1336,8.2111,8.1956,8.1852,8.204,8.1937,8.1876,8.197,8.1794,8.1679,8.164,8.162,8.1647,8.1662,8.1463,8.1346,8.14,8.1208,8.1208,8.14,8.1996,8.2419,8.2638,8.3478,8.383,8.3874,8.4028,8.4105,8.4105,8.4105,8.4489,8.5099,8.4753,8.4649,8.4676,8.5088,8.569,8.6314,8.6327,8.6858,8.7459,8.7421,8.7461,8.75,8.75,8.7617,0.0,0.0,0.0,0.0,0.0,0.0,0.0,0.0,0.0,9.0039,9.0234,9.0234,9.0508,9.1406,9.1562,9.1836,9.2695,9.2851,9.3164,9.4023,9.414,9.4219,9.4375,9.4883,9.5273,9.5429,9.6211,9.6719,9.6719,9.75,9.8203,9.8711,9.875,9.8828,9.8984,9.832,9.8359,9.9258,9.9258,9.9609,10.0312,10.0508,10.0586,10.0586,10.0703,10.1211,10.1914,10.1914,10.2304,10.289,10.289,10.289,10.289,10.289,10.25,10.1914,10.1914,10.2304,10.289,0.0,0.0,0.0,0.0,0.0,0.0,0.0,0.0,0.0,8.0703,8.1477,8.1948,8.1948,8.187,8.1872,8.1993,8.1979,8.1967,8.2001,8.1794,8.162,8.1437,8.1422,8.1427,8.1431,8.1244,8.1244,8.14,8.1208,8.1554,8.2407,8.2342,8.2803,8.3759,8.4445,8.4753,8.4791,8.5522,8.5824,8.5824,8.5824,8.5901,8.5978,8.6094,8.6173,8.6217,8.6696,8.69,8.7023,8.7182,8.7333,8.7426,8.7459,8.75,8.75,8.75,0.0,8.8554,8.8554,8.914,8.9726,8.9726,8.9804,8.9844,0.0,0.0,9.0234,9.0976,9.1133,9.1406,9.2304,9.2461,9.2734,9.3594,9.375,9.4062,9.4922,9.5039,9.5351,9.6133,9.5625,9.5508,9.6289,9.7109,9.7578,9.7578,9.8359,9.8554,9.789,9.7851,9.8203,9.8984,9.8906,9.9258,10.0117,10.0195,10.0195,10.0312,10.1094,10.1484,10.1484,10.2304,10.2695,10.2812,10.2812,10.2812,10.289,10.289,10.289,10.289,10.289,10.2812,10.2812,10.2812,10.2812,10.289,0.0,0.0,0.0,0.0,0.0,0.0,0.0,0.0,0.0,0.0,8.198,8.2193,8.2154,8.2115,8.2117,8.2182,8.1959,8.1834,8.1809,8.1551,8.1296,8.1224,8.1214,8.1234,8.1208,8.1131,8.1131,8.1208,8.1593,8.2016,8.2446,8.3374,8.4028,8.4522,8.5253,8.5599,8.5599,8.5978,8.6094,8.6094,8.6094,8.6094,8.6094,8.6209,8.6307,8.6441,8.6917,8.7192,0.0,8.7372,8.7414,8.7451,8.7444,8.7807,8.8203,8.8203,8.8789,0.0,8.9453,8.9726,9.0,0.0,9.039,9.0742,9.0742,9.1133,9.1601,9.1992,9.207,9.2304,9.3203,9.3359,9.3633,0.0,9.4648,9.4961,9.582,9.5976,9.6289,9.7109,9.6875,9.6797,9.7148,9.7969,9.8242,9.7734,9.8047,9.832,9.8437,9.8476,9.8867,9.9726,9.9765,10.0195,10.1015,10.1094,10.1289,10.1797,10.2187,10.2383,10.2383,10.2695,10.289,10.289,10.289,10.289,10.289,10.289,10.289,10.289,10.289,10.289,10.289,10.289,10.289,10.289,0.0,0.0,0.0,0.0,0.0,0.0,0.0,0.0,0.0,0.0,0.0,8.2304,8.2304,8.2304,8.2304,8.2304,8.1968,8.1748,8.1724,8.1362,8.117,8.1093,8.1093,8.1093,8.1093,8.1093,8.1208,8.1439,8.2009,8.2554,8.3022,8.4291,8.5022,8.5247,8.5863,8.6094,8.6094,8.6094,8.6094,8.6094,8.6094,8.6094,8.6094,8.6094,8.6268,8.6544,8.6877,8.73,8.7681,8.7738,8.7961,8.8164,8.8147,8.8547,8.9062,8.9062,8.9687,9.039,9.0664,0.0,0.0,9.0703,9.1172,9.164,9.164,9.2148,9.2656,9.289,9.2969,9.3203,9.4101,9.4258,9.4531,9.5429,9.5547,9.5859,9.6719,9.6836,9.7031,9.7617,9.7695,9.7773,9.8047,9.8398,9.8476,9.8086,9.8047,9.8437,9.9297,9.9375,9.9765,10.0586,10.0703,10.1094,10.1992,10.1992,10.2304,10.289,10.289,10.289,10.289,10.3086,10.3398,10.3594,10.3594,10.3594,10.3594,10.3594,10.3594,10.3594,10.3594,10.3594,10.3594,10.3594,10.3281,10.289,0.0,0.0,0.0,0.0,0.0,0.0,0.0,0.0,0.0,0.0,0.0,0.0,0.0,8.2304,8.2304,8.2304,8.2109,8.1919,8.1715,8.1516,8.1285,8.1093,8.1093,8.1093,8.1093,8.1093,8.1477,8.224,8.2285,8.317,8.4824,8.4868,8.533,8.6055,8.6094,8.6094,8.6094,8.6094,8.6094,8.6094,8.6094,8.6094,8.6094,8.6094,8.6373,8.6806,8.6809,8.7485,8.8398,8.8579,8.9201,8.9922,8.9922,8.9922,0.0,8.9961,9.0586,0.0,0.0,0.0,9.2539,9.2539,9.2539,9.2578,9.2578,9.2578,9.2851,9.3672,9.3867,9.414,9.5,9.5156,9.5469,9.6328,9.6445,9.6758,9.7539,9.7656,9.7656,9.7695,9.7695,9.8047,0.0,9.8203,9.8086,9.8906,9.8945,9.9336,10.0195,10.0312,10.0703,10.1484,10.1601,10.1992,10.289,10.289,10.289,10.289,10.289,10.289,10.289,10.3789,10.4609,10.539,10.539,10.539,10.539,10.539,10.539,10.539,10.539,10.539,10.539,10.539,10.4414,10.289,0.0,0.0,0.0,0.0,0.0,0.0,0.0,0.0,0.0,0.0,0.0,0.0,0.0,0.0,0.0,0.0,8.2109,8.198,8.1899,8.16,8.1362,8.1285,8.117,8.1093,8.1093,8.1093,8.1477,8.2285,8.2901,8.3753,8.4907,8.5445,8.5863,8.6094,8.6094,8.6094,8.6094,8.6094,8.6094,8.6094,8.6094,8.6094,8.6126,8.6268,8.6868,8.7669,0.0,8.8188,8.8689,8.9322,8.9763,9.0,9.0,9.039,0.0,9.1562,0.0,0.0,0.0,0.0,9.2617,9.2617,9.3047,9.3476,9.3476,9.3906,9.4414,9.4687,9.4765,9.5039,9.5898,9.6054,9.6328,9.7148,9.7304,9.7383,9.7656,9.7695,9.789,9.8476,9.8554,0.0,0.0,0.0,0.0,9.9804,9.9844,10.0195,10.1094,10.1211,10.1601,10.2383,10.25,10.2617,10.289,10.3515,10.3789,10.3789,10.4297,10.4609,10.4609,10.4883,10.5195,10.5508,10.5508,10.5508,10.5508,10.5508,10.5508,10.5508,10.5508,10.5508,10.5586,10.6093,10.5898,10.5312,0.0,0.0,0.0,0.0,0.0,0.0,0.0,0.0,0.0,0.0,0.0,0.0,0.0,0.0,0.0,0.0,0.0,8.2067,8.1992,8.1742,8.1581,8.1523,8.1655,8.1748,8.1748,8.2057,8.2564,8.3356,8.3911,8.4574,8.533,8.5863,8.6094,8.6094,8.6094,8.6094,8.6094,8.6094,8.6094,8.6094,8.6184,8.6208,8.6238,8.6442,8.722,0.0,8.8711,8.9183,8.9705,9.0272,9.0664,9.0937,9.0937,9.1328,0.0,0.0,0.0,0.0,0.0,9.2812,9.3047,9.3047,9.3711,9.4375,9.4375,9.4804,9.5273,9.5586,9.5664,9.5937,9.6758,9.6914,9.7109,9.7617,9.7695,9.7695,9.7695,9.7969,9.8359,9.8945,9.9258,9.9804,0.0,0.0,0.0,10.0703,10.0781,10.1094,10.1992,10.2109,10.25,10.3281,10.3398,10.3515,10.3789,10.4414,10.4687,10.4687,10.5195,10.5703,10.5898,10.5898,10.6289,10.6914,10.6914,10.6992,10.7304,10.7304,10.7304,10.7304,10.7304,10.7304,10.7383,10.789,10.8086,10.789,0.0,0.0,0.0,0.0,0.0,0.0,0.0,0.0,0.0,0.0,0.0,0.0,0.0,0.0,0.0,0.0,0.0,0.0,8.2031,8.2006,8.192,8.1708,8.2456,8.2882,8.2921,8.3737,8.4537,8.5221,8.5214,8.5534,8.6159,8.6159,8.6126,8.6126,8.6126,8.6126,8.6126,8.6126,8.6159,8.612,8.6307,8.6442,8.6468,8.6726,8.7504,8.8578,8.9434,9.0417,9.1369,9.1365,9.1914,9.2617,9.2617,0.0,0.0,0.0,0.0,9.2656,9.2656,9.3281,9.3984,9.3984,9.4609,9.5273,9.5273,9.5312,9.5547,9.6406,9.6562,9.6797,0.0,0.0,9.7695,9.7695,9.7695,9.7734,9.7773,9.8476,9.9023,0.0,0.0,0.0,0.0,0.0,0.0,10.1719,0.0,10.1992,10.289,10.3008,10.3398,10.4219,10.4297,10.4687,10.5508,10.5586,10.5703,10.5703,10.5703,10.6211,10.6914,10.6914,10.7812,10.9414,10.9414,10.9804,11.0586,11.0586,11.0586,11.0586,11.0586,11.0586,11.0586,11.0703,11.0703,11.039,0.0,0.0,0.0,0.0,0.0,0.0,0.0,0.0,0.0,0.0,0.0,0.0,0.0,0.0,0.0,0.0,0.0,0.0,8.2237,8.209,8.1992,8.192,8.2598,8.2932,8.2921,8.3737,8.4611,8.5436,8.5402,8.5829,8.6615,8.6615,8.6519,8.6346,8.6519,8.6494,8.6346,8.6519,8.6615,8.6615,8.6683,8.6704,8.6726,8.6959,8.7988,8.9428,8.9805,9.0934,9.2262,9.2265,9.2422,9.2617,9.2617,9.2617,9.2617,0.0,0.0,9.3554,9.3554,9.4219,9.4883,9.4883,9.5508,9.6172,9.6172,9.664,9.7148,9.7344,9.7383,9.7461,0.0,0.0,0.0,9.7695,9.7695,0.0,9.8594,9.8867,0.0,10.0781,0.0,10.1601,10.25,10.2617,0.0,0.0,10.2617,10.289,10.3789,10.3906,10.4297,10.5117,10.5195,10.5312,10.5508,10.6719,10.7695,10.8281,10.8984,10.9414,10.9609,10.9609,10.9804,11.0312,11.0312,11.039,11.0586,11.0586,11.0586,11.0586,11.0586,11.0586,11.0703,11.1289,11.1601,11.1601,0.0,0.0,0.0,0.0,0.0,0.0,0.0,0.0,0.0,0.0,0.0,0.0,0.0,0.0,0.0,0.0,0.0,0.0,0.0,8.2207,8.2115,8.2123,8.3204,8.3777,8.3728,8.4974,8.5789,8.6177,8.6177,8.6415,8.6787,8.6787,8.6726,8.6592,8.6726,8.6726,8.6592,8.6747,8.6787,0.0,0.0,8.6917,8.6933,8.7183,8.8299,8.9859,8.9938,9.1122,9.2617,9.2617,9.2617,9.2617,9.2617,9.2617,9.2695,9.3047,0.0,9.3984,9.4375,9.5117,9.5781,9.5781,9.6406,9.7031,9.7031,9.7383,9.7695,9.7695,9.7695,0.0,9.7695,9.7695,0.0,0.0,0.0,0.0,9.8945,9.9648,10.0508,0.0,10.1914,0.0,10.289,10.3203,10.3515,0.0,10.3515,10.3711,10.4219,10.4609,10.5195,10.6015,10.6015,10.6406,10.7187,10.8515,10.9414,10.9883,11.039,11.0586,11.0586,11.0586,11.0781,11.1211,0.0,11.1406,11.1718,11.1718,11.1718,11.1718,11.1718,11.1718,11.1797,11.2304,11.25,11.25,0.0,0.0,0.0,0.0,0.0,0.0,0.0,0.0,0.0,0.0,0.0,0.0,0.0,0.0,0.0,0.0,0.0,0.0,0.0,0.0,8.2293,8.2299,8.3906,8.4804,8.4792,8.651,8.7291,8.7157,8.7157,8.705,8.6864,8.6864,8.6864,8.6826,8.6864,8.6864,8.6826,8.6864,8.6864,8.6882,8.7064,8.7157,8.7169,0.0,8.8474,9.0013,9.0259,9.1324,9.2617,9.2617,9.2617,9.2617,9.2617,9.2617,9.2773,9.3633,9.3984,9.4297,9.5273,9.6094,9.6679,9.6797,9.7265,9.7695,9.7695,9.7695,9.7695,9.7695,0.0,9.7695,9.7695,9.7773,9.7851,9.7851,0.0,9.9219,9.9336,10.0586,10.1601,10.1797,10.25,10.3086,10.3086,10.3906,10.4414,10.4414,10.4492,10.4492,10.4492,10.5195,10.6093,10.6992,10.7187,10.789,10.9492,11.0312,11.0781,11.0703,11.0781,11.0898,11.0898,11.0898,11.1289,11.1992,0.0,0.0,11.3281,11.3398,11.3515,11.3515,11.3515,11.3515,11.3515,11.3515,11.3515,11.3515,0.0,0.0,0.0,0.0,0.0,0.0,0.0,0.0,0.0,0.0,8.2304,8.2304,0.0,0.0,0.0,0.0,0.0,0.0,0.0,0.0,0.0,8.2289,8.3979,8.4873,8.4792,8.651,8.7362,8.7347,8.7347,8.7338,8.7282,8.7282,8.7203,8.7064,8.7203,8.7192,8.7064,8.7253,8.7282,8.7282,8.7338,8.7347,8.7347,8.7401,0.0,0.0,9.1635,9.2343,9.2617,9.2617,9.2617,9.2617,9.2617,9.2617,9.2773,9.3633,9.4414,9.5312,9.6836,9.7383,9.7656,9.8398,9.8125,9.7695,9.7695,9.7695,0.0,0.0,9.7695,9.7695,9.7695,9.8281,9.8789,9.8789,9.9492,10.0312,10.1015,10.1406,10.1914,0.0,10.3398,10.3984,0.0,0.0,0.0,0.0,0.0,10.6289,10.6289,10.6406,10.7187,10.8789,10.9492,11.0117,11.039,11.1211,11.1601,11.1406,11.2187,11.2383,11.2304,11.2304,11.2304,11.25,11.3203,0.0,11.3789,11.4687,11.5117,11.5117,11.5195,11.5312,11.5312,11.5312,11.5312,11.5312,0.0,0.0,0.0,0.0,0.0,0.0,0.0,8.2178,8.2265,8.2226,8.2265,8.2304,8.2304,8.2304,8.2304,0.0,0.0,0.0,0.0,0.0,0.0,0.0,8.3981,8.4879,8.4854,8.6516,8.7407,8.7407,0.0,8.7407,8.7407,8.7407,8.7347,8.7263,8.7347,8.7347,8.7273,8.7354,8.7407,8.7407,8.7407,8.7407,8.7407,0.0,0.0,0.0,9.1981,9.2616,9.2617,9.2617,9.2617,9.2617,9.2617,9.289,9.3437,9.4336,9.5508,9.6679,9.7461,9.8047,9.8359,9.832,9.8008,9.7695,9.7695,0.0,0.0,9.7695,9.7695,9.7695,9.7695,9.8398,9.8984,9.8984,10.0117,10.1094,10.1484,10.1992,10.2617,10.3515,10.3906,10.4414,0.0,0.0,0.0,0.0,0.0,10.7695,10.7383,10.8203,10.9101,10.9804,11.0703,11.1093,11.1015,11.1797,11.2187,11.2109,11.2982,11.3416,11.3299,11.3689,11.4001,11.4001,11.439,0.0,11.48,11.5307,11.5581,11.5703,11.5703,11.5703,11.5703,11.5781,11.5781,11.5703,0.0,0.0,0.0,0.0,0.0,0.0,0.0,8.2045,8.2207,8.2109,8.2187,8.2265,8.2304,8.2304,8.2304,0.0,0.0,0.0,0.0,0.0,0.0,0.0,0.0,0.0,0.0,0.0,0.0,0.0,8.7407,0.0,0.0,0.0,0.0,0.0,8.7407,8.7407,8.7407,8.7407,8.7407,0.0,0.0,8.7407,0.0,0.0,0.0,0.0,0.0,9.2611,9.2617,9.2617,9.2617,9.2617,9.2812,9.3359,9.4101,9.5156,9.6523,9.7734,9.7929,9.8476,9.8828,9.8164,9.7851,9.7695,9.7695,9.7695,9.7695,9.7695,9.7695,9.7773,9.7929,9.8672,9.9336,9.9531,10.0898,10.1914,10.1914,10.25,10.3203,10.4101,10.4414,0.0,10.5888,10.67,0.0,0.0,0.0,0.0,10.8515,10.9883,11.0703,11.0508,11.1385,11.1705,11.1588,11.2408,11.2916,11.2799,11.3696,11.4109,11.4074,11.4805,11.5115,11.5115,11.5308,0.0,0.0,11.5879,11.6101,11.6289,11.6289,11.6289,11.6289,11.6289,11.6289,11.6289,0.0,0.0,0.0,0.0,0.0,0.0,0.0,8.1834,8.1964,8.2104,8.2109,8.2148,8.2304,8.2304,8.2304,0.0,0.0,0.0,0.0,0.0,0.0,0.0,0.0,0.0,0.0,0.0,0.0,0.0,0.0,0.0,0.0,0.0,0.0,0.0,0.0,0.0,8.7407,8.7407,0.0,0.0,0.0,0.0,0.0,0.0,0.0,0.0,0.0,9.2599,9.2617,9.2617,9.2617,9.2734,9.3515,9.3828,9.4219,9.5898,9.6992,9.7851,9.8672,9.8945,9.8984,9.8906,9.8281,9.7695,9.7695,9.7695,9.7695,9.7695,9.7695,9.7929,9.8711,9.9609,10.039,10.1211,10.2187,10.2812,10.2812,10.2812,10.3203,10.4101,10.4883,10.599,10.76,10.84,0.0,0.0,0.0,0.0,10.9882,11.0781,11.1211,11.1211,11.2113,11.2492,11.2492,11.3305,11.3693,11.3499,11.4409,11.4693,11.4503,11.4619,11.4812,11.5005,11.5779,0.0,0.0,11.7403,11.7808,11.7812,11.8008,11.8086,11.8086,11.8086,11.8086,11.8086,0.0,0.0,0.0,0.0,0.0,0.0,8.1591,8.1755,8.1879,8.1859,8.1928,8.2,8.2039,8.2136,8.2226,8.2304,0.0,0.0,0.0,0.0,0.0,0.0,0.0,0.0,0.0,0.0,0.0,0.0,0.0,0.0,0.0,0.0,0.0,0.0,0.0,0.0,0.0,0.0,0.0,0.0,0.0,0.0,0.0,0.0,0.0,0.0,0.0,0.0,9.2599,9.2616,9.2617,9.2851,9.4258,9.5039,9.5703,9.6875,9.7812,9.8554,9.8906,9.8984,9.8867,9.8359,9.7969,9.7695,9.7695,9.7695,9.7695,9.7695,9.8125,9.8594,9.8945,10.0117,10.1211,10.1484,10.2304,10.289,10.289,10.3398,10.3984,10.4883,10.5714,10.6794,0.0,0.0,0.0,0.0,0.0,0.0,11.2111,11.2093,11.2287,11.2677,11.3009,11.3412,11.3799,11.4109,11.4267,11.4193,11.5118,11.5505,11.5392,11.5895,11.6204,11.6314,11.6689,0.0,0.0,11.7681,11.8008,11.8203,11.8281,11.8281,11.8281,11.8281,11.8281,11.8281,0.0,0.0,0.0,0.0,0.0,8.162,8.1504,8.1658,8.1774,8.1697,8.1796,8.1859,8.1898,8.1995,8.2098,8.2168,8.2262,0.0,0.0,0.0,0.0,0.0,0.0,0.0,0.0,0.0,0.0,0.0,0.0,0.0,0.0,0.0,0.0,0.0,0.0,0.0,0.0,0.0,0.0,0.0,0.0,0.0,0.0,0.0,0.0,0.0,0.0,0.0,0.0,0.0,0.0,9.289,9.4648,9.5781,9.6719,9.7773,9.8711,9.9336,9.9062,9.8984,9.8789,9.7929,9.7695,9.7695,9.7695,9.7695,9.7695,9.7695,9.8398,9.9062,9.9336,10.0586,10.1719,10.1914,10.25,10.289,10.289,10.3711,10.4486,10.5378,10.6406,10.759,0.0,0.0,0.0,0.0,0.0,0.0,0.0,11.33,11.3378,11.3915,11.3881,11.4113,11.4577,11.4921,11.5002,11.5005,11.5895,11.6282,11.6282,11.6898,11.7207,11.7317,0.0,0.0,0.0,11.7688,11.789,11.8203,11.8203,11.8203,11.8281,11.8281,11.8281,11.8281,0.0,0.0,0.0,0.0,0.0,0.0,8.1504,8.1504,8.1542,8.1697,8.1697,8.1736,8.189,8.1915,8.1907,8.1896,8.2159,0.0,0.0,0.0,0.0,0.0,0.0,0.0,0.0,0.0,0.0,8.7383,8.7397,0.0,0.0,0.0,0.0,0.0,0.0,0.0,0.0,0.0,0.0,0.0,0.0,0.0,0.0,0.0,0.0,0.0,0.0,0.0,0.0,0.0,0.0,0.0,0.0,9.5781,9.6836,9.8515,9.9609,10.0117,9.9219,9.8984,9.8789,9.7929,9.7695,9.7695,9.7695,9.7695,9.7695,9.7695,9.8398,9.9258,10.0117,10.1015,10.1914,10.2695,10.289,10.289,10.289,10.3711,10.4498,10.5395,10.6894,10.8398,11.0094,0.0,0.0,0.0,0.0,0.0,0.0,11.4113,11.4577,11.4612,11.458,11.4583,11.4583,11.5508,11.5895,11.5895,11.682,11.7207,11.7207,11.7207,11.7285,0.0,0.0,0.0,0.0,11.7682,11.7812,11.8008,11.8008,11.8086,11.8281,11.8281,11.8281,11.8281,0.0,0.0,0.0,0.0,0.0,0.0,0.0,8.1504,8.1542,8.1581,8.1581,8.1581,8.162,8.1697,8.177,8.1751,8.2023,0.0,0.0,0.0,0.0,0.0,0.0,0.0,0.0,0.0,8.6015,8.7383,8.742,8.7405,8.7407,8.7407,0.0,0.0,0.0,0.0,0.0,0.0,0.0,0.0,0.0,0.0,0.0,0.0,0.0,0.0,0.0,0.0,0.0,0.0,0.0,0.0,0.0,0.0,0.0,9.9375,9.9648,9.9492,9.9804,9.9023,9.8047,9.7773,9.7695,9.7695,9.7695,9.7695,9.7851,9.8476,9.9297,10.0195,10.1015,10.1914,10.2617,10.289,10.289,10.289,10.289,10.4207,10.5113,10.5293,10.7619,10.9592,0.0,0.0,0.0,0.0,0.0,0.0,0.0,11.5312,11.5505,11.5505,11.5508,11.5779,11.6398,11.6704,11.682,11.682,11.7091,11.7207,11.7207,11.7207,0.0,0.0,0.0,0.0,0.0,11.7606,11.7698,11.7886,11.8598,11.8906,11.9101,11.9804,12.0117,12.0117,0.0,0.0,0.0,0.0,0.0,0.0,0.0,8.1504,8.1504,8.1504,8.1504,8.1504,8.1504,8.1581,8.162,8.162,8.1797,0.0,0.0,0.0,0.0,0.0,0.0,0.0,0.0,8.5234,8.6054,8.7422,8.7422,8.742,8.7401,8.742,8.7407,8.7407,0.0,0.0,0.0,0.0,0.0,0.0,0.0,0.0,8.8032,0.0,0.0,0.0,0.0,0.0,0.0,0.0,0.0,0.0,0.0,0.0,0.0,0.0,9.9922,9.9609,10.0195,9.9023,9.7695,9.7695,9.7695,9.7695,9.7695,9.7969,9.8359,9.8906,9.9961,10.1015,10.1484,10.2304,10.289,10.289,10.292,10.301,10.3205,10.4502,10.5802,10.6807,0.0,0.0,0.0,0.0,0.0,0.0,0.0,0.0,0.0,11.6201,11.6398,11.6398,11.6398,11.6704,11.7207,11.7207,11.7207,11.7207,11.7207,11.7207,11.7207,11.7207,0.0,0.0,0.0,0.0,0.0,11.829,11.8404,11.859,11.9319,11.9709,11.9883,12.0508,12.0781,12.0898,0.0,0.0,0.0,0.0,0.0,0.0,0.0,8.1504,8.1504,8.1504,8.1504,8.1504,8.1504,8.1504,8.1504,8.1504,0.0,0.0,0.0,0.0,0.0,0.0,0.0,0.0,0.0,8.5742,8.664,8.75,8.7422,8.7383,8.7383,8.7397,8.7407,8.7407,8.7407,0.0,0.0,0.0,0.0,0.0,0.0,0.0,0.0,0.0,0.0,0.0,0.0,0.0,0.0,0.0,0.0,0.0,0.0,0.0,0.0,0.0,0.0,0.0,0.0,9.9023,9.7695,9.7695,9.7695,9.7734,9.7773,9.8437,0.0,9.914,10.0508,0.0,0.0,0.0,0.0,10.289,10.2887,10.3101,10.3797,10.4719,0.0,0.0,0.0,0.0,0.0,0.0,0.0,0.0,0.0,0.0,0.0,11.6782,11.7207,11.7207,11.7207,11.7207,11.7207,11.7207,11.7207,11.7207,11.7207,11.7207,11.7285,11.7285,0.0,0.0,0.0,0.0,0.0,11.9681,11.9797,11.999,12.0106,12.0305,12.0698,12.0781,12.0898,12.1093,0.0,0.0,0.0,0.0,0.0,0.0,0.0,0.0,0.0,0.0,8.1504,8.1504,8.1504,8.1504,8.1504,0.0,0.0,0.0,0.0,0.0,0.0,0.0,0.0,0.0,0.0,8.5742,8.664,8.75,8.7461,8.7461,8.7383,8.7411,8.7401,8.7401,8.742,8.7407,0.0,0.0,0.0,0.0,0.0,0.0,0.0,0.0,0.0,0.0,9.2304,9.2617,0.0,0.0,0.0,0.0,0.0,0.0,0.0,0.0,10.0781,0.0,10.0312,0.0,9.7695,9.7695,9.7695,9.7851,0.0,9.8867,0.0,0.0,0.0,0.0,0.0,0.0,0.0,0.0,0.0,10.3101,10.3797,0.0,0.0,0.0,0.0,0.0,0.0,0.0,0.0,0.0,0.0,0.0,0.0,11.7091,11.7207,11.7207,11.7207,11.7207,11.7207,11.7207,11.7207,11.7207,11.7207,11.7517,11.8097,11.8097,0.0,0.0,0.0,0.0,11.9685,11.9685,11.9685,11.9878,12.0727,12.1094,12.1521,12.2302,12.2695,12.289,0.0,0.0,0.0,0.0,0.0,0.0,0.0,0.0,0.0,0.0,0.0,0.0,0.0,0.0,0.0,0.0,0.0,0.0,0.0,0.0,0.0,0.0,0.0,8.447,8.5468,8.6367,8.7031,8.75,8.75,8.7461,8.7461,8.7459,8.7414,8.7408,8.7347,8.7312,0.0,0.0,0.0,0.0,8.7375,0.0,0.0,0.0,0.0,0.0,9.2422,9.2617,0.0,9.2617,9.2617,9.3047,0.0,0.0,0.0,0.0,10.1015,10.0312,10.0312,9.9023,9.7695,9.7695,9.8008,9.8437,9.8906,9.9609,10.0508,0.0,0.0,0.0,0.0,0.0,0.0,0.0,0.0,0.0,0.0,0.0,10.862,0.0,0.0,0.0,0.0,0.0,0.0,0.0,0.0,0.0,0.0,11.7207,11.7207,11.7207,11.7207,11.7207,11.7207,11.7207,11.7401,11.7787,11.7787,11.8174,11.9023,11.8987,11.9489,0.0,0.0,0.0,12.0883,12.0883,12.0883,12.0999,12.1501,12.1926,12.2106,12.2815,12.3203,12.3398,0.0,0.0,0.0,0.0,0.0,0.0,0.0,0.0,0.0,0.0,0.0,0.0,0.0,0.0,0.0,0.0,0.0,0.0,0.0,0.0,0.0,0.0,0.0,8.5322,8.6171,8.7031,8.75,8.75,8.75,8.75,8.75,8.749,8.744,8.7353,8.722,8.7156,0.0,0.0,0.0,0.0,8.7465,0.0,0.0,0.0,0.0,0.0,0.0,0.0,0.0,9.2617,9.2695,9.3242,9.5859,0.0,0.0,0.0,0.0,0.0,10.0117,9.9023,9.789,9.789,9.8437,9.9062,9.9336,10.0508,10.1601,0.0,0.0,0.0,0.0,0.0,0.0,0.0,0.0,0.0,10.4892,10.7614,10.9587,0.0,0.0,0.0,0.0,0.0,0.0,0.0,0.0,0.0,0.0,11.7207,11.7207,11.7401,11.7401,11.7401,11.7594,11.7401,11.7787,11.8597,11.86,11.9064,11.9913,11.9878,12.0419,0.0,0.0,0.0,12.2313,12.2313,12.2313,12.2313,12.2313,12.2391,12.2575,12.2814,12.2997,12.3203,0.0,0.0,0.0,0.0,0.0,0.0,0.0,0.0,0.0,0.0,0.0,0.0,0.0,0.0,0.0,0.0,0.0,0.0,0.0,0.0,0.0,8.5719,8.5894,8.6047,8.6211,8.7031,8.75,8.75,8.75,8.75,8.75,8.7487,8.7389,8.7208,8.7089,8.7037,8.7044,0.0,0.0,0.0,0.0,0.0,0.0,0.0,0.0,0.0,0.0,0.0,0.0,9.2617,9.3086,9.414,9.6719,0.0,0.0,0.0,0.0,0.0,9.9414,9.8984,9.8789,9.8789,9.8906,9.9375,10.0898,10.1406,10.1797,10.25,0.0,0.0,0.0,0.0,0.0,0.0,0.0,0.0,0.0,0.0,0.0,0.0,0.0,0.0,0.0,0.0,0.0,0.0,0.0,0.0,0.0,11.698,11.7401,11.8097,11.8174,11.8597,11.9294,11.8597,11.8597,11.9487,11.9528,11.9994,12.0805,12.0806,12.127,12.212,0.0,12.2197,12.2313,12.2313,12.2313,12.2313,12.2313,12.2391,12.2621,12.26,12.2804,12.3008,0.0,0.0,0.0,0.0,0.0,0.0,0.0,0.0,0.0,0.0,0.0,0.0,0.0,0.0,0.0,0.0,0.0,0.0,0.0,0.0,8.5039,8.5894,8.6373,8.6728,8.6914,8.7187,8.7383,8.75,8.7507,8.7454,8.7323,8.7271,8.7175,8.7072,8.6937,8.6877,8.6885,8.6881,0.0,0.0,0.0,0.0,0.0,0.0,0.0,0.0,0.0,0.0,0.0,0.0,9.3164,9.4336,9.6914,0.0,0.0,0.0,0.0,0.0,9.9258,9.8984,9.9093,9.9474,9.9942,10.0497,10.1192,0.0,0.0,0.0,0.0,0.0,0.0,0.0,0.0,0.0,0.0,0.0,0.0,0.0,0.0,0.0,0.0,0.0,0.0,0.0,0.0,0.0,0.0,0.0,0.0,0.0,11.7793,11.829,11.8793,11.9412,12.0379,11.9992,11.9992,12.0379,12.0381,12.0883,12.1694,12.1694,12.1926,12.2313,0.0,12.2313,12.2313,12.2313,12.2313,12.2313,12.2313,12.2391,12.2507,12.2584,12.2829,12.3116,0.0,0.0,0.0,0.0,0.0,0.0,0.0,0.0,0.0,0.0,0.0,0.0,0.0,0.0,0.0,0.0,0.0,0.0,0.0,0.0,8.5805,8.5999,8.6622,8.7092,8.7375,8.7245,8.7213,8.7372,8.74,8.728,8.7178,8.704,8.6941,8.6937,8.6829,8.6842,8.7065,8.7075,8.7577,0.0,0.0,0.0,0.0,0.0,0.0,0.0,0.0,0.0,0.0,0.0,0.0,0.0,0.0,0.0,0.0,10.0781,10.0703,9.9844,9.9179,9.914,9.9463,10.0199,0.0,10.139,0.0,0.0,0.0,0.0,0.0,0.0,0.0,0.0,0.0,0.0,0.0,0.0,0.0,0.0,0.0,0.0,0.0,0.0,0.0,0.0,0.0,0.0,0.0,0.0,0.0,0.0,11.8327,11.8797,11.9492,12.0303,12.1193,12.127,12.127,12.127,12.127,12.1617,12.2313,12.2313,12.2313,12.2313,12.2313,12.2313,12.2313,12.2313,12.2313,12.2313,12.2313,12.2313,12.2313,12.2507,12.2777,12.307,0.0,0.0,0.0,0.0,0.0,0.0,0.0,0.0,0.0,0.0,0.0,0.0,0.0,0.0,0.0,0.0,0.0,0.0,0.0,0.0,8.6081,8.6855,8.6855,8.6881,8.7047,8.7011,8.7001,8.704,8.7039,8.704,8.6996,8.6894,8.6817,8.6791,8.6648,8.7074,8.7835,8.7809,8.8389,8.9383,0.0,0.0,0.0,0.0,0.0,0.0,0.0,0.0,0.0,0.0,0.0,0.0,0.0,0.0,9.9179,10.0117,9.9765,9.9062,9.9023,9.9609,10.0401,10.1091,0.0,0.0,0.0,0.0,0.0,0.0,0.0,0.0,0.0,0.0,0.0,0.0,0.0,0.0,0.0,0.0,0.0,0.0,0.0,0.0,0.0,0.0,0.0,0.0,0.0,0.0,0.0,0.0,0.0,12.0499,12.0612,12.1077,12.2004,12.2004,12.2004,12.2004,12.2004,12.212,12.212,12.212,12.2197,12.2313,12.2313,12.2313,12.2313,12.2313,12.2313,12.2313,12.2313,12.2313,12.2313,12.2313,12.2507,12.2605,0.0,0.0,0.0,0.0,0.0,0.0,0.0,0.0,0.0,0.0,0.0,0.0,0.0,0.0,0.0,0.0,0.0,0.0,0.0,8.5952,8.6416,8.6726,8.6687,8.6687,8.6764,8.6848,8.6937,8.7015,8.6937,8.6886,8.688,8.6726,8.6687,8.6687,8.719,8.7588,8.7909,8.8439,8.9251,9.0122,9.0516,0.0,0.0,0.0,0.0,0.0,0.0,0.0,0.0,0.0,9.4844,9.625,9.7734,9.8945,9.9765,9.9531,9.9648,9.9679,9.9063,9.9911,10.1017,10.1119,0.0,0.0,0.0,0.0,0.0,0.0,0.0,0.0,0.0,0.0,0.0,0.0,0.0,0.0,0.0,0.0,0.0,0.0,0.0,0.0,0.0,0.0,0.0,0.0,0.0,0.0,0.0,0.0,0.0,12.0608,12.11,12.1615,12.2003,12.1995,12.1986,12.1909,12.1986,12.1986,12.1986,12.2005,12.2004,12.2197,12.2197,12.2197,12.2313,12.2313,12.2313,12.2313,12.2313,12.2313,12.2313,12.2313,12.2391,12.2581,0.0,0.0,0.0,0.0,0.0,0.0,0.0,0.0,0.0,0.0,0.0,0.0,0.0,0.0,0.0,0.0,0.0,0.0,8.572,8.6261,8.661,8.661,8.661,8.661,8.661,8.6687,8.6764,8.688,8.6764,8.6726,8.6699,8.6919,8.697,8.7047,8.7898,8.8373,8.8625,8.9233,9.0045,9.0904,9.1233,9.1616,0.0,0.0,0.0,0.0,0.0,0.0,0.0,0.0,9.5273,9.6679,9.7773,9.875,9.9414,9.9101,9.939,9.9748,9.9344,10.0195,10.1309,0.0,0.0,0.0,0.0,0.0,0.0,0.0,0.0,0.0,0.0,0.0,0.0,0.0,0.0,0.0,0.0,0.0,0.0,0.0,0.0,0.0,0.0,0.0,0.0,0.0,0.0,0.0,0.0,0.0,0.0,0.0,12.1507,12.1783,12.1909,12.1885,12.1793,12.1677,12.1793,12.1793,12.1916,12.1917,12.1887,12.2003,12.2082,12.2197,12.2197,12.2313,12.2313,12.2313,12.2313,12.2313,12.2313,12.2313,12.2391,12.2507,0.0,0.0,0.0,0.0,0.0,0.0,0.0,0.0,0.0,0.0,0.0,0.0,0.0,0.0,0.0,0.0,0.0,0.0,8.661,8.661,8.661,8.661,8.661,8.661,8.661,8.661,8.661,8.661,8.661,8.6583,8.6539,8.7472,8.787,8.7852,8.8664,8.9475,9.0286,9.0234,9.0767,9.1677,9.2488,9.2458,0.0,0.0,0.0,0.0,0.0,0.0,0.0,0.0,9.5781,9.6797,9.8476,9.8398,9.789,9.875,9.8899,9.9004,9.9885,10.0581,0.0,0.0,0.0,0.0,0.0,0.0,0.0,0.0,0.0,0.0,0.0,0.0,0.0,0.0,0.0,0.0,0.0,0.0,0.0,0.0,0.0,0.0,0.0,0.0,0.0,0.0,0.0,0.0,0.0,0.0,0.0,0.0,12.1793,12.1793,12.1793,12.1793,12.1677,12.16,12.16,12.1677,12.1793,12.1793,12.1793,12.1916,12.2003,12.212,12.212,12.2197,12.2313,12.2313,12.2313,12.2313,12.2313,12.2313,12.2313,12.2313,0.0,0.0,0.0,0.0,0.0,0.0,0.0,0.0,0.0,0.0,0.0,0.0,0.0,0.0,0.0,0.0,0.0,0.0,8.661,8.661,8.661,8.661,8.661,8.661,8.661,8.661,8.661,8.661,8.7228,8.7472,8.7511,8.8428,8.8814,8.8826,8.9581,9.0054,9.0325,9.0913,9.174,9.2634,9.2325,9.2506,9.2961,0.0,0.0,0.0,0.0,0.0,0.0,0.0,0.0,0.0,9.847,9.8672,9.8507,9.8779,9.9281,9.9847,10.0504,10.1193,0.0,0.0,0.0,0.0,0.0,0.0,0.0,0.0,0.0,0.0,0.0,0.0,0.0,0.0,0.0,0.0,0.0,0.0,0.0,0.0,0.0,0.0,0.0,0.0,0.0,0.0,0.0,0.0,0.0,12.0916,12.1408,12.16,12.1677,12.1677,12.1677,12.1677,12.16,12.16,12.16,12.16,12.1677,12.1677,12.1677,12.1793,12.1937,12.1998,12.212,12.2197,12.2313,12.2313,12.2313,12.2313,12.2313,12.2313,12.2313,12.2313,0.0,0.0,0.0,0.0,0.0,0.0,0.0,0.0,0.0,0.0,0.0,0.0,0.0,0.0,0.0,0.0,0.0,0.0,0.0,8.661,8.661,8.661,8.661,8.6764,8.7112,8.7112,8.7306,8.7615,8.7809,8.8052,8.8334,8.9279,8.9665,8.9648,9.047,9.0982,9.1291,9.1454,9.2087,9.2943,9.248,9.2461,9.2799,0.0,0.0,0.0,0.0,0.0,0.0,0.0,0.0,0.0,9.8201,9.8513,9.8782,9.8813,9.9576,10.0504,10.0775,0.0,0.0,0.0,0.0,0.0,0.0,0.0,0.0,0.0,0.0,0.0,0.0,0.0,0.0,0.0,0.0,0.0,0.0,0.0,0.0,0.0,0.0,0.0,0.0,0.0,0.0,0.0,0.0,0.0,0.0,12.1293,12.16,12.16,12.16,12.16,12.16,12.16,12.16,12.16,12.16,12.16,12.16,12.16,12.16,12.1677,12.1827,12.2001,12.2197,12.2313,12.2313,12.2313,12.2313,12.2313,12.2313,12.2313,12.2313,12.2313,0.0,0.0,0.0,0.0,0.0,0.0,0.0,0.0,0.0,0.0,0.0,0.0,0.0,0.0,0.0,0.0,0.0,0.0,0.0,8.661,8.661,8.661,8.6687,8.7112,8.7886,8.8002,8.8428,8.9317,8.8505,8.8478,8.9127,9.0102,9.046,9.0441,9.1329,9.2063,9.2643,9.1855,9.2041,9.2797,9.2797,9.247,9.2102,9.3688,0.0,0.0,0.0,0.0,0.0,0.0,0.0,0.0,9.7905,9.8184,9.881,9.8926,9.9924,10.0891,10.0999,0.0,0.0,0.0,0.0,0.0,0.0,0.0,0.0,0.0,0.0,0.0,0.0,0.0,0.0,0.0,0.0,0.0,0.0,0.0,0.0,0.0,0.0,0.0,0.0,0.0,0.0,0.0,0.0,0.0,0.0,12.16,12.16,12.16,12.16,12.16,12.16,12.16,12.16,12.16,12.16,12.16,12.16,12.16,12.16,12.1608,12.181,12.2004,12.2313,12.2313,12.2313,12.2313,12.2313,12.2313,12.2313,12.2313,12.2313,12.2313,0.0,0.0,0.0,0.0,0.0,0.0,0.0,0.0,0.0,0.0,0.0,0.0,0.0,0.0,0.0,0.0,0.0,0.0,0.0,8.661,8.661,8.661,8.7267,8.7731,8.7925,8.8582,8.9317,9.013,8.9936,8.9936,9.0102,9.0963,9.1388,9.1417,9.2149,9.2265,9.1958,9.2334,9.2711,9.2963,9.2963,9.3234,9.3766,9.481,9.512,0.0,0.0,0.0,0.0,0.0,0.0,0.0,9.888,9.8957,9.8803,10.0079,10.0697,10.0999,10.1502,10.1812,0.0,0.0,0.0,0.0,0.0,0.0,0.0,0.0,0.0,0.0,0.0,0.0,0.0,0.0,0.0,0.0,0.0,0.0,0.0,0.0,0.0,0.0,0.0,0.0,0.0,0.0,0.0,0.0,12.16,12.16,12.16,12.16,12.16,12.16,12.16,12.16,12.16,0.0,12.16,12.16,12.16,12.16,12.1677,12.1801,12.1887,12.2004,12.2197,12.2313,12.2313,12.2313,12.2313,12.2313,12.2313,12.2313,12.2313,12.2313,0.0,0.0,0.0,0.0,0.0,0.0,0.0,0.0,0.0,0.0,0.0,0.0,0.0,0.0,0.0,0.0,0.0,0.0,0.0,0.0,8.6803,8.719,8.8079,8.8698,8.9085,8.9549,9.0168,9.1019,9.0991,9.0963,9.0963,9.1338,9.1531,9.1659,9.2033,9.2218,9.2373,9.2702,9.3157,9.3611,9.4037,9.4462,9.4926,9.5777,9.6125,9.6241,0.0,0.0,0.0,0.0,0.0,0.0,0.0,0.0,9.9808,10.0697,10.1115,10.1502,10.1812,0.0,0.0,10.1889,0.0,0.0,0.0,0.0,0.0,0.0,0.0,0.0,0.0,0.0,0.0,0.0,0.0,0.0,0.0,0.0,0.0,0.0,0.0,0.0,0.0,0.0,0.0,0.0,0.0,12.1731,12.16,12.16,12.16,12.16,12.16,12.16,12.16,12.16,12.16,12.16,12.16,12.16,12.16,12.16,12.1677,12.1801,12.1909,12.2003,12.212,12.2197,12.2313,12.2313,12.2313,12.2313,12.2313,12.2313,12.2313,12.2313,0.0,0.0,0.0,0.0,0.0,0.0,0.0,0.0,0.0,0.0,0.0,0.0,0.0,0.0,0.0,0.0,0.0,0.0,0.0,0.0,0.0,8.8079,8.8931,8.9704,9.04,9.0555,9.0981,9.1687,9.1629,9.157,0.0,0.0,9.147,9.16,9.1909,9.2364,9.3031,9.3456,9.3959,9.4501,9.5352,9.57,9.5816,9.6706,9.7015,9.7131,0.0,0.0,0.0,0.0,0.0,0.0,0.0,0.0,10.0891,10.0999,10.1502,10.1889,10.1889,10.1889,10.1889,10.1889,10.2585,0.0,10.3398,0.0,0.0,0.0,0.0,0.0,0.0,0.0,0.0,0.0,0.0,0.0,0.0,0.0,0.0,0.0,0.0,0.0,0.0,0.0,0.0,0.0,0.0,12.16,12.16,12.16,12.16,12.16,12.16,12.16,12.16,12.16,12.16,12.16,12.16,12.16,12.16,12.16,12.1677,12.1793,12.187,12.1986,12.212,12.2197,12.2313,12.2313,12.2313,12.2313,12.2313,12.2313,12.2313,12.2313,0.0,0.0,0.0,0.0,0.0,0.0,0.0,0.0,0.0,0.0,0.0,0.0,0.0,0.0,0.0,0.0,0.0,0.0,0.0,0.0,0.0,8.9008,8.982,9.0284,9.04,9.1135,9.1571,9.16,9.15,0.0,0.0,0.0,0.0,9.1677,9.3106,9.3475,9.3147,9.5352,9.5932,9.539,9.628,9.6628,9.6706,9.7595,9.7943,0.0,0.0,0.0,0.0,0.0,0.0,0.0,0.0,0.0,10.0999,10.1618,10.1812,10.1889,10.1889,10.1889,10.1889,0.0,10.2585,10.3398,0.0,0.0,10.5912,0.0,0.0,0.0,0.0,0.0,0.0,0.0,0.0,0.0,0.0,0.0,0.0,0.0,0.0,0.0,0.0,0.0,0.0,0.0,12.1693,12.16,12.16,12.16,12.16,12.16,12.16,12.16,12.16,12.16,12.16,12.16,12.16,12.16,12.16,12.16,12.1677,12.1793,12.187,12.1986,12.212,12.2197,12.2313,12.2313,12.2313,12.2313,12.2313,12.2313,12.2313,12.2313,0.0,0.0,0.0,0.0,0.0,0.0,0.0,0.0,0.0,0.0,0.0,0.0,0.0,0.0,0.0,8.8002,8.8428,8.8621,0.0,0.0,0.0,8.9859,9.0671,9.1135,9.1135,9.1484,9.1687,9.16,0.0,0.0,0.0,9.2164,9.2226,0.0,0.0,0.0,9.4481,9.6066,9.6529,9.6297,9.7643,9.7943,9.7557,9.7943,9.8098,0.0,0.0,0.0,0.0,0.0,0.0,0.0,10.0496,0.0,0.0,0.0,10.1889,10.1889,10.1889,10.1889,10.1889,10.1889,10.2895,10.4017,10.4287,10.5487,10.6492,10.6879,0.0,0.0,0.0,0.0,0.0,0.0,0.0,0.0,0.0,0.0,0.0,0.0,0.0,0.0,0.0,0.0,0.0,0.0,12.1731,12.16,12.16,12.16,12.16,12.16,12.16,12.16,12.16,12.16,12.16,12.16,12.16,12.16,12.16,12.16,12.16,12.1724,12.1794,12.1927,12.2004,12.2197,12.2313,12.2313,12.2313,12.2313,12.2313,12.2313,12.2313,12.2313,0.0,0.0,0.0,0.0,0.0,0.0,0.0,0.0,0.0,0.0,0.0,0.0,0.0,0.0,0.0,0.0,8.9395,8.9588,8.982,0.0,0.0,9.0749,9.1367,9.1716,9.1716,9.1687,9.1736,9.1909,0.0,0.0,9.302,9.3083,9.3346,0.0,9.3708,0.0,0.0,0.0,0.0,0.0,0.0,9.8571,9.8068,9.8068,0.0,9.8068,9.833,0.0,0.0,0.0,0.0,0.0,0.0,0.0,0.0,0.0,0.0,10.1889,10.1889,10.1889,10.1889,10.1889,10.3204,10.4403,10.4403,0.0,10.6995,0.0,0.0,0.0,0.0,0.0,0.0,0.0,0.0,0.0,0.0,0.0,0.0,0.0,0.0,0.0,0.0,0.0,0.0,0.0,12.1685,12.16,12.16,12.16,12.16,12.16,12.16,12.16,12.16,12.16,12.16,12.16,12.16,12.16,12.16,12.16,12.16,12.1608,12.1802,12.1889,12.1926,12.2197,12.2197,12.2313,12.2313,12.2313,12.2313,12.2313,12.2313,12.2313,0.0,0.0,0.0,0.0,0.0,0.0,0.0,0.0,0.0,0.0,0.0,0.0,0.0,8.9124,8.9163,8.9201,8.9898,9.0671,9.1522,9.16,9.1638,9.1638,9.1677,0.0,9.1716,9.1629,9.1986,0.0,0.0,0.0,9.3946,9.3946,9.4795,9.6299,9.6436,9.6442,9.6531,0.0,0.0,0.0,0.0,0.0,0.0,0.0,0.0,0.0,0.0,0.0,0.0,0.0,0.0,0.0,0.0,0.0,0.0,0.0,0.0,0.0,10.1889,10.1889,10.1889,10.1889,10.3204,10.4403,10.4403,0.0,10.6995,10.6995,10.831,11.0012,11.1714,0.0,0.0,0.0,0.0,0.0,0.0,0.0,0.0,0.0,0.0,0.0,0.0,0.0,0.0,0.0,12.16,12.16,12.16,12.16,12.16,12.16,12.16,12.16,12.16,12.16,12.16,12.16,12.16,12.16,12.16,12.16,12.16,12.16,12.1724,12.1798,12.1926,12.212,12.212,12.212,12.2313,12.2313,12.2313,12.2313,12.2313,12.2313,0.0,0.0,0.0,0.0,0.0,0.0,0.0,0.0,0.0,0.0,0.0,0.0,0.0,8.9975,9.0207,9.0749,9.1058,9.1367,9.1677,9.1716,9.1716,9.1716,9.1716,9.1948,9.2528,9.2499,9.2896,0.0,0.0,9.4041,9.4833,9.4898,9.5754,9.7238,9.6733,9.7114,9.819,9.8841,0.0,0.0,0.0,0.0,0.0,0.0,0.0,0.0,0.0,0.0,0.0,0.0,0.0,0.0,0.0,0.0,0.0,0.0,0.0,10.1889,10.1889,10.1889,10.1889,10.1889,10.3204,10.4403,10.4403,10.5719,10.7189,10.7691,10.8697,11.0206,11.2488,11.361,11.4809,11.6898,11.7207,11.7207,11.7207,11.7207,11.7171,11.7134,11.7831,11.8603,11.921,11.9972,12.0814,12.1485,0.0,12.16,12.16,12.16,12.16,12.16,12.16,12.16,12.16,12.16,12.16,12.16,12.16,12.16,12.16,12.1023,12.0831,12.0716,12.0284,12.073,12.1794,12.1408,12.1187,12.1193,12.069,12.0613,12.0613,12.0613,12.0613,12.0613,0.0,0.0,0.0,0.0,0.0,0.0,0.0,0.0,0.0,0.0,0.0,0.0,0.0,0.0,9.1058,9.1638,9.1716,9.1716,9.1716,9.1716,9.1832,9.2141,9.2141,9.2528,9.3379,9.3079,9.3475,0.0,0.0,0.0,0.0,9.5682,9.642,9.7704,9.736,9.7896,0.0,0.0,0.0,9.8334,0.0,0.0,9.8339,0.0,0.0,0.0,0.0,0.0,0.0,0.0,0.0,0.0,0.0,0.0,0.0,0.0,0.0,0.0,10.1889,10.1889,10.2005,10.2315,10.3398,10.4519,10.479,10.5989,10.7189,10.8078,10.8891,11.0206,11.2488,11.3803,11.5196,11.6898,11.7207,11.7207,11.7207,11.7207,11.721,11.6982,11.7484,11.81,11.8701,11.9504,12.0307,12.11,12.1408,0.0,12.16,12.16,12.16,12.16,12.16,12.16,12.16,12.16,12.16,12.16,12.1293,12.1177,12.11,12.0284,11.9861,11.9908,11.9292,11.9831,12.0908,12.04,12.0203,12.0226,11.9761,11.957,11.9569,11.9685,11.9685,11.9685,0.0,0.0,0.0,0.0,0.0,0.0,0.0,0.0,0.0,9.0323,0.0,0.0,0.0,0.0,0.0,9.1754,9.1754,9.1754,9.1754,9.1754,9.2141,9.2992,9.3031,9.3418,9.423,9.333,9.3724,9.5424,0.0,9.4877,9.6394,0.0,9.6895,9.7781,9.8441,9.8863,9.8937,0.0,9.9183,9.9116,0.0,9.9046,9.9052,0.0,0.0,0.0,10.1516,10.1889,0.0,0.0,0.0,0.0,0.0,0.0,0.0,0.0,0.0,0.0,0.0,0.0,0.0,10.3011,10.3784,10.4597,10.5487,10.6415,10.7189,10.8078,10.8891,11.0012,11.1792,11.3494,11.5118,11.6898,11.7207,11.7207,11.7207,11.7207,11.7094,11.6982,11.6904,11.7093,11.7892,11.8568,11.9408,12.0216,12.11,12.16,12.16,12.16,12.16,12.16,12.16,12.16,12.16,12.16,12.16,12.16,12.0677,12.0292,12.0177,11.94,11.91,11.9113,11.8998,11.903,11.9015,11.9131,11.9215,11.919,11.9383,11.9487,11.9487,11.9603,11.9603,11.9603,0.0,0.0,0.0,0.0,0.0,0.0,0.0,0.0,0.0,0.0,0.0,0.0,9.1677,9.1716,9.1948,9.2605,9.2644,9.2876,9.3456,9.3495,9.3611,9.3843,9.3882,9.424,9.503,9.4806,9.52,9.6217,9.5914,9.6034,9.6394,9.6394,9.7167,0.0,9.8132,9.8669,9.9823,9.9897,0.0,0.0,9.9702,9.9897,0.0,0.0,0.0,0.0,0.0,10.1787,0.0,0.0,10.1889,10.1889,0.0,0.0,0.0,0.0,0.0,0.0,10.1889,0.0,0.0,0.0,0.0,0.0,10.5487,10.6415,10.7189,10.8078,10.8891,11.0012,11.1792,11.2991,11.4306,11.6008,11.682,11.7207,11.7207,11.7207,11.7096,11.6904,11.6786,11.709,11.7799,11.7984,11.8484,0.0,12.0216,12.0677,12.0677,12.1293,12.16,12.16,12.16,12.16,12.16,12.0985,12.0677,12.06,11.9792,11.9408,11.9408,11.8477,11.8169,11.81,11.7484,11.7176,11.733,11.7907,11.8222,11.8106,11.7683,11.7594,11.7594,11.7787,11.7904,11.7904,0.0,0.0,0.0,0.0,0.0,0.0,0.0,0.0,0.0,0.0,0.0,0.0,9.2721,9.2721,9.2953,9.3456,9.3495,9.3688,9.4153,9.4191,9.4346,9.4674,9.4674,9.5069,9.5825,9.5516,9.5715,9.6463,9.6078,9.6236,9.6861,9.6861,9.7554,0.0,0.0,0.0,0.0,0.0,0.0,0.0,10.0401,0.0,0.0,10.1288,10.1516,0.0,0.0,0.0,10.1787,10.1793,10.1793,0.0,0.0,0.0,0.0,0.0,0.0,0.0,0.0,0.0,0.0,0.0,0.0,0.0,10.5989,10.6608,10.7189,10.8078,10.8891,10.9896,11.1289,11.2488,11.3687,11.4693,11.5892,11.682,11.7091,11.7207,11.7096,11.6826,11.6786,11.6897,11.7221,11.76,11.8023,11.8484,11.9292,11.9908,12.0292,12.11,12.16,12.16,12.16,12.1408,12.11,12.06,12.01,11.9792,11.8985,11.86,11.8484,11.7715,11.733,11.7215,11.6715,11.6484,11.6484,11.6984,11.7298,11.7221,11.6869,11.6823,11.682,11.7091,11.7207,11.7207,0.0,0.0,0.0,0.0,0.0,0.0,0.0,0.0,0.0,0.0,9.2644,9.3418,9.4114,9.4191,9.423,9.4346,9.4346,9.4385,9.4462,9.4501,9.479,9.547,9.5509,9.5825,9.6492,9.5798,9.5731,9.6394,9.5704,0.0,0.0,0.0,0.0,0.0,0.0,0.0,0.0,0.0,0.0,10.0402,10.1172,10.1404,0.0,0.0,10.1518,0.0,10.1627,10.1581,10.1688,10.162,0.0,0.0,0.0,0.0,0.0,0.0,10.2005,0.0,0.0,0.0,0.0,0.0,0.0,0.0,10.6802,10.6995,10.7189,10.8001,10.8891,10.9703,11.0515,11.1985,11.3184,11.33,11.4616,11.5892,11.6898,11.7091,11.7096,11.6826,11.6786,11.6704,11.6529,11.7215,11.7715,11.7715,11.8484,11.9292,12.0292,12.0985,12.1485,12.16,12.1485,12.11,12.0292,12.01,11.9715,11.8908,11.81,11.7715,11.76,11.6907,11.6484,11.6484,11.6484,11.6484,11.6484,11.6484,11.6484,11.6484,11.6676,11.6823,11.682,11.7091,11.7207,11.7207,0.0,0.0,0.0,0.0,0.0,0.0,0.0,0.0,9.2992,9.3611,9.3843,9.4037,9.4191,9.4191,9.4462,9.5197,9.5236,9.5516,9.6151,9.6228,9.6236,9.6294,9.6294,9.6304,9.6429,9.6275,9.624,9.6325,9.6825,0.0,0.0,0.0,0.0,0.0,0.0,0.0,0.0,0.0,0.0,10.1097,10.1328,0.0,0.0,10.1289,10.1404,10.1518,10.1516,10.1591,10.162,0.0,10.1585,10.1581,0.0,0.0,0.0,0.0,0.0,0.0,0.0,0.0,0.0,0.0,0.0,0.0,10.6802,10.6995,10.6995,10.7189,10.8504,10.9587,10.9703,11.1211,11.2488,11.3184,11.361,11.4383,11.5892,11.682,11.7096,11.6826,11.6786,11.6704,11.6529,11.6676,11.6792,11.6792,11.76,11.8715,12.0216,12.0485,12.0908,12.16,12.0908,12.0485,12.0292,11.8985,11.8215,11.8023,11.7215,11.6792,11.6715,11.6599,11.6484,11.6484,11.6484,11.6484,11.6484,11.6484,11.6484,11.6484,11.6676,11.6823,11.682,11.7091,11.7207,11.7207,0.0,0.0,0.0,0.0,0.0,0.0,0.0,0.0,9.3727,9.4153,9.4549,9.4944,9.5408,9.5378,9.5571,9.6066,9.6035,9.6197,9.6661,9.6629,9.6564,9.6425,9.6463,9.6621,9.6938,9.6938,9.7133,9.7557,9.7942,0.0,0.0,0.0,0.0,0.0,0.0,0.0,0.0,0.0,10.1289,10.1289,10.1289,0.0,10.1289,10.1289,10.1328,10.1404,10.1404,10.1712,10.2211,10.2595,10.2786,0.0,0.0,10.282,10.2894,0.0,10.3416,10.3725,0.0,0.0,0.0,10.5603,0.0,0.0,0.0,10.6995,10.6995,10.6995,10.831,10.9509,10.9509,11.0902,11.2217,11.2604,11.2991,11.361,11.4499,11.5699,11.6516,11.6209,11.6593,11.6704,11.6529,11.6484,11.6484,11.6484,11.7292,11.8215,11.8985,11.9792,12.0485,12.0908,12.0485,12.01,11.9715,11.8407,11.76,11.71,11.6676,11.6484,11.6484,11.6484,11.6484,11.6484,11.6484,11.6484,11.6484,11.6484,11.6484,11.6484,11.6676,11.6823,11.682,11.7014,11.7091,11.7091,0.0,0.0,0.0,0.0,0.0,0.0,0.0,0.0,9.4472,9.4626,9.5223,9.5856,9.6552,9.6564,9.6603,9.6899,9.6796,9.6873,0.0,0.0,9.6926,9.6859,9.6859,9.7131,9.775,9.775,9.8096,9.8788,9.8981,9.9404,10.0096,10.0289,0.0,0.0,0.0,0.0,0.0,0.0,0.0,10.1289,0.0,10.1289,10.1289,10.152,10.1597,10.1597,10.1712,10.2289,10.2981,10.3714,0.0,10.3984,10.3984,10.3983,0.0,0.0,0.0,0.0,0.0,0.0,0.0,0.0,0.0,10.6995,0.0,0.0,0.0,10.7189,10.8504,10.9587,10.9703,11.1018,11.2024,11.1714,11.2411,11.2991,11.2604,11.419,11.5395,11.5398,11.5899,11.628,11.6298,11.6369,11.6484,11.6484,11.7215,11.76,11.7792,11.91,11.9908,12.01,11.9908,11.9485,11.8908,11.7984,11.7215,11.6484,11.6484,11.6484,11.6484,11.6484,11.6484,11.6484,11.6484,11.6484,11.6484,11.6484,11.6484,11.6484,11.6599,11.6701,11.671,11.6904,11.698,11.7014,0.0,0.0,0.0,0.0,9.4037,9.4346,9.5236,9.5292,9.547,9.6139,9.6332,9.6415,9.6492,0.0,0.0,0.0,0.0,0.0,9.8626,0.0,9.8592,9.8557,9.8557,9.8557,9.8634,9.8634,9.8711,9.8788,9.9558,9.9981,10.0096,10.0789,10.1212,0.0,10.1289,0.0,0.0,0.0,10.1289,0.0,10.1289,10.1289,0.0,10.2212,10.252,10.2597,10.3289,10.3712,10.3789,0.0,10.3984,10.3984,0.0,10.3984,0.0,0.0,0.0,0.0,0.0,0.0,0.0,0.0,10.6879,0.0,0.0,0.0,10.7189,10.8001,0.0,10.9703,11.0515,0.0,0.0,11.0012,11.1211,11.1714,11.009,11.2101,11.3884,11.4509,11.4588,11.4817,11.5503,11.6111,11.6484,11.6484,11.6599,11.6984,11.7792,11.8023,11.8407,11.9215,11.8484,11.8023,11.7907,11.71,11.6599,11.6484,11.6484,11.6484,11.6484,11.6484,11.6484,11.6484,11.6484,11.6484,11.6484,11.6484,11.6484,11.6484,11.6599,11.6682,11.6688,11.6804,11.6902,11.7014,0.0,0.0,0.0,0.0,9.4906,9.5215,9.6066,9.6088,9.6332,9.7148,9.723,9.7354,0.0,0.0,0.0,0.0,0.0,0.0,0.0,0.0,9.8826,9.8788,9.8788,0.0,9.9519,9.9558,9.9788,10.0289,10.0596,10.0789,10.0789,10.1096,10.1289,0.0,10.1289,0.0,10.1289,0.0,0.0,0.0,0.0,0.0,0.0,10.2712,10.2904,10.3482,10.4289,10.4597,10.4713,0.0,10.5407,0.0,0.0,0.0,0.0,0.0,0.0,0.0,0.0,0.0,0.0,0.0,0.0,0.0,0.0,0.0,10.8581,0.0,0.0,0.0,0.0,0.0,0.0,0.0,11.1598,11.1792,11.1095,11.1985,11.2917,11.3698,11.4085,11.4704,11.5272,11.6111,11.6484,11.6484,11.6484,11.6676,11.6984,11.7484,11.8023,11.8292,11.8023,11.7792,11.7792,11.6907,11.6484,11.6484,11.6484,11.6484,11.6484,11.6484,11.6484,11.6484,11.6484,11.6484,11.6484,11.6484,11.6484,11.6484,11.6599,11.6599,11.6599,11.6676,11.6809,11.6902,0.0,0.0,0.0,0.0,0.0,9.6011,9.6828,9.6878,9.7153,9.7967,0.0,0.0,9.8823,9.8826,0.0,0.0,0.0,9.9288,0.0,0.0,9.9481,0.0,0.0,0.0,0.0,0.0,10.0712,10.1289,10.1289,10.1289,10.1289,10.1289,10.1289,10.1289,0.0,10.1289,10.1289,0.0,0.0,10.2597,10.2904,10.3482,10.4212,10.3482,10.3789,10.4713,10.5482,10.579,10.5905,10.679,10.7098,0.0,10.7098,0.0,0.0,0.0,0.0,0.0,10.759,0.0,0.0,0.0,0.0,0.0,0.0,0.0,0.0,0.0,0.0,0.0,0.0,0.0,0.0,0.0,0.0,11.1908,11.1521,11.1792,11.2299,11.2807,11.3582,11.4395,11.5008,11.5769,11.6303,11.649,11.6606,11.649,11.6484,11.71,11.7407,11.7407,11.7407,11.7407,11.7407,11.6792,11.6484,11.6484,11.6484,11.6484,11.6484,11.6484,11.6484,11.6484,11.6484,11.6484,11.6484,11.6484,11.6484,11.6484,11.6484,11.6484,11.6484,11.6599,11.6676,11.6804,0.0,9.6317,0.0,0.0,0.0,9.6729,9.7511,9.7665,9.7937,0.0,0.0,0.0,0.0,0.0,0.0,0.0,0.0,10.0404,10.1212,0.0,10.1212,0.0,0.0,0.0,0.0,0.0,0.0,10.1289,10.1289,10.1289,10.1289,10.1289,10.1289,10.1289,0.0,10.1289,10.1404,10.2212,10.2597,10.2712,10.3482,10.4289,10.5097,0.0,10.5597,10.6405,10.729,0.0,0.0,10.8482,10.8911,0.0,0.0,0.0,0.0,0.0,0.0,0.0,0.0,0.0,0.0,0.0,0.0,0.0,0.0,0.0,10.9703,0.0,0.0,0.0,0.0,0.0,0.0,0.0,0.0,0.0,0.0,11.1018,11.2101,11.2101,11.2807,11.3506,11.4278,11.5089,11.5897,11.6582,11.6697,11.6616,11.6484,11.6484,11.6484,11.6484,11.6484,11.6484,11.6484,11.6484,11.6484,11.6484,11.6484,11.6484,11.6484,11.6484,11.6484,11.6484,11.6484,11.6484,11.6484,11.6484,11.6484,11.6484,11.6484,11.6484,11.6484,11.6484,11.6599,11.6804,0.0,0.0,0.0,0.0,0.0,0.0,9.8324,9.8403,9.8711,0.0,0.0,0.0,0.0,0.0,10.0596,0.0,0.0,10.1019,10.1289,10.1289,0.0,0.0,0.0,10.1289,0.0,0.0,0.0,0.0,0.0,10.1289,10.1289,10.1289,10.1289,10.1289,0.0,10.1597,0.0,0.0,0.0,0.0,0.0,10.6597,10.679,0.0,0.0,10.7405,10.8213,10.8482,0.0,10.879,10.8909,10.8986,10.8906,10.8909,10.9027,10.9068,10.9108,0.0,0.0,0.0,10.9224,10.941,0.0,0.0,0.0,0.0,0.0,0.0,0.0,0.0,0.0,0.0,0.0,0.0,0.0,0.0,0.0,11.1714,11.2101,11.2101,0.0,0.0,11.3468,11.4701,11.5583,11.5811,11.6265,11.649,11.6484,11.6484,11.6484,11.6484,11.6484,11.6484,11.6484,11.6484,11.6484,11.6484,11.6484,11.6484,11.6484,11.6484,11.6484,11.6484,11.6484,11.6484,11.6484,11.6484,11.6484,11.6484,11.6484,11.6484,11.6484,11.6484,11.6599,11.6721,9.7942,0.0,0.0,0.0,0.0,0.0,0.0,9.925,0.0,0.0,10.0481,0.0,0.0,0.0,10.1289,0.0,10.1289,10.1289,10.1289,10.1289,0.0,0.0,10.1289,0.0,0.0,0.0,0.0,0.0,0.0,10.1289,10.1289,10.1289,10.1289,10.1289,0.0,10.2097,10.2597,0.0,10.4289,0.0,0.0,10.829,0.0,0.0,10.8713,10.829,0.0,10.979,10.9906,11.0483,11.0714,11.0714,11.0714,11.0714,11.0675,11.0798,11.0567,11.0415,11.0497,11.0303,0.0,0.0,11.0574,0.0,0.0,0.0,0.0,0.0,0.0,0.0,0.0,0.0,0.0,0.0,0.0,0.0,0.0,11.2101,0.0,0.0,0.0,0.0,11.3196,11.4317,11.5082,11.5387,11.6072,11.6606,11.6484,11.6484,11.6484,11.6484,11.6484,11.6484,11.6484,11.6484,11.6484,11.6484,11.6484,11.6484,11.6484,11.6484,11.6484,11.6484,11.6484,11.6484,11.6484,11.6484,11.6484,11.6484,11.6484,11.6484,11.6484,11.6484,11.6599,11.6599,0.0,0.0,0.0,0.0,9.8904,0.0,0.0,0.0,10.0404,0.0,10.1289,10.1289,10.1289,10.1289,10.1289,10.1289,0.0,0.0,10.1289,10.1289,0.0,0.0,10.1289,10.1289,0.0,0.0,0.0,0.0,0.0,0.0,10.1289,10.1289,10.1404,10.1404,10.2289,0.0,10.2789,10.4482,10.5713,10.6713,10.8406,10.9483,11.0406,11.1291,0.0,10.9406,11.1021,11.1598,11.1906,11.3483,11.3984,11.3984,11.3984,11.3984,11.3984,11.3984,11.3407,11.2791,11.288,11.2305,11.1766,11.1886,0.0,0.0,0.0,0.0,11.1998,0.0,0.0,0.0,0.0,0.0,0.0,11.1996,11.1993,11.2101,0.0,0.0,0.0,0.0,0.0,0.0,11.308,11.3777,11.4509,11.5272,11.6119,11.6616,11.6484,11.6484,11.6484,11.6484,11.6484,11.6484,11.6484,11.6484,11.6484,11.6484,11.6484,11.6484,11.6484,11.6484,11.6484,11.6484,11.6484,11.6484,11.6484,11.6484,11.6484,11.6484,11.6484,11.6484,11.6484,11.6484,11.6484,11.6484,9.975,10.0212,10.0712,0.0,10.0712,10.0712,0.0,0.0,0.0,0.0,10.1289,10.1289,10.1289,10.1289,10.1289,10.1289,10.1289,0.0,0.0,0.0,0.0,10.1289,10.1289,10.1289,10.1289,0.0,0.0,10.1289,0.0,0.0,10.1289,10.202,10.2289,10.2289,10.3212,10.3905,10.4482,10.5597,10.729,10.929,11.0406,11.1291,0.0,0.0,11.3099,11.2714,11.3214,11.3407,11.3407,11.3907,11.3984,11.3984,11.3984,11.3984,11.3984,11.3984,11.3791,11.3676,11.3719,11.3604,11.3416,11.35,11.3502,11.3504,0.0,0.0,0.0,0.0,0.0,0.0,0.0,0.0,0.0,0.0,0.0,0.0,0.0,0.0,0.0,11.1996,0.0,0.0,11.2191,11.2889,11.3618,11.4386,11.5187,11.5913,11.6484,11.6484,11.6484,11.6484,11.6484,11.6484,11.6484,11.6484,11.6484,11.6484,11.6484,11.6484,11.6484,11.6484,11.6484,11.6484,11.6484,11.6484,11.6484,11.6484,11.6484,11.6484,11.6484,11.6484,11.6484,11.6484,11.6484,11.6484,10.0596,0.0,0.0,0.0,0.0,0.0,10.1289,0.0,0.0,10.1289,0.0,0.0,10.1289,10.1597,10.1904,10.1904,10.2212,0.0,0.0,0.0,0.0,10.2404,10.2404,10.2404,10.2404,10.2404,0.0,10.2404,0.0,0.0,10.2404,10.2904,10.3212,10.3212,10.3982,10.4905,10.579,10.779,10.9483,11.0906,11.2099,0.0,0.0,11.4407,11.4791,11.5099,11.5099,11.4907,11.4599,11.4984,11.5099,11.5099,11.5099,11.5099,11.5099,11.5099,11.4791,11.4599,11.4599,11.4291,11.3984,11.3993,11.407,11.4113,11.4198,11.4198,11.4198,0.0,0.0,0.0,0.0,0.0,0.0,0.0,0.0,0.0,0.0,0.0,0.0,0.0,11.1809,0.0,11.1808,11.2385,11.3185,11.3993,11.4797,11.5676,11.6484,11.6484,11.6484,11.6484,11.6484,11.6484,11.6484,11.6484,11.6484,11.6484,11.6484,11.6484,11.6484,11.6484,11.6484,11.6484,11.6484,11.6484,11.6484,11.6484,11.6484,11.6484,11.6484,11.6484,11.6484,11.6484,11.6484,11.6484,0.0,0.0,0.0,0.0,0.0,0.0,0.0,10.1404,0.0,10.152,0.0,10.152,0.0,10.2289,10.2789,0.0,0.0,10.3905,0.0,10.3905,0.0,10.3905,10.3905,10.3905,10.3905,10.3905,0.0,0.0,0.0,0.0,10.3905,10.3982,10.4097,10.4097,10.4982,10.602,10.729,11.0214,11.1714,11.2099,11.3599,11.4714,11.5484,11.5484,11.5907,11.6484,11.6484,11.6099,11.5599,11.6292,11.6484,11.6484,11.6484,11.6484,11.6484,11.6484,11.5984,11.5484,11.5484,11.4907,11.4291,11.4291,11.4291,11.4335,11.4421,11.4382,11.4382,11.4382,11.4504,0.0,0.0,0.0,0.0,0.0,0.0,0.0,0.0,0.0,0.0,0.0,0.0,0.0,11.1809,11.2226,11.2983,11.3868,11.4676,11.5484,0.0,0.0,11.6484,11.6484,11.6484,11.6484,11.6484,11.6484,11.6484,11.6484,11.6484,11.6484,11.6484,11.6484,11.6484,11.6484,11.6484,11.6484,11.6484,11.6484,11.6484,11.6484,11.6484,11.6484,11.6484,11.6484,11.6484,11.6484,0.0,0.0,0.0,0.0,0.0,0.0,0.0,10.1789,10.1597,10.2289,10.2404,0.0,10.3405,10.3597,10.3712,10.3712,10.3789,0.0,0.0,0.0,0.0,10.3905,10.3905,10.3905,10.3905,10.3905,10.3905,0.0,0.0,0.0,10.3905,10.4597,10.4905,10.4982,10.6482,10.8521,11.0598,11.1214,0.0,11.4714,11.4984,11.5599,11.6292,11.6292,11.6407,11.6484,11.6484,11.6407,11.6292,11.6484,11.6484,11.6484,11.6484,11.6484,11.6484,11.6484,11.6407,11.6292,11.6292,11.6176,11.6099,11.6099,11.6099,11.6099,11.6105,11.6105,11.6105,11.6105,11.6105,11.6111,11.6192,0.0,0.0,0.0,0.0,0.0,0.0,0.0,0.0,0.0,0.0,0.0,0.0,11.1598,0.0,0.0,0.0,0.0,0.0,0.0,11.6484,0.0,11.6484,11.6484,0.0,0.0,11.6484,11.6484,11.6484,11.6484,11.6484,11.6484,11.6484,11.6484,11.6484,11.6484,11.6484,11.6484,11.6484,11.6484,11.6484,11.6484,11.6484,11.6484,11.6484,11.6484,0.0,0.0,0.0,0.0,0.0,0.0,0.0,10.2904,0.0,10.3212,10.3289,10.3405,10.3905,10.4289,10.4482,10.4482,10.4905,10.5213,0.0,10.5597,10.5905,10.5905,10.629,0.0,10.6482,0.0,10.6482,0.0,0.0,0.0,0.0,10.6905,10.7098,10.7098,10.8906,11.0406,11.1598,0.0,0.0,11.5291,11.5792,11.6176,11.6484,11.6984,11.7215,11.7215,11.7677,11.7792,11.7677,11.6792,11.6484,11.6484,11.6484,11.6484,11.6484,11.6484,11.6484,11.6484,11.6484,11.6484,11.6484,11.6484,11.6484,11.6484,11.6484,11.6484,11.6484,11.6484,11.6484,11.649,11.6697,11.6393,0.0,0.0,0.0,0.0,0.0,0.0,0.0,0.0,0.0,0.0,0.0,0.0,0.0,0.0,0.0,0.0,0.0,11.6484,11.6484,0.0,0.0,0.0,0.0,0.0,0.0,11.6484,11.6484,11.6484,11.6484,11.6484,11.6484,11.6484,11.6484,11.6484,11.6484,11.6484,11.6484,11.6484,11.6484,11.6484,11.6484,11.6484,11.6484,11.6484,0.0,10.2904,0.0,0.0,10.3905,0.0,0.0,10.4405,10.4405,10.4212,10.4212,10.4289,10.4713,10.529,10.5713,10.5905,10.6521,10.6905,10.6905,10.7598,10.7982,10.7982,10.8598,10.8906,10.8906,10.8906,0.0,0.0,0.0,0.0,0.0,10.879,10.9098,10.9483,0.0,0.0,0.0,0.0,11.5407,11.5599,11.6407,11.6792,11.6907,11.7715,11.81,11.8215,11.8908,11.91,11.8908,11.7484,11.71,11.71,11.71,11.71,11.71,11.71,11.71,11.6984,11.6792,11.6792,11.6676,11.6484,11.6484,11.6484,11.6484,11.6484,11.6484,11.6484,11.6484,11.6529,11.6616,11.6693,0.0,0.0,0.0,0.0,0.0,0.0,0.0,0.0,0.0,0.0,0.0,0.0,0.0,0.0,0.0,0.0,11.6407,0.0,0.0,0.0,0.0,11.6484,11.6484,0.0,11.6484,11.6484,11.6484,11.6484,11.6484,11.6484,11.6484,11.6484,11.6484,11.6484,11.6484,11.6484,11.6484,11.6484,11.6484,11.6484,11.6484,11.6484,11.6484,11.6484,0.0,0.0,0.0,0.0,0.0,0.0,0.0,10.6213,10.5905,10.5097,10.4982,10.5597,10.7213,10.7405,10.779,10.8482,10.8598,10.8713,10.8713,10.8713,10.879,10.879,10.8906,10.8906,10.8906,10.8906,10.8906,0.0,0.0,0.0,0.0,0.0,0.0,0.0,0.0,0.0,0.0,11.5176,11.5676,11.6484,11.7292,11.7715,11.7792,11.86,11.8985,11.8985,11.91,11.91,11.91,11.8908,11.8908,11.8908,11.8908,11.8908,11.8908,11.8908,11.8908,11.8715,11.7907,11.7715,11.7484,11.6676,11.6484,11.6484,11.6484,11.6484,11.6484,11.6484,11.6484,11.6484,11.6484,11.6529,11.6529,0.0,0.0,0.0,0.0,0.0,0.0,0.0,0.0,0.0,0.0,11.3791,0.0,0.0,11.4407,0.0,0.0,0.0,0.0,11.6484,0.0,11.6484,11.6484,11.6484,11.6484,11.6484,11.6484,11.6484,11.6484,11.6484,11.6484,11.6484,11.6484,11.6484,11.6484,11.6484,11.6484,11.6484,11.6484,11.6484,11.6484,11.6484,11.6484,11.6484,0.0,0.0,0.0,0.0,0.0,0.0,0.0,10.8713,10.8713,10.8906,10.7982,10.779,10.9098,10.9213,10.9483,11.0406,11.0521,11.0521,11.0521,11.0906,11.1214,11.1214,11.1714,11.1983,11.1983,11.1983,11.1983,0.0,0.0,0.0,0.0,0.0,0.0,0.0,0.0,11.4599,11.5407,11.6407,11.6984,11.7407,11.8215,11.86,11.8715,11.9485,11.9792,11.9908,12.0408,12.06,12.06,12.06,11.9908,11.91,11.91,11.91,11.91,11.91,11.91,11.8985,11.8715,11.86,11.8484,11.81,11.81,11.7907,11.7407,11.7292,11.71,11.6599,11.6484,11.6484,11.6484,11.6484,11.6484,0.0,0.0,0.0,0.0,0.0,0.0,0.0,0.0,0.0,0.0,0.0,0.0,0.0,0.0,0.0,0.0,0.0,0.0,11.6484,0.0,11.6484,11.6484,11.6484,11.6484,11.6484,11.6484,11.6484,11.6484,11.6484,11.6484,11.6484,11.6484,11.6484,11.6484,11.6484,11.6484,11.6484,11.6484,11.6484,11.6484,11.6484,11.6484,11.6484,10.7213,0.0,10.7982,0.0,10.9713,10.9983,11.0791,11.0906,11.1214,11.2099,11.1214,11.0483,11.0906,11.0906,11.1291,11.2214,11.2214,11.2214,11.2214,11.2791,11.3099,11.3099,11.3714,0.0,11.3984,11.3984,11.3984,11.3984,11.3984,0.0,0.0,0.0,0.0,0.0,11.5291,11.5792,11.6099,11.7292,11.7907,11.8292,11.91,11.9485,11.9485,12.0408,12.0677,12.0793,12.1408,12.1408,12.1177,12.1177,12.0292,11.9215,11.9715,11.9792,11.9792,11.9485,11.9485,11.9292,11.8908,11.8715,11.8715,11.8407,11.8292,11.8215,11.76,11.7407,11.7215,11.6599,11.6484,11.6484,11.6484,11.6484,11.6484,11.6484,0.0,0.0,0.0,0.0,0.0,0.0,0.0,11.5676,11.5676,11.5099,0.0,0.0,0.0,0.0,0.0,0.0,0.0,0.0,0.0,0.0,0.0,11.6484,11.6484,11.6484,11.6484,11.6484,11.6484,11.6484,11.6484,11.6484,11.6484,11.6484,11.6484,11.6484,11.6484,11.6484,11.6484,11.6484,11.6484,11.6484,11.6484,11.6484,10.9983,11.0175,11.0406,11.1291,11.1522,11.1714,11.2522,11.2714,11.2983,11.3907,11.3984,11.3599,11.2791,11.2714,11.3022,11.3907,11.3984,11.3984,11.3984,11.3984,11.3984,0.0,0.0,11.3984,11.3984,11.3984,11.3984,11.3984,0.0,0.0,11.2714,0.0,11.4484,11.5291,11.6099,11.6984,11.7792,11.7792,11.8292,11.9215,11.9985,12.0292,12.0408,12.1293,12.16,12.16,12.16,12.0985,12.0292,12.0292,11.9792,11.9408,12.0985,12.16,12.1408,12.0485,12.0292,11.9908,11.8292,11.7792,11.76,11.6715,11.6484,11.6484,11.6484,11.6484,11.6484,11.6484,11.6484,11.6484,11.6484,11.6484,11.6484,11.6484,0.0,0.0,0.0,0.0,0.0,0.0,11.6484,11.6484,11.6484,11.6484,0.0,0.0,0.0,0.0,0.0,0.0,0.0,11.6484,11.6484,0.0,11.6484,11.6484,11.6484,11.6484,11.6484,11.6484,11.6484,11.6484,11.6484,11.6484,11.6484,11.6484,11.6484,11.6484,11.6484,11.6484,11.6484,11.6484,11.6484,11.6484,11.6484,11.6484,11.1714,11.1906,11.2214,11.3099,11.3214,11.3483,11.4291,11.4484,11.4984,11.6407,11.6599,11.6715,11.6984,11.5484,11.4791,0.0,11.5676,11.5676,0.0,11.5676,11.5676,11.5676,11.5676,11.5676,11.5676,11.5676,11.5676,11.5676,0.0,0.0,0.0,11.5599,11.6215,11.6984,11.7292,11.7907,11.8715,11.9292,11.9715,11.9985,12.0793,12.1177,12.1177,12.0793,12.0677,12.06,12.01,11.9715,11.9485,11.9485,11.9292,11.9215,11.9715,11.9908,11.9792,11.96,11.9485,11.9408,11.8792,11.8715,11.86,11.8292,11.8292,11.81,11.7484,11.6907,11.6484,11.6484,11.6484,11.6484,11.6484,11.6484,11.6484,11.6484,0.0,0.0,0.0,0.0,0.0,0.0,11.6484,11.6484,0.0,11.6484,0.0,0.0,0.0,0.0,0.0,0.0,0.0,0.0,11.6484,0.0,11.6484,11.6484,11.6484,11.6484,11.6484,11.6484,11.6484,11.6484,11.6484,11.6484,11.6484,11.6484,11.6484,11.6484,11.6484,11.6484,11.6484,11.6484,11.6484,11.6484,11.6484,11.6484,11.3483,11.3714,11.4022,11.5215,11.5407,11.5715,11.6599,11.6715,11.71,11.8215,11.8292,11.8484,11.8985,11.7715,0.0,11.7407,11.7484,11.7484,11.7484,11.7484,11.7484,11.7484,11.7484,11.7484,11.7484,0.0,0.0,11.7484,11.7484,11.7484,11.7484,11.7484,11.7792,11.8292,11.8292,11.8792,11.96,12.01,12.0485,12.0793,12.0985,12.11,12.0985,12.0216,11.9792,11.9792,11.9292,11.8908,11.86,11.86,11.8407,11.81,11.81,11.81,11.8215,11.8484,11.86,11.8484,11.8215,11.81,11.81,11.81,11.81,11.7984,11.7407,11.6907,11.6484,11.6484,11.6484,11.6484,11.6484,11.6484,11.6484,11.6484,11.6484,11.6484,0.0,0.0,0.0,0.0,0.0,0.0,0.0,11.6484,0.0,0.0,0.0,0.0,0.0,0.0,0.0,11.6484,11.6484,0.0,11.6484,11.6484,11.6484,11.6484,11.6484,11.6484,11.6484,11.6484,11.6484,11.6484,11.6484,11.6484,11.6484,11.6484,11.6484,11.6484,11.6484,11.6484,11.6484,11.6484,11.6484,11.6484,11.5407,11.5599,0.0,0.0,11.7907,0.0,11.8985,11.91,11.91,11.9215,11.9215,11.9215,11.9292,11.9292,11.9292,11.9292,0.0,0.0,0.0,11.91,11.91,11.91,11.91,11.91,11.91,11.91,11.91,11.91,11.91,11.91,11.91,11.91,11.91,11.9215,11.9215,11.96,12.0292,12.0292,12.0716,12.1408,12.0485,12.0216,12.01,11.9292,11.8985,11.8985,11.8908,11.8407,11.7715,11.7715,11.7215,11.6484,11.6484,11.6484,11.6676,11.7484,11.7715,11.7484,11.6676,11.6484,11.6484,11.6484,11.6484,11.6484,11.6484,11.6484,11.6484,11.6484,11.6484,11.6484,11.6484,11.6484,11.6484,11.6484,11.6484,11.6484,11.6484,0.0,0.0,0.0,0.0,0.0,0.0,11.6484,11.6484,0.0,0.0,0.0,0.0,0.0,11.6484,11.6484,11.6484,11.6484,11.6484,11.6484,11.6484,11.6484,11.6484,11.6484,11.6484,11.6484,11.6484,11.6484,11.6484,11.6484,11.6484,11.6484,11.6484,11.6484,11.6484,11.6484,11.6484,11.6484,11.6484,11.6484,0.0,0.0,11.8292,11.8715,11.8792,11.8908,11.91,11.91,11.9292,11.9908,11.9985,12.0292,12.0908,12.0985,12.0985,12.0985,11.9792,11.91,11.91,11.91,11.91,11.91,11.91,11.91,11.91,11.91,11.91,11.91,11.91,11.91,11.91,11.91,11.9408,11.9985,11.9985,12.01,12.0292,12.0292,12.01,11.9715,11.9485,11.9408,11.9292,11.8407,11.81,11.8023,11.7407,11.6984,11.6792,11.6792,11.6676,11.6484,11.6484,11.6484,11.6484,11.6715,11.6792,11.6792,11.6599,11.6484,11.6484,11.6484,11.6484,11.6484,11.6484,11.6484,11.6484,11.6484,11.6484,11.6484,11.6484,11.6484,11.6484,11.6484,11.6484,11.6484,11.6484,11.6484,0.0,0.0,11.6484,11.6484,11.6484,11.6484,11.6484,0.0,0.0,0.0,0.0,11.6484,11.6484,11.6484,11.6484,11.6484,11.6484,11.6484,11.6484,11.6484,11.6484,11.6484,11.6484,11.6484,11.6484,11.6484,11.6484,11.6484,11.6484,11.6484,11.6484,11.6484,11.6484,11.6484,11.6484,11.6484,11.6484,11.6484,11.91,11.91,11.9215,11.96,11.96,11.9792,12.0177,12.0216,12.0408,12.0793,12.0908,12.11,12.1485,12.16,12.16,12.16,12.0793,12.0216,12.0216,12.0216,12.0216,12.0216,12.0216,12.0216,12.0216,12.0216,12.0216,12.0216,12.0216,12.0216,12.0216,12.0216,12.0292,12.0292,12.0292,12.01,11.9792,11.9792,11.9485,11.91,11.8715,11.8484,11.8407,11.7484,11.7215,11.71,11.6676,11.6484,11.6484,11.6484,11.6484,11.6484,11.6484,11.6484,11.6484,11.6484,11.6484,11.6484,11.6484,11.6484,11.6484,11.6484,11.6484,11.6484,11.6484,11.6484,11.6484,11.6484,11.6484,11.6484,11.6484,11.6484,11.6484,11.6484,11.6484,11.6484,11.6484,11.6484,0.0,11.6484,11.6484,11.6484,11.6484,11.6484,11.6484,11.6484,0.0,0.0,11.6484,11.6484,11.6484,11.6484,11.6484,11.6484,11.6484,11.6484,11.6484,11.6484,11.6484,11.6484,11.6484,11.6484,11.6484,11.6484,11.6484,11.6484,11.6484,11.6484,11.6484,11.6484,11.6484,11.6484,11.6484,11.6484,11.6484,11.6484,11.9485,11.9485,11.9715,12.0408,12.0485,12.0716,12.1485,12.16,12.16,12.16,12.16,12.16,12.16,12.1485,12.1408,12.1408,12.1293,12.1293,12.16,12.16,12.1485,12.1408,12.1408,12.1293,12.1177,12.1177,12.1177,12.1177,12.1177,12.1177,12.1177,12.1177,12.0793,12.01,12.01,11.9715,11.8908,11.8908,11.8792,11.86,11.7907,11.76,11.7484,11.6792,11.6484,11.6484,11.6484,11.6484,11.6484,11.6484,11.6484,11.6484,11.6484,11.6484,11.6484,11.6484,11.6484,11.6484,11.6484,11.6484,11.6484,11.6484,11.6484,11.6484,11.6484,11.6484,11.6484,11.6484,11.6484,11.6484,11.6484,11.6484,11.6484,11.6484,11.6484,11.6484,11.6484,0.0,11.6484,11.6484,11.6484,11.6484,11.6484,11.6484,11.6484,11.6484,11.6484,11.6484,11.6484,11.6484,11.6484,11.6484,11.6484,11.6484,11.6484,11.6484,11.6484,11.6484,11.6484,11.6484,11.6484,11.6484,11.6484,11.6484,11.6484,11.6484,11.6484,11.6484,11.6484,11.6484,11.6484,11.6484,11.6484,11.6484,11.6484,11.6484,12.1177,12.1177,12.1293,12.1408,12.1408,12.1408,12.16,12.16,12.16,12.16,12.16,12.16,12.16,12.0908,12.0485,12.0485,11.9908,12.01,12.1485,12.16,12.1293,12.0485,12.0485,12.0216,11.9485,11.9485,11.9485,11.9485,11.9485,11.9485,11.9485,11.9485,11.9408,11.9292,11.9292,11.8792,11.8023,11.8023,11.76,11.6907,11.6792,11.6676,11.6676,11.6599,11.6484,11.6484,11.6484,11.6484,11.6484,11.6484,11.6484,11.6484,11.6484,11.6484,11.6484,11.6484,11.6484,11.6484,11.6484,11.6484,11.6484,11.6484,11.6484,11.6484,11.6484,11.6484,11.6484,11.6484,11.6484,11.6484,11.6484,11.6484,11.6484,11.6484,11.6484,11.6484,11.6484,0.0,11.6484,11.6484,11.6484,11.6484,11.6484,11.6484,11.6484,11.6484,11.6484,11.6484,11.6484,11.6484,11.6484,11.6484,11.6484,11.6484,11.6484,11.6484,11.6484,11.6484,11.6484,11.6484,11.6484,11.6484,11.6484,11.6484,11.6484,11.6484,11.6484,11.6484,11.6484,11.6484,11.6484,11.6484,11.6484,11.6484,11.6484,11.6484,12.16,12.16,12.16,12.16,12.16,12.16,12.16,12.16,12.16,12.16,12.1177,12.0908,12.0908,12.0177,11.9715,11.9715,11.9292,11.9408,12.0216,12.0292,12.01,11.9715,11.9715,11.9485,11.91,11.91,11.91,11.91,11.91,11.91,11.91,11.91,11.8792,11.8407,11.8407,11.7907,11.71,11.71,11.6907,11.6484,11.6484,11.6484,11.6484,11.6484,11.6484,11.6484,11.6484,11.6484,11.6484,11.6484,11.6484,11.6484,11.6484,11.6484,11.6484,11.6484,11.6484,11.6484,11.6484,11.6484,11.6484,11.6484,11.6484,11.6484,11.6484,11.6484,11.6484,11.6484,11.6484,11.6484,11.6484,11.6484,11.6484,11.6484,11.6484,0.0,0.0,11.6484,11.6484,11.6484,11.6484,11.6484,11.6484,11.6484,11.6484,11.6484,11.6484,11.6484,11.6484,11.6484,11.6484,11.6484,11.6484,11.6484,11.6484,11.6484,11.6484,11.6484,11.6484,11.6484,11.6484,11.6484,11.6484,11.6484,11.6484,11.6484,11.6484,11.6484,11.6484,11.6484,11.6484,11.6484,11.6484,11.6484,11.6484,11.6484,12.16,12.16,12.16,12.16,12.16,12.1485,12.1293,12.1293,12.1177,12.0985,12.0408,11.9985,11.9985,11.9292,11.8792,11.8792,11.86,11.8484,11.8484,11.8484,11.86,11.8792,11.86,11.8484,11.8484,11.8484,11.8484,11.8484,11.8484,11.8484,11.8484,11.8484,11.81,11.7484,11.7484,11.71,11.6484,11.6484,11.6484,11.6484,11.6484,11.6484,11.6484,11.6484,11.6484,11.6484,11.6484,11.6484,11.6484,11.6484,11.6484,11.6484,11.6484,11.6484,11.6484,11.6484,11.6484,11.6484,11.6484,11.6484,11.6484,11.6484,11.6484,11.6484,11.6484,11.6484,11.6484,11.6484,11.6484,11.6484,11.6484,11.6484,11.6484,11.6484,0.0,0.0,0.0,11.6484,11.6484,11.6484,11.6484,11.6484,11.6484,11.6484,11.6484,11.6484,11.6484,11.6484,11.6484,11.6484,11.6484,11.6484,11.6484,11.6484,11.6484,11.6484,11.6484,11.6484,11.6484,11.6484,11.6484,11.6484,11.6484,11.6484,11.6484,11.6484,11.6484,11.6484,11.6484,11.6484,11.6484,11.6484,11.6484,11.6484,11.6484,11.6484,12.16,12.16,12.16,12.16,12.16,12.1293,12.0485,12.0408,12.01,11.9408,11.9215,11.9215,11.9215,11.8407,11.7907,11.7907,11.7176,11.6676,11.6676,11.6676,11.71,11.7907,11.71,11.6676,11.6676,11.6676,11.6676,11.6676,11.6676,11.6676,11.6676,11.6676,11.6676,11.6599,11.6599,11.6599,11.6484,11.6484,11.6484,11.6484,11.6484,11.6484,11.6484,11.6484,11.6484,11.6484,11.6484,11.6484,11.6484,11.6484,11.6484,11.6484,11.6484,11.6484,11.6484,11.6484,11.6484,11.6484,11.6484,11.6484,11.6484,11.6484,11.6484,11.6484,11.6484,11.6484,11.6484,11.6484,11.6484,11.6484,11.6484,11.6484,11.6484,11.6484,0.0,0.0,11.6484,11.6484,11.6484,11.6484,11.6484,11.6484,11.6484,11.6484,11.6484,11.6484,11.6484,11.6484,11.6484,11.6484,11.6484,11.6484,11.6484,11.6484,11.6484,11.6484,11.6484,11.6484,11.6484,11.6484,11.6484,11.6484,11.6484,11.6484,11.6484,11.6484,11.6484,11.6484,11.6484,11.6484,11.6484,11.6484,11.6484,11.6484,11.6484,11.6484,12.16,12.1177,12.0793,12.0793,12.0408,11.9908,11.96,11.96,11.9408,11.91,11.86,11.8292,11.8292,11.7484,11.6984,11.6984,11.6676,11.6484,11.6484,11.6484,11.6599,11.6984,11.6676,11.6484,11.6484,11.6484,11.6484,11.6484,11.6484,11.6484,11.6484,11.6484,11.6484,11.6484,11.6484,11.6484,11.6484,11.6484,11.6484,11.6484,11.6484,11.6484,11.6484,11.6484,11.6484,11.6484,11.6484,11.6484,11.6484,11.6484,11.6484,11.6484,11.6484,11.6484,11.6484,11.6484,11.6484,11.6484,11.6484,11.6484,11.6484,11.6484,11.6484,11.6484,11.6484,11.6484,11.6484,11.6484,11.6484,11.6484,11.6484,11.6484,11.6484,11.6484,0.0,11.6484,11.6484,11.6484,11.6484,11.6484,11.6484,11.6484,11.6484,11.6484,11.6484,11.6484,11.6484,11.6484,11.6484,11.6484,11.6484,11.6484,11.6484,11.6484,11.6484,11.6484,11.6484,11.6484,11.6484,11.6484,11.6484,11.6484,11.6484,11.6484,11.6484,11.6484,11.6484,11.6484,11.6484,11.6484,11.6484,11.6484,11.6484,11.6484,11.6484,11.6484,12.0793,12.0292,11.9908,11.9908,11.9485,11.8985,11.8715,11.8715,11.86,11.8292,11.7792,11.7407,11.7407,11.6907,11.6484,11.6484,11.6484,11.6484,11.6484,11.6484,11.6484,11.6484,11.6484,11.6484,11.6484,11.6484,11.6484,11.6484,11.6484,11.6484,11.6484,11.6484,11.6484,11.6484,11.6484,11.6484,11.6484,11.6484,11.6484,11.6484,11.6484,11.6484,11.6484,11.6484,11.6484,11.6484,11.6484,11.6484,11.6484,11.6484,11.6484,11.6484,11.6484,11.6484,11.6484,11.6484,11.6484,11.6484,11.6484,11.6484,11.6484,11.6484,11.6484,11.6484,11.6484,11.6484,11.6484,11.6484,11.6484,11.6484,11.6484,11.6484,11.6484,11.6484,11.6484,11.6484,11.6484,11.6484,11.6484,11.6484,11.6484,11.6484,11.6484,11.6484,11.6484,11.6484,11.6484,11.6484,11.6484,11.6484,11.6484,11.6484,11.6484,11.6484,11.6484,11.6484,11.6484,11.6484,11.6484,11.6484,11.6484,11.6484,11.6484,11.6484,11.6484,11.6484,11.6484,11.6484,11.6484,11.6484,11.6484,11.6484,11.6484,11.6484,11.6484,11.6484,11.91,11.91,11.91,11.91,11.91,11.8792,11.7907,11.7792,11.7484,11.6599,11.6484,11.6484,11.6484,11.6484,11.6484,11.6484,11.6484,11.6484,11.6484,11.6484,11.6484,11.6484,11.6484,11.6484,11.6484,11.6484,11.6484,11.6484,11.6484,11.6484,11.6484,11.6484,11.6484,11.6484,11.6484,11.6484,11.6484,11.6484,11.6484,11.6484,11.6484,11.6484,11.6484,11.6484,11.6484,11.6484,11.6484,11.6484,11.6484,11.6484,11.6484,11.6484,11.6484,11.6484,11.6484,11.6484,11.6484,11.6484,11.6484,11.6484,11.6484,11.6484,11.6484,11.6484,11.6484,11.6484,11.6484,11.6484,11.6484,11.6484,11.6484,11.6484,11.6484,11.6484,11.6484,11.6484,11.6484,11.6484,11.6484,11.6484,11.6484,11.6484,11.6484,11.6484,11.6484,11.6484,11.6484,11.6484,11.6484,11.6484,11.6484,11.6484,11.6484,11.6484,11.6484,11.6484,11.6484,11.6484,11.6484,11.6484,11.6484,11.6484,11.6484,11.6484,11.6484,11.6484,11.6484,11.6484,11.6484,11.6484,11.6484,11.6484,11.6484,11.6484,11.6484,11.6484,11.91,11.86,11.8215,11.8215,11.7715,11.7176,11.6907,11.6907,11.6792,11.6484,11.6484,11.6484,11.6484,11.6484,11.6484,11.6484,11.6484,11.6484,11.6484,11.6484,11.6484,11.6484,11.6484,11.6484,11.6484,11.6484,11.6484,11.6484,11.6484,11.6484,11.6484,11.6484,11.6484,11.6484,11.6484,11.6484,11.6484,11.6484,11.6484,11.6484,11.6484,11.6484,11.6484,11.6484,11.6484,11.6484,11.6484,11.6484,11.6484,11.6484,11.6484,11.6484,11.6484,11.6484,11.6484,11.6484,11.6484,11.6484,11.6484,11.6484,11.6484,11.6484,11.6484,11.6484,11.6484,11.6484,11.6484,11.6484,11.6484,11.6484,11.6484,11.6484,11.6484,11.6484,11.6484,11.6484,11.6484,11.6484,11.6484,11.6484,11.6484,11.6484,11.6484,11.6484,11.6484,11.6484,11.6484,11.6484,11.6484,11.6484,11.6484,11.6484,11.6484,11.6484,11.6484,11.6484,11.6484,11.6484,11.6484,11.6484,11.6484,11.6484,11.6484,11.6484,11.6484,11.6484,11.6484,11.6484,11.6484,11.6484,11.6484,11.6484,11.6484,11.6484,11.6484,11.6484,11.81,11.76,11.7292,11.7292,11.6907,11.6484,11.6484,11.6484,11.6484,11.6484,11.6484,11.6484,11.6484,11.6484,11.6484,11.6484,11.6484,11.6484,11.6484,11.6484,11.6484,11.6484,11.6484,11.6484,11.6484,11.6484,11.6484,11.6484,11.6484,11.6484,11.6484,11.6484,11.6484,11.6484,11.6484,11.6484,11.6484,11.6484,11.6484,11.6484,11.6484,11.6484,11.6484,11.6484,11.6484,11.6484,11.6484,11.6484,11.6484,11.6484,11.6484,11.6484,11.6484,11.6484,11.6484,11.6484,11.6484,11.6484,11.6484,11.6484,11.6484,11.6484,11.6484,11.6484,11.6484,11.6484,11.6484,11.6484,11.6484,11.6484,11.6484,11.6484,11.6484,11.6484,11.6484,11.6484,11.6484,11.6484,11.6484,11.6484,11.6484,11.6484,11.6484,11.6484,11.6484,11.6484,11.6484,11.6484,11.6484,11.6484,11.6484,11.6484,11.6484,11.6484,11.6484,11.6484,11.6484,11.6484,11.6484,11.6484,11.6484,11.6484,11.6484,11.6484,11.6484,11.6484,11.6484,11.6484,11.6484,11.6484,11.6484,11.6484,11.6484,11.6484,11.6484,11.6484,11.6484,11.6484,11.6484,11.6484,11.6484,11.6484,11.6484,11.6484,11.6484,11.6484,11.6484,11.6484,11.6484,11.6484,11.6484,11.6484,11.6484,11.6484,11.6484,11.6484,11.6484,11.6484,11.6484,11.6484,11.6484,11.6484,11.6484,11.6484,11.6484,11.6484,11.6484,11.6484,11.6484,11.6484,11.6484,11.6484,11.6484,11.6484,11.6484,11.6484,11.6484,11.6484,11.6484,11.6484,11.6484,11.6484,11.6484,11.6484,11.6484,11.6484,11.6484,11.6484,11.6484,11.6484,11.6484,11.6484,11.6484,11.6484,11.6484,11.6484,11.6484,11.6484,11.6484,11.6484,11.6484,11.6484,11.6484,11.6484,11.6484,11.6484,11.6484,11.6484,11.6484,11.6484,11.6484,11.6484,11.6484,11.6484,11.6484,11.6484,11.6484,11.6484,11.6484,11.6484,11.6484,11.6484,11.6484,11.6484,11.6484,11.6484,11.6484,11.6484,11.6484,11.6484,11.6484,11.6484,11.6484,11.6484,11.6484,11.6484,11.6484,11.6484,11.6484,11.6484,11.6484,11.6484,11.6484,11.6484,11.6484,11.6484,11.6484,11.6484,11.6484,11.6484,11.6484,11.6484,11.6484,11.6484,11.6484,11.6484,11.6484,11.6484,11.6484,11.6484,11.6484,11.6484,11.6484,11.6484,11.6484,11.6484,11.6484,11.6484,11.6484,11.6484,11.6484,11.6484,11.6484,11.6484,11.6484,11.6484,11.6484,11.6484,11.6484,11.6484,11.6484,11.6484,11.6484,11.6484,11.6484,11.6484,11.6484,11.6484,11.6484,11.6484,11.6484,11.6484,11.6484,11.6484,11.6484,11.6484,11.6484,11.6484,11.6484,11.6484,11.6484,11.6484,11.6484,11.6484,11.6484,11.6484,11.6484,11.6484,11.6484,11.6484,11.6484,11.6484,11.6484,11.6484,11.6484,11.6484,11.6484,11.6484,11.6484,11.6484,11.6484,11.6484,11.6484,11.6484,11.6484,11.6484,11.6484,11.6484,11.6484,11.6484,11.6484,11.6484,11.6484,11.6484,11.6484,11.6484,11.6484,11.6484,11.6484,11.6484,11.6484,11.6484,11.6484,11.6484,11.6484,11.6484,11.6484,11.6484,11.6484,11.6484,11.6484,11.6484,11.6484,11.6484,11.6484,11.6484,11.6484,11.6484,11.6484,11.6484,11.6484,11.6484,11.6484,11.6484,11.6484,11.6484,11.6484,11.6484,11.6484,11.6484,11.6484,11.6484,11.6484,11.6484,11.6484,11.6484,11.6484,11.6484,11.6484,11.6484,11.6484,11.6484,11.6484,11.6484,11.6484,11.6484,11.6484,11.6484,11.6484,11.6484,11.6484,11.6484,11.6484,11.6484,11.6484,11.6484,11.6484,11.6484,11.6484,11.6484,11.6484,11.6484,11.6484,11.6484,11.6484,11.6484,11.6484,11.6484,11.6484,11.6484,11.6484,11.6484,11.6484,11.6484,11.6484,11.6484,11.6484,11.6484,11.6484,11.6484,11.6484,11.6484,11.6484,11.6484,11.6484,11.6484,11.6484,11.6484,11.6484,11.6484,11.6484,11.6484,11.6484,11.6484,11.6484,11.6484,11.6484,11.6484,11.6484,11.6484,11.6484,11.6484,11.6484,11.6484,11.6484,11.6484,11.6484,11.6484,11.6484,11.6484,11.6484,11.6484,11.6484,11.6484,11.6484,11.6484,11.6484,11.6484,11.6484,11.6484,11.6484,11.6484,11.6484,11.6484,11.6484,11.6484,11.6484,11.6484,11.6484,11.6484,11.6484,11.6484,11.6484,11.6484,11.6484,11.6484,11.6484,11.6484,11.6484,11.6484,11.6484,11.6484,11.6484,11.6484,11.6484,11.6484,11.6484,11.6484,11.6484,11.6484,11.6484,11.6484,11.6484,11.6484,11.6484,11.6484,11.6484,11.6484,11.6484,11.6484,11.6484,11.6484,11.6484,11.6484,11.6484,11.6484,11.6484,11.6484,11.6484,11.6484,11.6484,11.6484,11.6484,11.6484,11.6484,11.6484,11.6484,11.6484,11.6484,11.6484,11.6484,11.6484,11.6484,11.6484,11.6484,11.6484,11.6484,11.6484,11.6484,11.6484,11.6484,11.6484,11.6484,11.6484,11.6484,11.6484,11.6484,11.6484,11.6484,11.6484,11.6484,11.6484,11.6484,11.6484,11.6484,11.6484,11.6484,11.6484,11.6484,11.6484,11.6484,11.6484,11.6484,11.6484,11.6484,11.6484,11.6484,11.6484,11.6484,11.6484,11.6484,11.6484,11.6484,11.6484,11.6484,11.6484,11.6484,11.6484,11.6484,11.6484,11.6484,11.6484,11.6484,11.6484,11.6484,11.6484,11.6484,11.6484,11.6484,11.6484,11.6484,11.6484,11.6484,11.6484,11.6484,11.6484,11.6484,11.6484,11.6484,11.6484,11.6484,11.6484,11.6484,11.6484,11.6484,11.6484,11.6484,11.6484,11.6484,11.6484,11.6484,11.6484,11.6484,11.6484,11.6484,11.6484,11.6484,11.6484,11.6484,11.6484,11.6484,11.6484,11.6484,11.6484,11.6484,11.6484,11.6484,11.6484,11.6484,11.6484,11.6484,11.6484,11.6484,11.6484,11.6484,11.6484,11.6484,11.6484,11.6484,11.6484,11.6484,11.6484,11.6484,11.6484,11.6484,11.6484,11.6484,11.6484,11.6484,11.6484,11.6484,11.6484,11.6484,11.6484,11.6484,11.6484,11.6484,11.6484,11.6484,11.6484,11.6484,11.6484,11.6484,11.6484,11.6484,11.6484,11.6484,11.6484,11.6484,11.6484,11.6484,11.6484,11.6484,11.6484,11.6484,11.6484,11.6484,11.6484,11.6484,11.6484,11.6484,11.6484,11.6484,11.6484,11.6484,11.6484,11.6484,11.6484,11.6484,11.6484,11.6484,11.6484,11.6484,11.6484,11.6484,11.6484,11.6484,11.6484,11.6484,11.6484,11.6484,11.6484,11.6484,11.6484,11.6484,11.6484,11.6484,11.6484,11.6484,11.6484,11.6484,11.6484,11.6484,11.6484,11.6484,11.6484,11.6484,11.6484,11.6484,11.6484,11.6484,11.6484,11.6484,11.6484,11.6484,11.6484,11.6484,11.6484,11.6484,11.6484,11.6484,11.6484,11.6484,11.6484,11.6484,11.6484,11.6484,11.6484,11.6484,11.6484,11.6484,11.6484,11.6484,11.6484,11.6484,11.6484,11.6484,11.6484,11.6484,11.6484,11.6484,11.6484,11.6484,11.6484,11.6484,11.6484,11.6484,11.6484,11.6484,11.6484,11.6484,11.6484,11.6484,11.6484,11.6484,11.6484,11.6484,11.6484,11.6484,11.6484,11.6484,11.6484,11.6484,11.6484,11.6484,11.6484,11.6484,11.6484,11.6484,11.6484,11.6484,11.6484,11.6484,11.6484,11.6484,11.6484,11.6484,11.6484,11.6484,11.6484,11.6484,11.6484,11.6484,11.6484,11.6484,11.6484,11.6484,11.6484,11.6484,11.6484,11.6484,11.6484,11.6484,11.6484,11.6484,11.6484,11.6484,11.6484,11.6484,11.6484,11.6484,11.6484,11.6484,11.6484,11.6484,11.6484,11.6484,11.6484,11.6484,11.6484,11.6484,11.6484,11.6484,11.6484,11.6484,11.6484,11.6484,11.6484,11.6484,11.6484,11.6484,11.6484,11.6484,11.6484,11.6484,11.6484,11.6484,11.6484,11.6484,11.6484,11.6484,11.6484]},{"header":{"parameterUnit":"m.s-1","parameterCategory":1,"la1":30.6,"la2":28.766,"lo1":-90.7593,"lo2":-88.6598,"dy":0.0162,"dx":0.0183,"nx":116,"ny":114,"refTime":"2023-03-14T06:00:00:Z","depth":0,"parameterNumber":3,"parameterNumberName":"V-component_of_WINDS"},"data":[0.0,0.0,0.0,0.0,0.0,0.0,0.0,0.0,0.0,0.0,0.0,0.0,0.0,0.0,0.0,0.0,0.0,0.0,0.0,0.0,0.0,0.0,0.0,0.0,0.0,0.0,0.0,0.0,0.0,0.0,0.0,0.0,0.0,0.0,0.0,0.0,0.0,0.0,0.0,0.0,0.0,0.0,0.0,0.0,0.0,0.0,0.0,0.0,0.0,0.0,0.0,0.0,0.0,0.0,0.0,0.0,0.0,0.0,0.0,0.0,0.0,0.0,0.0,0.0,0.0,0.0,0.0,0.0,0.0,0.0,0.0,0.0,0.0,0.0,0.0,0.0,0.0,0.0,0.0,0.0,0.0,0.0,0.0,0.0,0.0,0.0,0.0,0.0,0.0,0.0,0.0,0.0,0.0,0.0,0.0,0.0,0.0,0.0,0.0,0.0,0.0,0.0,0.0,0.0,0.0,0.0,0.0,0.0,0.0,0.0,0.0,0.0,0.0,0.0,0.0,0.0,0.0,0.0,0.0,0.0,0.0,0.0,0.0,0.0,0.0,0.0,0.0,0.0,0.0,0.0,0.0,0.0,0.0,0.0,0.0,0.0,0.0,0.0,0.0,0.0,0.0,0.0,0.0,0.0,0.0,0.0,0.0,0.0,0.0,0.0,0.0,0.0,0.0,0.0,0.0,0.0,0.0,0.0,0.0,0.0,0.0,0.0,0.0,0.0,0.0,0.0,0.0,0.0,0.0,0.0,0.0,0.0,0.0,0.0,0.0,0.0,0.0,0.0,0.0,0.0,0.0,0.0,0.0,0.0,0.0,0.0,0.0,0.0,0.0,0.0,0.0,0.0,0.0,0.0,0.0,0.0,0.0,0.0,0.0,0.0,0.0,0.0,0.0,0.0,0.0,0.0,0.0,0.0,0.0,0.0,0.0,0.0,0.0,0.0,0.0,0.0,0.0,0.0,0.0,0.0,0.0,0.0,0.0,0.0,0.0,0.0,0.0,0.0,0.0,0.0,0.0,0.0,0.0,0.0,0.0,0.0,0.0,0.0,0.0,0.0,0.0,0.0,0.0,0.0,0.0,0.0,0.0,0.0,0.0,0.0,0.0,0.0,0.0,0.0,0.0,0.0,0.0,0.0,0.0,0.0,0.0,0.0,0.0,0.0,0.0,0.0,0.0,0.0,0.0,0.0,0.0,0.0,0.0,0.0,0.0,0.0,0.0,0.0,0.0,0.0,0.0,0.0,0.0,0.0,0.0,0.0,0.0,0.0,0.0,0.0,0.0,0.0,0.0,0.0,0.0,0.0,0.0,0.0,0.0,0.0,0.0,0.0,0.0,0.0,0.0,0.0,0.0,0.0,0.0,0.0,0.0,0.0,0.0,0.0,0.0,0.0,0.0,0.0,0.0,0.0,0.0,0.0,0.0,0.0,0.0,0.0,0.0,0.0,0.0,0.0,0.0,0.0,0.0,0.0,0.0,0.0,0.0,0.0,0.0,0.0,0.0,0.0,0.0,0.0,0.0,0.0,0.0,0.0,0.0,0.0,0.0,0.0,0.0,0.0,0.0,0.0,0.0,0.0,0.0,0.0,0.0,0.0,0.0,0.0,0.0,0.0,0.0,0.0,0.0,0.0,0.0,0.0,0.0,0.0,0.0,0.0,0.0,0.0,0.0,0.0,0.0,0.0,0.0,0.0,0.0,0.0,0.0,0.0,0.0,0.0,0.0,0.0,0.0,0.0,0.0,0.0,0.0,0.0,0.0,0.0,0.0,0.0,0.0,0.0,0.0,0.0,0.0,0.0,0.0,0.0,0.0,0.0,0.0,0.0,0.0,0.0,0.0,0.0,0.0,0.0,0.0,0.0,0.0,0.0,0.0,0.0,0.0,0.0,0.0,0.0,0.0,0.0,0.0,0.0,0.0,0.0,0.0,0.0,0.0,0.0,0.0,0.0,0.0,0.0,0.0,0.0,0.0,0.0,0.0,0.0,0.0,0.0,0.0,0.0,0.0,0.0,0.0,0.0,0.0,0.0,0.0,0.0,0.0,0.0,0.0,0.0,0.0,0.0,0.0,0.0,0.0,0.0,0.0,0.0,0.0,0.0,0.0,0.0,0.0,0.0,0.0,0.0,0.0,0.0,0.0,0.0,0.0,0.0,0.0,0.0,0.0,0.0,0.0,0.0,0.0,0.0,0.0,0.0,0.0,0.0,0.0,0.0,0.0,0.0,0.0,0.0,0.0,0.0,0.0,0.0,0.0,0.0,0.0,0.0,0.0,0.0,0.0,0.0,0.0,0.0,0.0,0.0,0.0,0.0,0.0,0.0,0.0,0.0,0.0,0.0,0.0,0.0,0.0,0.0,0.0,0.0,0.0,0.0,0.0,0.0,0.0,0.0,0.0,0.0,0.0,0.0,0.0,0.0,0.0,0.0,0.0,0.0,0.0,0.0,0.0,0.0,0.0,0.0,0.0,0.0,0.0,0.0,0.0,0.0,0.0,0.0,0.0,0.0,0.0,0.0,0.0,0.0,0.0,0.0,0.0,0.0,0.0,0.0,0.0,0.0,0.0,0.0,0.0,0.0,0.0,0.0,0.0,0.0,0.0,0.0,0.0,0.0,0.0,0.0,0.0,0.0,0.0,0.0,0.0,0.0,0.0,0.0,0.0,0.0,0.0,0.0,0.0,0.0,0.0,0.0,0.0,0.0,0.0,0.0,0.0,0.0,0.0,0.0,0.0,0.0,0.0,0.0,0.0,0.0,0.0,0.0,0.0,0.0,0.0,0.0,0.0,0.0,0.0,0.0,0.0,0.0,0.0,0.0,0.0,0.0,0.0,0.0,0.0,0.0,0.0,0.0,0.0,0.0,0.0,0.0,0.0,0.0,0.0,0.0,0.0,0.0,0.0,0.0,0.0,0.0,0.0,0.0,0.0,0.0,0.0,0.0,0.0,0.0,0.0,0.0,0.0,0.0,0.0,0.0,0.0,0.0,0.0,0.0,0.0,0.0,0.0,0.0,0.0,0.0,0.0,0.0,0.0,0.0,0.0,0.0,0.0,0.0,0.0,0.0,0.0,0.0,0.0,0.0,0.0,0.0,0.0,0.0,0.0,0.0,0.0,0.0,0.0,0.0,0.0,0.0,0.0,0.0,0.0,0.0,0.0,0.0,0.0,0.0,0.0,0.0,0.0,0.0,0.0,0.0,0.0,0.0,0.0,0.0,0.0,0.0,0.0,0.0,0.0,0.0,0.0,0.0,0.0,0.0,0.0,0.0,0.0,0.0,0.0,0.0,0.0,0.0,0.0,0.0,0.0,0.0,0.0,0.0,0.0,0.0,0.0,0.0,0.0,0.0,0.0,0.0,0.0,0.0,0.0,0.0,0.0,0.0,0.0,0.0,0.0,0.0,0.0,0.0,0.0,0.0,0.0,0.0,0.0,0.0,0.0,0.0,0.0,0.0,0.0,0.0,0.0,0.0,0.0,0.0,0.0,0.0,0.0,0.0,0.0,0.0,0.0,0.0,0.0,0.0,0.0,0.0,0.0,0.0,0.0,0.0,0.0,0.0,0.0,0.0,0.0,0.0,0.0,0.0,0.0,0.0,0.0,0.0,0.0,0.0,0.0,0.0,0.0,0.0,0.0,0.0,0.0,0.0,0.0,0.0,0.0,0.0,0.0,0.0,0.0,0.0,0.0,0.0,0.0,0.0,0.0,0.0,0.0,0.0,0.0,0.0,0.0,0.0,0.0,0.0,0.0,0.0,0.0,0.0,0.0,0.0,0.0,0.0,0.0,0.0,0.0,0.0,0.0,0.0,0.0,0.0,0.0,0.0,0.0,0.0,0.0,0.0,0.0,0.0,0.0,0.0,0.0,0.0,0.0,0.0,0.0,0.0,0.0,0.0,0.0,0.0,0.0,0.0,0.0,0.0,0.0,0.0,0.0,0.0,0.0,0.0,0.0,0.0,0.0,0.0,0.0,0.0,0.0,0.0,0.0,0.0,0.0,0.0,0.0,0.0,0.0,0.0,0.0,0.0,0.0,0.0,0.0,0.0,0.0,0.0,0.0,0.0,0.0,0.0,0.0,0.0,0.0,0.0,0.0,0.0,0.0,0.0,0.0,0.0,0.0,0.0,0.0,0.0,0.0,0.0,0.0,0.0,0.0,0.0,0.0,0.0,0.0,0.0,0.0,0.0,0.0,0.0,0.0,0.0,0.0,0.0,0.0,0.0,0.0,0.0,0.0,0.0,0.0,0.0,0.0,0.0,0.0,0.0,0.0,0.0,0.0,0.0,0.0,0.0,0.0,0.0,0.0,0.0,0.0,0.0,0.0,0.0,0.0,0.0,0.0,0.0,0.0,0.0,0.0,0.0,0.0,0.0,0.0,0.0,0.0,0.0,0.0,0.0,0.0,0.0,0.0,0.0,0.0,0.0,0.0,0.0,0.0,0.0,0.0,0.0,0.0,0.0,0.0,0.0,0.0,0.0,0.0,0.0,0.0,0.0,0.0,0.0,0.0,0.0,0.0,0.0,0.0,0.0,0.0,0.0,0.0,0.0,0.0,0.0,0.0,0.0,0.0,0.0,0.0,0.0,0.0,0.0,0.0,0.0,0.0,0.0,0.0,0.0,0.0,0.0,0.0,0.0,0.0,0.0,0.0,0.0,0.0,0.0,0.0,0.0,0.0,0.0,0.0,0.0,0.0,0.0,0.0,0.0,0.0,0.0,0.0,0.0,0.0,0.0,0.0,0.0,0.0,0.0,0.0,0.0,0.0,0.0,0.0,0.0,0.0,0.0,0.0,0.0,0.0,0.0,0.0,0.0,0.0,0.0,0.0,0.0,0.0,0.0,0.0,0.0,0.0,0.0,0.0,0.0,0.0,0.0,0.0,0.0,0.0,0.0,0.0,0.0,0.0,0.0,0.0,0.0,0.0,0.0,0.0,0.0,0.0,0.0,0.0,0.0,0.0,0.0,0.0,0.0,0.0,0.0,0.0,0.0,0.0,0.0,0.0,0.0,0.0,0.0,0.0,0.0,0.0,0.0,0.0,0.0,0.0,0.0,0.0,0.0,0.0,0.0,0.0,0.0,0.0,0.0,0.0,0.0,0.0,0.0,0.0,0.0,0.0,0.0,0.0,0.0,0.0,0.0,0.0,0.0,0.0,0.0,0.0,0.0,0.0,0.0,0.0,0.0,0.0,0.0,0.0,0.0,0.0,0.0,0.0,0.0,0.0,0.0,0.0,0.0,0.0,0.0,0.0,0.0,0.0,0.0,0.0,0.0,0.0,0.0,0.0,0.0,0.0,0.0,0.0,0.0,0.0,0.0,0.0,0.0,0.0,0.0,0.0,0.0,0.0,0.0,0.0,0.0,0.0,0.0,0.0,0.0,0.0,0.0,0.0,0.0,0.0,0.0,0.0,0.0,0.0,0.0,0.0,0.0,0.0,0.0,0.0,0.0,0.0,0.0,0.0,0.0,0.0,0.0,0.0,0.0,0.0,0.0,0.0,0.0,0.0,0.0,0.0,0.0,0.0,0.0,0.0,0.0,0.0,0.0,0.0,0.0,0.0,0.0,0.0,0.0,0.0,0.0,0.0,0.0,0.0,0.0,0.0,0.0,0.0,0.0,0.0,0.0,0.0,0.0,0.0,0.0,0.0,0.0,0.0,0.0,0.0,0.0,0.0,0.0,0.0,0.0,0.0,0.0,0.0,0.0,0.0,0.0,0.0,0.0,0.0,0.0,0.0,0.0,0.0,0.0,0.0,0.0,0.0,0.0,0.0,0.0,0.0,0.0,0.0,0.0,0.0,0.0,0.0,0.0,0.0,0.0,0.0,0.0,0.0,0.0,0.0,0.0,0.0,0.0,0.0,0.0,0.0,0.0,0.0,0.0,0.0,0.0,0.0,0.0,0.0,0.0,0.0,0.0,0.0,0.0,0.0,0.0,0.0,0.0,0.0,0.0,0.0,0.0,0.0,0.0,0.0,0.0,0.0,0.0,0.0,0.0,0.0,0.0,0.0,0.0,0.0,0.0,0.0,0.0,0.0,0.0,0.0,0.0,0.0,0.0,0.0,0.0,0.0,0.0,0.0,0.0,0.0,0.0,0.0,0.0,0.0,0.0,0.0,0.0,0.0,0.0,0.0,0.0,0.0,0.0,0.0,0.0,0.0,0.0,0.0,0.0,0.0,0.0,0.0,0.0,0.0,0.0,0.0,0.0,0.0,0.0,0.0,0.0,0.0,0.0,0.0,0.0,0.0,0.0,0.0,0.0,0.0,0.0,0.0,0.0,0.0,0.0,0.0,0.0,0.0,0.0,0.0,0.0,0.0,0.0,0.0,0.0,0.0,0.0,0.0,0.0,0.0,0.0,0.0,0.0,0.0,0.0,0.0,0.0,0.0,0.0,0.0,0.0,0.0,0.0,0.0,0.0,0.0,0.0,0.0,0.0,0.0,0.0,0.0,0.0,0.0,0.0,0.0,0.0,0.0,0.0,0.0,0.0,0.0,0.0,0.0,0.0,0.0,0.0,0.0,0.0,0.0,0.0,0.0,0.0,0.0,0.0,0.0,0.0,0.0,0.0,0.0,0.0,0.0,0.0,0.0,0.0,0.0,0.0,0.0,0.0,0.0,0.0,0.0,0.0,0.0,0.0,0.0,0.0,0.0,0.0,0.0,0.0,0.0,0.0,0.0,0.0,0.0,0.0,0.0,0.0,0.0,0.0,0.0,0.0,0.0,0.0,0.0,0.0,0.0,0.0,0.0,0.0,0.0,0.0,0.0,0.0,0.0,0.0,0.0,0.0,0.0,0.0,0.0,0.0,0.0,0.0,0.0,0.0,0.0,0.0,0.0,0.0,0.0,0.0,0.0,0.0,0.0,0.0,0.0,0.0,0.0,0.0,0.0,0.0,0.0,0.0,0.0,0.0,0.0,0.0,0.0,0.0,0.0,0.0,0.0,0.0,0.0,0.0,0.0,0.0,0.0,0.0,0.0,0.0,0.0,0.0,0.0,0.0,0.0,0.0,0.0,0.0,0.0,0.0,0.0,0.0,0.0,0.0,0.0,0.0,0.0,0.0,0.0,0.0,0.0,0.0,0.0,0.0,0.0,0.0,0.0,0.0,0.0,0.0,0.0,0.0,0.0,0.0,0.0,0.0,0.0,0.0,0.0,0.0,0.0,0.0,0.0,0.0,0.0,0.0,0.0,0.0,0.0,0.0,0.0,0.0,0.0,0.0,0.0,0.0,0.0,0.0,0.0,0.0,0.0,0.0,0.0,0.0,0.0,0.0,0.0,0.0,0.0,0.0,0.0,0.0,0.2515,0.2694,0.1795,0.0,0.0,0.0,0.0,0.0,0.0,0.0,0.0,0.0,0.0,0.0,0.0,0.0,0.0,0.0,0.0,0.0,0.0,0.0,0.0,0.0,0.0,0.0,0.0,0.0,0.0,0.0,0.0,0.0,0.0,0.0,0.0,0.0,0.0,0.0,0.0,0.0,0.0,0.0,0.0,0.0,0.0,0.0,0.0,0.0,0.0,0.0,0.0,0.0,0.0,0.0,0.0,0.0,0.0,0.0,0.0,0.0,0.0,0.0,0.0,0.0,0.0,0.0,0.0,0.0,0.0,0.0,0.0,0.0,0.0,0.0,0.0,0.0,0.0,0.0,0.0,0.0,0.0,0.0,0.0,0.0,0.0,0.0,0.0,0.0,0.0,0.0,0.0,0.0,0.0,0.0,0.0,0.0,0.0,0.0,0.0,0.0,0.0,0.0,0.0,0.0,0.0,0.0,0.0,0.0,0.0,0.0,0.0,0.0,0.0,0.0,0.0539,0.1077,0.2874,0.1795,0.1436,0.1616,0.1616,0.1616,0.1616,0.1616,0.0,0.0,0.0,0.0,0.0,0.0,0.0,0.0,0.0,0.0,0.0,0.0,0.0,0.0,0.0,0.0,0.0,0.0,0.0,0.0,0.0,0.0,0.0,0.0,0.0,0.0,0.0,0.0,0.0,0.0,0.0,0.0,0.0,0.0,0.0,0.0,0.0,0.0,0.0,0.0,0.0,0.0,0.0,0.0,0.0,0.0,0.0,0.0,0.0,0.0,0.0,0.0,0.0,0.0,0.0,0.0,0.0,0.0,0.0,0.0,0.0,0.0,0.0,0.0,0.0,0.0,0.0,0.0,0.0,0.0,0.0,0.0,0.0,0.0,0.0,0.0,0.0,0.0,0.0,0.0,0.0,0.0,0.0,0.0,0.0,0.0,0.0,0.0,0.0,0.0,0.0,0.0,0.0,0.0,0.0,0.0,0.0,0.0,0.0,0.0,0.0,0.0,0.0,0.0,0.0,0.2156,0.0718,0.1077,0.2874,0.1436,0.1436,0.2874,0.2874,0.2874,0.2874,0.2874,0.1976,0.0,0.0,0.0,0.0,0.0,0.0,0.0,0.0,0.0,0.0,0.0,0.0,0.0,0.0,0.0,0.0,0.0,0.0,0.0,0.0,0.0,0.0,0.0,0.0,0.0,0.0,0.0,0.0,0.0,0.0,0.0,0.0,0.0,0.0,0.0,0.0,0.0,0.0,0.0,0.0,0.0,0.0,0.0,0.0,0.0,0.0,0.0,0.0,0.0,0.0,0.0,0.0,0.0,0.0,0.0,0.0,0.0,0.0,0.0,0.0,0.0,0.0,0.0,0.0,0.0,0.0,0.0,0.0,0.0,0.0,0.0,0.0,0.0,0.0,0.0,0.0,0.0,0.0,0.0,0.0,0.0,0.0,0.0,0.0,0.0,0.0,0.0,0.0,0.0,0.0,0.0,0.0,0.0,0.0,0.0,0.0,0.0,0.0,0.0,0.0,0.0,0.0,0.0,0.0,0.018,0.0,0.1077,0.2874,0.2874,0.2874,0.2874,0.2874,0.2874,0.2874,0.2874,0.2874,0.2694,0.0,0.0,0.0,0.0,0.0,0.0,0.0,0.0,0.0,0.0,0.0,0.0,0.0,0.0,0.0,0.0,0.0,0.0,0.0,0.0,0.0,0.0,0.0,0.0,0.0,0.0,0.0,0.0,0.0,0.0,0.0,0.0,0.0,0.0,0.0,0.0,0.0,0.0,0.0,0.0,0.0,0.0,0.0,0.0,0.0,0.0,0.0,0.0,0.0,0.0,0.0,0.0,0.0,0.0,0.0,0.0,0.0,0.0,0.0,0.0,0.0,0.0,0.0,0.0,0.0,0.0,0.0,0.0,0.0,0.0,0.0,0.0,0.0,0.0,0.0,0.0,0.0,0.0,0.0,0.0,0.0,0.0,0.0,0.0,0.0,0.0,0.0,0.0,0.0,0.0,0.0,0.0,0.0,0.0,0.0,0.0,0.0,0.0,0.0,0.0,0.0,0.0,0.0539,0.1795,0.1795,0.2156,0.2874,0.2874,0.2874,0.2874,0.2874,0.2874,0.2874,0.2874,0.2874,0.2874,0.2874,0.1795,0.0,0.0,0.0,0.0,0.0,0.0,0.0,0.0,0.0,0.0,0.0,0.0,0.0,0.0,0.0,0.0,0.0,0.0,0.0,0.0,0.0,0.0,0.0,0.0,0.0,0.0,0.0,0.0,0.0,0.0,0.0,0.0,0.0,0.0,0.0,0.0,0.0,0.0,0.0,0.0,0.0,0.0,0.0,0.0,0.0,0.0,0.0,0.0,0.0,0.0,0.0,0.0,0.0,0.0,0.0,0.0,0.0,0.0,0.0,0.0,0.0,0.0,0.0,0.0,0.0,0.0,0.0,0.0,0.0,0.0,0.0,0.0,0.0,0.0,0.0,0.0,0.0,0.0,0.0,0.0,0.0,0.0,0.0,0.0,0.0,0.0,0.0,0.0,0.0,0.0,0.0,0.0,0.0,0.0,0.0,0.0,0.0,0.0,0.0,0.0898,0.1616,0.2874,0.2874,0.2872,0.2871,0.2871,0.287,0.2867,0.2867,0.2867,0.2867,0.2867,0.287,0.2874,0.2874,0.2156,0.0898,0.0,0.0,0.0,0.0,0.0,0.0,0.0,0.0,0.0,0.0,0.0,0.0,0.0,0.0,0.0,0.0,0.0,0.0,0.0,0.0,0.0,0.0,0.0,0.0,0.0,0.0,0.0,0.0,0.0,0.0,0.0,0.0,0.0,0.0,0.0,0.0,0.0,0.0,0.0,0.0,0.0,0.0,0.0,0.0,0.0,0.0,0.0,0.0,0.0,0.0,0.0,0.0,0.0,0.0,0.0,0.0,0.0,0.0,0.0,0.0,0.0,0.0,0.0,0.0,0.0,0.0,0.0,0.0,0.0,0.0,0.0,0.0,0.0,0.0,0.0,0.0,0.0,0.0,0.0,0.0,0.0,0.0,0.0,0.0,0.0,0.0,0.0,0.0,0.0,0.0,0.0,0.0,0.0,0.0,0.0,0.0,0.0898,0.2874,0.2874,0.2874,0.2874,0.2874,0.287,0.2864,0.3221,0.3217,0.321,0.321,0.321,0.321,0.321,0.3219,0.3233,0.3053,0.2874,0.2694,0.0,0.0,0.0,0.0,0.0,0.0,0.0,0.0,0.0,0.0,0.0,0.0,0.0,0.0,0.0,0.0,0.0,0.0,0.0,0.0,0.0,0.0,0.0,0.0,0.0,0.0,0.0,0.0,0.0,0.0,0.0,0.0,0.0,0.0,0.0,0.0,0.0,0.0,0.0,0.0,0.0,0.0,0.0,0.0,0.0,0.0,0.0,0.0,0.0,0.0,0.0,0.0,0.0,0.0,0.0,0.0,0.0,0.0,0.0,0.0,0.0,0.0,0.0,0.0,0.0,0.0,0.0,0.0,0.0,0.0,0.0,0.0,0.0,0.0,0.0,0.0,0.0,0.0,0.0,0.0,0.0,0.0,0.0,0.0,0.0,0.0,0.0,0.0,0.0,0.0,0.0,0.0,0.0,0.0,0.0,0.1436,0.2335,0.2874,0.2874,0.2874,0.2874,0.2868,0.2866,0.3043,0.8603,1.1125,1.112,1.112,1.112,1.112,1.112,1.1125,1.06,0.5196,0.2867,0.2867,0.0,0.0,0.0,0.0,0.0,0.0,0.0,0.0,0.0,0.0,0.0,0.0,0.0,0.0,0.0,0.0,0.0,0.0,0.0,0.0,0.0,0.0,0.0,0.0,0.0,0.0,0.0,0.0,0.0,0.0,0.0,0.0,0.0,0.0,0.0,0.0,0.0,0.0,0.0,0.0,0.0,0.0,0.0,0.0,0.0,0.0,0.0,0.0,0.0,0.0,0.0,0.0,0.0,0.0,0.0,0.0,0.0,0.0,0.0,0.0,0.0,0.0,0.0,0.0,0.0,0.0,0.0,0.0,0.0,0.0,0.0,0.0,0.0,0.0,0.0,0.0,0.0,0.0,0.0,0.0,0.0,0.0,0.0,0.275,0.3642,0.0353,0.1772,0.3383,0.4666,0.1794,0.0,0.0,0.0,0.0359,0.1257,0.2335,0.2874,0.2874,0.2871,0.287,0.287,0.2863,0.4468,0.7691,1.22,1.4373,1.436,1.436,1.436,1.436,1.436,1.436,1.3998,0.9487,0.5719,0.286,0.2867,0.2151,0.1255,0.1256,0.126,0.1084,0.0362,0.0,0.0,0.0,0.0,0.0,0.0,0.0,0.0,0.0,0.0,0.0,0.0,0.0,0.0,0.0,0.0,0.0,0.0,0.0,0.0,0.0,0.0,0.0,0.0,0.0,0.0,0.0,0.0,0.0,0.0,0.0,0.0,0.0,0.0,0.0,0.0,0.0,0.0,0.0,0.0,0.0,0.0,0.0,0.0,0.0,0.0,0.0,0.0,0.0,0.0,0.0,0.0,0.0,0.0,0.0,0.0,0.0,0.0,0.0,0.0,0.0,0.0,0.0,0.0,0.0,0.0,0.0,0.0,0.0,0.0,0.0,0.0,0.0,0.0,0.0339,0.1199,0.7281,0.8939,0.2121,0.4806,0.8425,1.1536,0.5378,0.1074,0.0358,0.0359,0.1257,0.3412,0.3053,0.2872,0.2872,0.2866,0.3399,0.4118,0.4107,0.7677,1.436,1.4346,1.4333,1.4306,1.4319,1.4326,1.4326,1.434,1.4346,1.4353,1.438,1.0213,0.4109,0.3224,0.2871,0.2874,0.2882,0.2901,0.2559,0.0731,0.0,0.0,0.0,0.0,0.0,0.0,0.0,0.0,0.0,0.0,0.0,0.0,0.0,0.0,0.0,0.0,0.0,0.0,0.0,0.0,0.0,0.0,0.0,0.0,0.0,0.0,0.0,0.0,0.0,0.0,0.0,0.0,0.0,0.0,0.0,0.0,0.0,0.0,0.0,0.0,0.0,0.0,0.0,0.0,0.0,0.0,0.0,0.0,0.0,0.0,0.0,0.0,0.0,0.0,0.0,0.0,0.0,0.0,0.0,0.0,0.0,0.0,0.0,0.0,0.0,0.0,0.0,0.0,0.0,0.0,0.0,0.0,0.0,0.0,0.2227,0.8498,1.0539,1.1004,0.9482,0.8052,0.8964,1.3368,1.0983,0.7359,0.2693,0.2334,0.3949,0.7359,0.448,0.2866,0.2866,0.2859,0.5904,1.2073,1.2022,1.2912,1.4216,1.4333,1.4319,1.4346,1.4249,1.4289,1.4296,1.4236,1.4282,1.4282,1.4289,1.3494,1.1405,0.5429,0.3094,0.3118,0.2942,0.2947,0.2584,0.0739,0.0,0.0,0.0,0.0,0.0,0.0,0.0,0.0,0.0,0.0,0.0,0.0,0.0,0.0,0.0,0.0,0.0,0.0,0.0,0.0,0.0,0.0,0.0,0.0,0.0,0.0,0.0,0.0,0.0,0.0,0.0,0.0,0.0,0.0,0.0,0.0,0.0,0.0,0.0,0.0,0.0,0.0,0.0,0.0,0.0,0.0,0.0,0.0,0.0,0.0,0.0,0.0,0.0,0.0,0.0,0.0,0.0,0.0,0.0,0.0,0.0,0.0,0.0,0.0,0.0,0.0,0.0,0.0,0.0,0.0,0.0,0.0,0.0,0.0,0.1378,0.525,0.918,1.1583,1.1525,1.0238,1.06,1.3925,1.2985,1.1157,0.8815,0.6819,0.663,0.8603,0.8603,0.8603,0.8603,0.4815,0.6602,1.4222,1.4353,1.4333,1.4353,1.4572,1.4599,1.4441,1.4563,1.4624,1.4819,1.4713,1.474,1.474,1.474,1.4753,1.4388,1.0648,0.753,0.4792,0.3513,0.2971,0.2798,0.1865,0.0936,0.0,0.0,0.0,0.0,0.0,0.0,0.0,0.0,0.0,0.0,0.0,0.0,0.0,0.0,0.0,0.0,0.0,0.0,0.0,0.0,0.0,0.0,0.0,0.0,0.0,0.0,0.0,0.0,0.0,0.0,0.0,0.0,0.0,0.0,0.0,0.0,0.0,0.0,0.0,0.0,0.0,0.0,0.0,0.0,0.0,0.0,0.0,0.0,0.0,0.0,0.0,0.0,0.0,0.0,0.0,0.0,0.0,0.0,0.0,0.0,0.0,0.0,0.0,0.0,0.0,0.0,0.0,0.0,0.0,0.0,0.0,0.0,0.0,0.0,0.0,0.6021,1.0347,1.0446,1.0426,1.1504,1.4097,1.2794,1.2419,1.4269,1.0768,0.8765,0.9121,1.2016,1.3846,1.4216,0.8203,0.8191,1.4353,1.4319,1.4319,1.4353,1.5012,1.509,1.4757,1.4719,1.497,1.5167,1.5195,1.5209,1.5209,1.5209,1.5278,1.5197,1.5135,1.2085,0.7408,0.4273,0.2992,0.3014,0.2638,0.1706,0.0572,0.0191,0.0,0.0,0.0,0.0,0.0,0.0,0.0,0.0,0.0,0.0,0.0,0.0,0.0,0.0,0.0,0.0,0.0,0.0,0.0,0.0,0.0,0.0,0.0,0.0,0.0,0.0,0.0,0.0,0.0,0.0,0.0,0.0,0.0,0.0,0.0,0.0,0.0,0.0,0.0,0.0,0.0,0.0,0.0,0.0,0.0,0.0,0.0,0.0,0.0,0.0,0.0,0.0,0.0,0.0,0.0,0.0,0.0,0.0,0.0,0.0,0.0,0.0,0.0,0.0,0.0,0.0,0.0,0.0,0.0,0.0,0.0,0.0,0.0,0.3735,0.627,0.627,0.6264,0.8425,1.3905,1.0247,0.9701,1.409,1.0768,0.9299,1.1083,1.09,1.1988,1.4175,1.3413,1.3413,1.4353,1.4319,1.438,1.4716,1.5075,1.516,1.5146,1.508,1.5135,1.5142,1.5272,1.5133,1.5133,1.5133,1.5147,1.516,1.5181,1.3263,1.0014,0.4923,0.3035,0.2849,0.0951,0.1334,0.248,0.0572,0.0,0.0,0.0,0.0,0.0,0.0,0.0,0.0,0.0,0.0,0.0,0.0,0.0,0.0,0.0,0.0,0.0,0.0,0.0,0.0,0.0,0.0,0.0,0.0,0.0,0.0,0.0,0.0,0.0,0.0,0.0,0.0,0.0,0.0,0.0,0.0,0.0,0.0,0.0,0.0,0.0,0.0,0.0,0.0,0.0,0.0,0.0,0.0,0.0,0.0,0.0,0.0,0.0,0.0,0.0,0.0,0.0,0.0,0.0,0.0,0.0,0.0,0.0,0.0,0.0,0.0,0.0,0.0,0.0,0.0,0.0,0.0,0.0,0.1431,0.2332,0.2331,0.233,0.3406,0.5747,0.663,0.9143,1.4057,1.2734,1.2331,1.3046,1.2863,1.323,1.4319,1.4306,1.4306,1.4319,1.4387,1.4462,1.4723,1.5077,1.5195,1.5094,1.5224,1.5286,1.5286,1.516,1.5181,1.5181,1.5181,1.5181,1.5181,1.5201,1.367,1.138,0.7795,0.5142,0.0,0.1334,0.1144,0.1336,0.1717,0.0958,0.0,0.0,0.0,0.0,0.0,0.0,0.0,0.0,0.0,0.0,0.0,0.0,0.0,0.0,0.0,0.0,0.0,0.0,0.0,0.0,0.0,0.0,0.0,0.0,0.0,0.0,0.0,0.0,0.0,0.0,0.0,0.0,0.0,0.0,0.0,0.0,0.0,0.0,0.0,0.0,0.0,0.0,0.0,0.0,0.0,0.0,0.0,0.0,0.0,0.0,0.0,0.0,0.0,0.0,0.0,0.0,0.0,0.0,0.0,0.0,0.0,0.0,0.0,0.0,0.0,0.0,0.0,0.0,0.0,0.0,0.0,0.0,0.0,0.0,0.0,0.0,0.0,0.0,0.3221,0.7691,1.3859,1.4346,1.4312,1.4299,1.4299,1.4299,1.4299,1.4299,1.4319,1.436,1.4276,1.4557,1.4826,1.5053,1.5183,1.5031,1.514,1.5181,1.5181,1.5181,1.5181,1.5181,1.5181,1.5181,1.5181,1.5181,1.3664,1.1202,1.009,0.7446,0.402,0.2489,0.1151,0.0192,0.1731,0.1159,0.0,0.0,0.0,0.0,0.0,0.0,0.0,0.0,0.0,0.0,0.0,0.0,0.0,0.0,0.0,0.0,0.0,0.0,0.0,0.0,0.0,0.0,0.0,0.0,0.0,0.0,0.0,0.0,0.0,0.0,0.0,0.0,0.0,0.0,0.0,0.0,0.0,0.0,0.0,0.0,0.0,0.0,0.0,0.0,0.0,0.0,0.0,0.0,0.0,0.0,0.0,0.0,0.0,0.0,0.0,0.0,0.0,0.0,0.0,0.0,0.0,0.0,0.0,0.0,0.0,0.0,0.0,0.0,0.0,0.0,0.0,0.0,0.0,0.0,0.0,0.0,0.0,0.0,0.0179,0.4293,1.3674,1.4373,1.4333,1.4299,1.4299,1.4299,1.4299,1.4299,1.4367,1.4316,1.4509,1.4665,1.4957,1.5156,1.5238,1.5174,1.5181,1.5181,1.5181,1.5181,1.5181,1.5181,1.5181,1.5181,1.5181,1.5181,1.2716,0.9315,1.0659,0.9581,0.6957,0.4061,0.1752,0.0,0.0,0.0,0.0,0.0,0.0,0.0,0.0,0.0,0.0,0.0,0.0,0.0,0.0,0.0,0.0,0.0,0.0,0.0,0.0,0.0,0.0,0.0,0.0,0.0,0.0,0.0,0.0,0.0,0.0,0.0,0.0,0.0,0.0,0.0,0.0,0.0,0.0,0.0,0.0,0.0,0.0,0.0,0.0,0.0,0.0,0.0,0.0,0.0,0.0,0.0,0.0,0.0,0.0,0.0,0.0,0.0,0.0,0.0,0.0,0.0,0.0,0.0,0.0,0.0,0.0,0.0,0.0,0.0,0.0,0.0,0.0,0.0,0.0,0.0,0.0,0.0,0.0,0.0,0.0,0.0,0.0,0.1431,0.4651,1.0743,1.4346,1.4333,1.4312,1.4299,1.4299,1.4299,1.4367,1.4509,1.4618,1.4956,1.5162,1.5259,1.514,1.5181,1.5181,1.5181,1.5181,1.5181,1.5181,1.5181,1.5181,1.5181,1.4993,1.3664,1.2015,1.0376,0.0,0.7134,0.3291,0.1559,0.0588,0.0,0.0,0.0,0.0,0.0,0.0,0.0,0.0,0.0,0.0,0.0,0.0,0.0,0.0,0.0,0.0,0.0,0.0,0.0,0.0,0.0,0.0,0.0,0.0,0.0,0.0,0.0,0.0,0.0,0.0,0.0,0.0,0.0,0.0,0.0,0.0,0.0,0.0,0.0,0.0,0.0,0.0,0.0,0.0,0.0,0.0,0.0,0.0,0.0,0.0,0.0,0.0,0.0,0.0,0.0,0.0,0.0,0.0,0.0,0.0,0.0,0.0,0.0,0.0,0.0,0.0,0.0,0.0,0.0,0.0,0.0,0.0,0.0,0.0,0.0,0.0,0.0,0.0,0.0,0.0,0.0,0.0,0.0716,0.0,0.7331,1.2011,1.2912,1.2568,1.2217,1.2217,1.2264,1.3077,1.451,1.4042,1.4343,1.5238,1.514,1.5181,1.5181,1.5181,1.5181,1.5181,1.5181,1.5181,1.5181,1.4422,1.404,1.3852,1.1956,1.0516,0.0,0.8737,0.5845,0.1957,0.0394,0.0,0.0,0.0,0.0,0.0,0.0,0.0,0.0,0.0,0.0,0.0,0.0,0.0,0.0,0.0,0.0,0.0,0.0,0.0,0.0,0.0,0.0,0.0,0.0,0.0,0.0,0.0,0.0,0.0,0.0,0.0,0.0,0.0,0.0,0.0,0.0,0.0,0.0,0.0,0.0,0.0,0.0,0.0,0.0,0.0,0.0,0.0,0.0,0.0,0.0,0.0,0.0,0.0,0.0,0.0,0.0,0.0,0.0,0.0,0.0,0.0,0.0,0.0,0.0,0.0,0.0,0.0,0.0,0.0,0.0,0.0,0.0,0.0,0.0,0.0,0.0,0.0,0.0,0.0,0.0,0.0,0.0,0.0,0.0,0.0179,0.4118,0.7527,1.0213,0.9212,0.8529,0.8533,0.8616,1.0567,1.4261,1.2545,1.2783,1.4805,1.4805,1.4993,1.4993,1.4993,1.4993,1.4993,1.4993,1.4805,1.4798,1.2899,1.1956,1.1768,0.969,0.8233,0.7166,0.7235,0.553,0.2592,0.0598,0.0,0.0,0.0,0.0,0.0,0.0,0.0,0.0,0.0,0.0,0.0,0.0,0.0,0.0,0.0,0.0,0.0,0.0,0.0,0.0,0.0,0.0,0.0,0.0,0.0,0.0,0.0,0.0,0.0,0.0,0.0,0.0,0.0,0.0,0.0,0.0,0.0,0.0,0.0,0.0,0.0,0.0,0.0,0.0,0.0,0.0,0.0,0.0,0.0,0.0,0.0,0.0,0.0,0.0,0.0,0.0,0.0,0.0,0.0,0.0,0.0,0.0,0.0,0.0,0.0,0.0,0.0,0.0,0.0,0.0,0.0,0.0,0.0,0.0,0.0,0.0,0.0,0.0,0.0,0.0,0.0,0.0,0.0,0.0,0.2153,0.1791,0.358,0.7527,0.7408,0.762,0.8533,0.8616,0.9266,1.0301,0.9919,0.9969,1.0635,1.0635,1.139,1.2904,1.139,1.1579,1.2904,1.139,1.0635,1.0635,1.0068,0.9879,0.969,0.8182,0.8085,0.8217,0.5296,0.2778,0.0805,0.0201,0.0,0.0,0.0,0.0,0.0,0.0,0.0,0.0,0.0,0.0,0.0,0.0,0.0,0.0,0.0,0.0,0.0,0.0,0.0,0.0,0.0,0.0,0.0,0.0,0.0,0.0,0.0,0.0,0.0,0.0,0.0,0.0,0.0,0.0,0.0,0.0,0.0,0.0,0.0,0.0,0.0,0.0,0.0,0.0,0.0,0.0,0.0,0.0,0.0,0.0,0.0,0.0,0.0,0.0,0.0,0.0,0.0,0.0,0.0,0.0,0.0,0.0,0.0,0.0,0.0,0.0,0.0,0.0,0.0,0.0,0.0,0.0,0.0,0.0,0.0,0.0,0.0,0.0,0.0,0.0,0.0,0.0,0.0,0.0,0.0,0.1794,0.233,0.4843,0.5089,0.5308,0.6038,0.6128,0.6752,0.7729,0.7729,0.8131,0.9122,0.9122,0.969,1.0824,0.969,0.969,1.0824,0.95,0.9122,0.0,0.0,0.7795,0.7606,0.5905,0.5594,0.5693,0.3337,0.1392,0.0,0.0,0.0,0.0,0.0,0.0,0.0,0.0,0.0,0.0,0.0,0.0,0.0,0.0,0.0,0.0,0.0,0.0,0.0,0.0,0.0,0.0,0.0,0.0,0.0,0.0,0.0,0.0,0.0,0.0,0.0,0.0,0.0,0.0,0.0,0.0,0.0,0.0,0.0,0.0,0.0,0.0,0.0,0.0,0.0,0.0,0.0,0.0,0.0,0.0,0.0,0.0,0.0,0.0,0.0,0.0,0.0,0.0,0.0,0.0,0.0,0.0,0.0,0.0,0.0,0.0,0.0,0.0,0.0,0.0,0.0,0.0,0.0,0.0,0.0,0.0,0.0,0.0,0.0,0.0,0.0,0.0,0.0,0.0,0.0,0.0,0.0,0.0,0.2874,0.2694,0.2564,0.2591,0.2961,0.3021,0.4002,0.5713,0.5713,0.666,0.8364,0.8364,0.8364,0.8743,0.8364,0.8364,0.8743,0.8364,0.8364,0.8174,0.647,0.5713,0.5522,0.0,0.2703,0.2161,0.1575,0.0797,0.0,0.0,0.0,0.0,0.0,0.0,0.0,0.0,0.0,0.0,0.0,0.0,0.0,0.0,0.0,0.0,0.0,0.0,0.0,0.0,0.0,0.0,0.0,0.0,0.0,0.0,0.0,0.0,0.0,0.0,0.0,0.0,0.0,0.0,0.0,0.0,0.0,0.0,0.0,0.0,0.0,0.0,0.0,0.0,0.0,0.0,0.0,0.0,0.0,0.0,0.0,0.0,0.0,0.0,0.0,0.0,0.0,0.0,0.0,0.0,0.0,0.0,0.0,0.0,0.0,0.0,0.0,0.0,0.0,0.0,0.0,0.0,0.0,0.0,0.0,0.0,0.0,0.0,0.0,0.0,0.0,0.0,0.0,0.0,0.0,0.0,0.0,0.0,0.0,0.1616,0.0916,0.1296,0.2961,0.3021,0.3242,0.3623,0.3623,0.3813,0.4192,0.4192,0.4952,0.647,0.4952,0.5142,0.647,0.4764,0.4192,0.4192,0.3813,0.3623,0.3623,0.3243,0.0,0.0,0.1,0.0201,0.0,0.0,0.0,0.0,0.0,0.0,0.0,0.0,0.0,0.0,0.0,0.0,0.0,0.0,0.0,0.0,0.0,0.0,0.0,0.0,0.0,0.0,0.0,0.0,0.0,0.0,0.0,0.0,0.0,0.0,0.0,0.0,0.0,0.0,0.0,0.0,0.0,0.0,0.0,0.0,0.0,0.0,0.0,0.0,0.0,0.0,0.0,0.0,0.0,0.0,0.0,0.0,0.0,0.0,0.0,0.0,0.0,0.0,0.0,0.0,0.0,0.0,0.0,0.0,0.0,0.0,0.0,0.0,0.0,0.0,0.0,0.0,0.0,0.0,0.0,0.1255,0.0,0.0,0.0,0.0,0.0,0.0,0.0,0.0,0.0,0.0,0.0,0.0,0.0,0.0,0.0733,0.0741,0.2222,0.2832,0.3052,0.3052,0.0,0.3052,0.3052,0.3052,0.3623,0.4573,0.3623,0.3623,0.4383,0.3432,0.3052,0.3052,0.3052,0.3052,0.3052,0.0,0.0,0.0,0.1405,0.0404,0.0,0.0,0.0,0.0,0.0,0.0,0.0,0.0,0.0,0.0,0.0,0.0,0.0,0.0,0.0,0.0,0.0,0.0,0.0,0.0,0.0,0.0,0.0,0.0,0.0,0.0,0.0,0.0,0.0,0.0,0.0,0.0,0.0,0.0,0.0,0.0,0.0,0.0,0.0,0.0,0.0,0.0,0.0,0.0,0.0,0.0,0.0,0.0,0.0,0.0,0.5674,0.818,0.8171,0.8199,0.8222,0.8222,0.825,0.0,0.8531,0.8569,0.5299,0.0,0.0,0.0,0.0,0.0,0.0,0.0,0.0,0.0,0.0,0.0,0.0,0.0,0.0,0.412,0.1794,0.0179,0.0,0.0,0.0,0.0,0.0,0.0,0.0,0.0,0.0,0.0,0.0,0.0,0.0,0.0,0.0,0.0,0.0,0.0,0.3052,0.0,0.0,0.0,0.0,0.0,0.3052,0.3052,0.3052,0.3052,0.3052,0.0,0.0,0.3052,0.0,0.0,0.0,0.0,0.0,0.101,0.0,0.0,0.0,0.0,0.0,0.0,0.0,0.0,0.0,0.0,0.0,0.0,0.0,0.0,0.0,0.0,0.0,0.0,0.0,0.0,0.0,0.0,0.0,0.0,0.0,0.0,0.0,0.0,0.0,0.0,0.0,0.0,0.0,0.0,0.3235,0.3493,0.0,0.0,0.0,0.0,0.0237,0.0,0.0,0.0,0.2187,0.3413,0.3409,0.3434,0.345,0.3446,1.1699,1.5783,1.6032,1.5879,1.5922,1.5922,1.5949,0.0,0.0,1.3972,0.7864,0.0,0.0,0.0,0.0,0.0,0.0,0.0,0.0,0.0,0.0,0.0,0.0,0.0,0.0,0.9143,0.7892,0.0896,0.0,0.0,0.0,0.0,0.0,0.0,0.0,0.0,0.0,0.0,0.0,0.0,0.0,0.0,0.0,0.0,0.0,0.0,0.0,0.0,0.0,0.0,0.0,0.0,0.0,0.0,0.3052,0.3052,0.0,0.0,0.0,0.0,0.0,0.0,0.0,0.0,0.0,0.1818,0.0,0.0,0.0,0.0,0.0,0.0,0.0,0.0,0.0,0.0,0.0,0.0,0.0,0.0,0.0,0.0,0.0,0.0,0.0,0.0,0.0,0.0,0.0,0.0,0.0,0.0,0.0,0.0,0.0,0.0,0.0,0.0,0.0,0.3701,1.345,1.4271,0.0,0.0,0.0,0.0,0.0479,0.0,0.0,0.0,0.9316,1.4311,1.4311,1.4414,1.4464,1.4439,1.5316,1.6119,1.6347,1.6364,1.6391,1.6419,1.6529,0.0,0.0,0.5639,0.1028,0.0,0.0,0.0,0.0,0.0,0.0,0.0,0.0,0.0,0.0,0.0,0.0,0.0,1.0199,1.0763,1.0416,0.7342,0.4832,0.3401,0.3403,0.1434,0.0,0.0,0.0,0.0,0.0,0.0,0.0,0.0,0.0,0.0,0.0,0.0,0.0,0.0,0.0,0.0,0.0,0.0,0.0,0.0,0.0,0.0,0.0,0.0,0.0,0.0,0.0,0.0,0.0,0.0,0.0,0.0,0.0,0.0,0.1818,0.0404,0.0,0.0,0.0,0.0,0.0,0.0,0.0,0.0,0.0,0.0,0.0,0.0,0.0,0.0,0.0,0.0,0.0,0.0,0.0,0.0,0.0,0.0,0.0,0.0,0.0,0.0,0.0,0.0,0.0,0.0,0.554,1.1225,0.0,0.0,0.0,0.0,0.0,0.0,0.9808,0.956,0.9577,0.961,1.3626,1.5687,1.574,1.5783,1.6059,1.6303,1.6179,1.6233,1.6474,1.6546,1.659,1.6088,0.944,0.0,0.0,0.1797,0.0,0.0,0.0,0.0,0.0,0.0,0.0,0.0,0.0,0.0,0.0,0.0,0.0,1.1471,1.1455,1.1476,1.1493,1.1482,0.9139,0.7342,0.7345,0.5015,0.2867,0.1793,0.0718,0.0,0.0,0.0,0.0,0.0,0.0,0.0,0.0,0.0,0.0,0.0,0.0,0.0,0.0,0.0,0.0,0.0,0.0,0.0,0.0,0.0,0.0,0.0,0.0,0.0,0.0,0.0,0.0,0.0,0.0,0.0,0.0,0.0,0.0,0.0,0.0,0.0,0.0,0.0,0.0,0.0,0.0,0.0,0.0,0.0,0.0,0.0,0.0,0.0,0.0,0.0,0.0,0.0,0.0,0.0,0.0,0.0,0.0,0.0,0.0,0.0,0.114,0.4371,1.1184,1.584,0.0,0.0,0.0,0.0,0.0,0.0,0.0,1.5923,1.5934,1.5756,1.6005,1.6037,1.6103,1.5896,1.6163,1.6419,1.6546,1.6601,1.6601,1.6429,1.6472,1.5966,0.0,0.0,0.0,0.1284,0.0,0.0,0.0,0.0,0.0,0.0,0.0,0.0,0.0,0.0,0.0,0.0,0.0,0.0,1.1455,1.1455,1.146,1.1482,1.1482,1.1487,1.1509,1.133,0.9876,0.5906,0.2151,0.0,0.0,0.0,0.0,0.0,0.0,0.0,0.0,0.0,0.0,0.0,0.2098,0.0,0.0,0.0,0.0,0.0,0.0,0.0,0.0,0.0,0.0,0.0,0.0,0.0,0.0,0.0,0.0,0.0,0.0,0.0,0.0,0.0,0.0,0.0,0.0,0.0,0.0,0.0,0.0,0.0,0.0,0.0,0.0,0.0,0.0,0.0,0.0,0.0,0.0,0.0,0.0,0.0,0.0,0.0,0.0,0.0,0.0,0.0,0.0,0.0,0.3877,1.4344,1.5737,1.5717,1.5718,0.0,0.0,0.0,0.0,0.0,0.0,1.6037,1.6103,1.5853,1.6358,1.6614,1.6614,1.6491,1.6546,1.6546,1.6418,1.6472,1.6472,1.6472,1.6483,0.0,0.0,0.0,0.0,0.4624,0.0,0.0,0.0,0.0,0.0,0.0,0.0,0.0,0.0,0.0,0.0,0.0,0.0,0.0,0.0,1.1455,1.146,1.1465,1.1465,1.1465,1.1471,1.1482,1.0947,0.9857,0.3761,0.0,0.0,0.0,0.0,0.0,0.0,0.0,0.0,0.0,0.0,0.0,0.0572,0.1716,0.3052,0.3052,0.0,0.0,0.0,0.0,0.0,0.0,0.0,0.0,0.0,0.0,0.0,0.0,0.0,0.0,0.0,0.0,0.0,0.0,0.0,0.0,0.0,0.0,0.0,0.0,0.0,0.0,0.0,0.0,0.0,0.0,0.0,0.0,0.0,0.0,0.0,0.0,0.0,0.0,0.0,0.0,0.0,0.0,0.0,0.0,0.0,0.5917,1.1512,1.4798,1.5364,1.5646,0.0,0.0,0.0,0.0,0.0,0.0,0.0,1.6206,1.6233,1.6233,1.6491,1.6529,1.6618,1.6402,1.6418,1.6418,1.6456,1.6472,1.6472,1.6472,0.0,0.0,0.0,0.0,0.0,1.262,1.1333,1.0573,0.2847,0.0,0.0,0.0,0.0,0.0,0.0,0.0,0.0,0.0,0.0,0.0,0.0,1.1455,1.1455,1.1455,1.1455,1.1455,1.1455,1.1465,1.1471,1.1471,0.7156,0.0,0.0,0.0,0.0,0.0,0.0,0.0,0.0,0.0,0.0,0.0,0.0,0.0572,0.1907,0.2671,0.3052,0.3052,0.0,0.0,0.0,0.0,0.0,0.0,0.0,0.0,0.3074,0.0,0.0,0.0,0.0,0.0,0.0,0.0,0.0,0.0,0.0,0.0,0.0,0.0,0.0,0.0,0.0,0.0,0.0,0.0,0.0,0.0,0.0,0.0,0.0,0.0,0.0,0.0,0.0,0.0,0.0,0.0,0.3145,0.5624,0.5635,1.0984,1.5105,1.5248,0.0,0.0,0.0,0.0,0.0,0.0,0.0,0.0,0.0,1.6331,1.6618,1.6618,1.6618,1.6402,1.6472,1.6472,1.6472,1.6472,1.6472,1.6472,1.6472,1.6472,0.0,0.0,0.0,0.0,0.0,1.6625,1.6377,1.5876,0.8867,0.3657,0.0,0.0,0.0,0.0,0.0,0.0,0.0,0.0,0.0,0.0,0.0,1.1455,1.1455,1.1455,1.1455,1.1455,1.1455,1.1455,1.1455,1.1455,0.0,0.0,0.0,0.0,0.0,0.0,0.0,0.0,0.0,0.0,0.0,0.0,0.0,0.0,0.0,0.2098,0.3052,0.3052,0.3052,0.0,0.0,0.0,0.0,0.0,0.0,0.0,0.0,0.0,0.0,0.0,0.0,0.0,0.0,0.0,0.0,0.0,0.0,0.0,0.0,0.0,0.0,0.0,0.0,0.0,0.0,0.0,0.0,0.0,0.0,0.0,0.0,0.0,0.0,0.0,0.0,0.0,0.0,0.0,0.8549,1.4949,1.505,1.495,0.0,0.0,0.0,0.0,0.0,0.0,0.0,0.0,0.0,0.0,0.0,1.6413,1.6472,1.6472,1.6472,1.6472,1.6472,1.6472,1.6472,1.6472,1.6472,1.6472,1.6483,1.6483,0.0,0.0,0.0,0.0,0.0,1.6554,1.657,1.6597,1.6613,1.0261,0.1053,0.0264,0.0,0.0,0.0,0.0,0.0,0.0,0.0,0.0,0.0,0.0,0.0,0.0,1.1455,1.1455,1.1455,1.1455,1.1455,0.0,0.0,0.0,0.0,0.0,0.0,0.0,0.0,0.0,0.0,0.0,0.0,0.0,0.0,0.0,0.0,0.1335,0.1907,0.1907,0.2671,0.3052,0.0,0.0,0.0,0.0,0.0,0.0,0.0,0.0,0.0,0.0,0.0,0.0,0.0,0.0,0.0,0.0,0.0,0.0,0.0,0.0,0.0,0.0,0.0,0.0,0.0,0.0,0.0,0.0,0.0,0.0,0.0,0.0,0.0,0.0,0.0,0.0,0.0,0.0,0.0,1.4949,1.505,0.0,0.0,0.0,0.0,0.0,0.0,0.0,0.0,0.0,0.0,0.0,0.0,1.6456,1.6472,1.6472,1.6472,1.6472,1.6472,1.6472,1.6472,1.6472,1.6472,1.6516,1.6597,1.6597,0.0,0.0,0.0,0.0,1.7087,1.7087,1.7087,1.7115,1.6967,1.5405,1.1969,0.3203,0.0,0.0,0.0,0.0,0.0,0.0,0.0,0.0,0.0,0.0,0.0,0.0,0.0,0.0,0.0,0.0,0.0,0.0,0.0,0.0,0.0,0.0,0.0,0.0,0.0,0.7948,0.0186,0.0,0.0,0.0,0.0,0.0,0.0,0.0572,0.1144,0.1526,0.3623,0.4385,0.0,0.0,0.0,0.0,0.286,0.0,0.0,0.0,0.0,0.0,0.0,0.0,0.0,0.0,0.0,0.0,0.0,0.0,0.0,0.0,0.0,0.0,0.0,0.0,0.0,0.0,0.0,0.0,0.0,0.0,0.0,0.0,0.0,0.0,0.0,0.0,0.0,0.0,0.0,0.0,0.0,0.0,1.5266,0.0,0.0,0.0,0.0,0.0,0.0,0.0,0.0,0.0,0.0,1.6472,1.6472,1.6472,1.6472,1.6472,1.6472,1.6472,1.65,1.6554,1.6554,1.6608,1.6463,1.6722,1.6793,0.0,0.0,0.0,1.7258,1.7258,1.7258,1.7275,1.7076,1.7136,1.5805,0.4289,0.0,0.0,0.0,0.0,0.0,0.0,0.0,0.0,0.0,0.0,0.0,0.0,0.0,0.0,0.0,0.0,0.0,0.0,0.0,0.0,0.0,0.0,0.0,0.0,0.0,0.6715,0.0188,0.0,0.0,0.0,0.0,0.0,0.0,0.1336,0.1908,0.2287,0.5335,0.6286,0.0,0.0,0.0,0.0,0.2481,0.0,0.0,0.0,0.0,0.0,0.0,0.0,0.0,0.0,0.0,0.0,0.0,0.0,0.0,0.0,0.0,0.0,0.0,0.0,0.0,0.0,0.0,0.0,0.0,0.0,0.0,0.0,0.0,0.0,0.0,0.0,0.0,0.0,0.0,0.0,1.4275,1.5124,1.5401,0.0,0.0,0.0,0.0,0.0,0.0,0.0,0.0,0.0,0.0,1.6472,1.6472,1.65,1.65,1.65,1.6527,1.65,1.6554,1.6404,1.6668,1.6733,1.6586,1.7115,1.7192,0.0,0.0,0.0,1.719,1.719,1.719,1.719,1.719,1.7201,1.6137,0.6168,0.161,0.0,0.0,0.0,0.0,0.0,0.0,0.0,0.0,0.0,0.0,0.0,0.0,0.0,0.0,0.0,0.0,0.0,0.0,0.0,0.0,0.0,0.0,1.1475,0.5254,0.1126,0.0,0.0,0.0,0.0,0.0,0.0,0.0191,0.7077,0.8607,0.5525,0.7619,0.8189,0.7233,0.0,0.0,0.0,0.0,0.0,0.0,0.0,0.0,0.0,0.0,0.0,0.0,0.0,0.0,0.0,0.0,0.0,0.0,0.0,0.0,0.0,0.0,0.0,0.0,0.0,0.0,0.0,0.0,0.0,0.0,0.0,0.0,0.0,0.0,0.0,0.0,0.0,0.0,0.0,0.0,0.0,0.0,0.0,0.0,0.0,0.0,0.0,0.0,0.0,0.0,0.0,0.0,1.6961,1.65,1.6597,1.6608,1.6404,1.65,1.6404,1.6404,1.6527,1.6799,1.7131,1.6978,1.7247,1.7313,1.7163,0.0,1.7174,1.719,1.719,1.719,1.719,1.719,1.7201,1.6961,1.5325,0.8318,0.0,0.0,0.0,0.0,0.0,0.0,0.0,0.0,0.0,0.0,0.0,0.0,0.0,0.0,0.0,0.0,0.0,0.0,0.0,0.0,0.0,0.8563,0.8649,0.5094,0.2271,0.0,0.0,0.0,0.0,0.4395,0.6499,0.6681,0.8211,0.8394,0.7809,0.9905,1.009,0.894,0.9707,0.0,0.0,0.0,0.0,0.0,0.0,0.0,0.0,0.0,0.0,0.0,0.0,0.0,0.0,0.0,0.0,0.0,0.0,0.0,0.0,0.0,0.0,0.1297,0.652,0.7646,0.7027,0.4418,0.0,0.0,0.0,0.0,0.0,0.0,0.0,0.0,0.0,0.0,0.0,0.0,0.0,0.0,0.0,0.0,0.0,0.0,0.0,0.0,0.0,0.0,0.0,0.0,0.0,1.7604,1.6625,1.6695,1.6782,1.6918,1.6864,1.6864,1.6918,1.7186,1.7258,1.7103,1.7103,1.7136,1.719,0.0,1.719,1.719,1.719,1.719,1.719,1.719,1.7201,1.7217,1.7228,1.3723,0.8339,0.0,0.0,0.0,0.0,0.0,0.0,0.0,0.0,0.0,0.0,0.0,0.0,0.0,0.0,0.0,0.0,0.0,0.0,0.0,0.0,0.7507,0.7524,0.7578,0.609,0.286,0.1904,0.1522,0.1334,0.7647,1.1297,1.2058,0.8956,0.8372,0.9905,1.1431,1.1626,1.0497,1.1657,1.2308,0.0,0.0,0.0,0.0,0.0,0.0,0.0,0.0,0.0,0.0,0.0,0.0,0.0,0.0,0.0,0.0,0.0,0.0,0.0,0.0,0.0,0.2387,1.1859,0.0,1.3348,0.0,0.0,0.0,0.0,0.0,0.0,0.0,0.0,0.0,0.0,0.0,0.0,0.0,0.0,0.0,0.0,0.0,0.0,0.0,0.0,0.0,0.0,0.0,0.0,0.0,0.0,1.9006,1.749,1.7326,1.7175,1.7302,1.7313,1.7313,1.7313,1.7313,1.7092,1.719,1.719,1.719,1.719,1.719,1.719,1.719,1.719,1.719,1.719,1.719,1.719,1.719,1.7217,1.7255,1.5657,0.0,0.0,0.0,0.0,0.0,0.0,0.0,0.0,0.0,0.0,0.0,0.0,0.0,0.0,0.0,0.0,0.0,0.0,0.0,0.0,1.1715,1.182,1.182,1.1631,1.1267,0.7612,0.5702,0.5705,0.6277,0.8573,1.2227,1.1826,1.1815,1.2005,1.2178,1.2237,1.2149,1.2341,1.2422,1.2363,0.0,0.0,0.0,0.0,0.0,0.0,0.0,0.0,0.0,0.0,0.0,0.0,0.0,0.0,0.0,0.0,0.0,0.0,0.0,0.0,0.241,1.1965,0.0,0.0,0.0,0.0,0.0,0.0,0.0,0.0,0.0,0.0,0.0,0.0,0.0,0.0,0.0,0.0,0.0,0.0,0.0,0.0,0.0,0.0,0.0,0.0,0.0,0.0,0.0,0.0,0.0,2.0706,1.8295,1.7286,1.7147,1.7147,1.7147,1.7147,1.7147,1.7163,1.7163,1.7163,1.7174,1.719,1.719,1.719,1.719,1.719,1.719,1.719,1.719,1.719,1.719,1.719,1.7217,1.5597,0.0,0.0,0.0,0.0,0.0,0.0,0.0,0.0,0.0,0.0,0.0,0.0,0.0,0.0,0.0,0.0,0.0,0.0,0.0,1.208,1.2145,1.2188,1.2183,1.2183,1.2194,1.0664,0.9905,0.9914,0.9905,1.0668,1.221,1.2188,1.2183,1.2183,1.2254,1.2505,1.2746,1.2626,1.2742,1.3268,1.2721,0.0,0.0,0.0,0.0,0.0,0.0,0.0,0.0,0.0,0.0,0.0,0.0,0.0,0.0,0.0,0.0,0.1305,0.7362,0.8961,0.9727,1.3313,0.0,0.0,0.0,0.0,0.0,0.0,0.0,0.0,0.0,0.0,0.0,0.0,0.0,0.0,0.0,0.0,0.0,0.0,0.0,0.0,0.0,0.0,0.0,0.0,0.0,0.0,0.0,0.0,0.0,2.0995,1.9722,1.8718,1.8506,1.9322,1.9867,1.9854,1.9867,1.9867,1.9867,1.7962,1.7147,1.7174,1.7174,1.7174,1.719,1.719,1.719,1.719,1.719,1.719,1.719,1.719,1.7201,1.6682,0.0,0.0,0.0,0.0,0.0,0.0,0.0,0.0,0.0,0.0,0.0,0.0,0.0,0.0,0.0,0.0,0.0,0.0,1.2047,1.2123,1.2172,1.2172,1.2172,1.2172,1.2172,1.2183,1.2194,1.221,1.2194,1.2188,1.2378,1.2216,1.2416,1.2427,1.2549,1.2813,1.3245,1.3137,1.3257,1.3586,1.3228,1.2468,0.0,0.0,0.0,0.0,0.0,0.0,0.0,0.0,0.0,0.0,0.0,0.0,0.0,0.0,0.2169,0.5882,1.2418,1.4304,1.4238,0.0,0.0,0.0,0.0,0.0,0.0,0.0,0.0,0.0,0.0,0.0,0.0,0.0,0.0,0.0,0.0,0.0,0.0,0.0,0.0,0.0,0.0,0.0,0.0,0.0,0.0,0.0,0.0,0.0,0.0,0.0,2.0606,2.0379,1.9854,2.0944,2.1475,2.1455,2.1475,2.1475,2.1223,1.931,1.8488,1.8506,1.7701,1.7174,1.7174,1.719,1.719,1.719,1.719,1.719,1.719,1.719,1.7201,1.7217,0.0,0.0,0.0,0.0,0.0,0.0,0.0,0.0,0.0,0.0,0.0,0.0,0.0,0.0,0.0,0.0,0.0,0.0,1.2172,1.2172,1.2172,1.2172,1.2172,1.2172,1.2172,1.2172,1.2172,1.2172,1.2172,1.2361,1.2933,1.2488,1.2741,1.313,1.3251,1.3372,1.3493,1.409,1.397,1.3701,1.3822,1.1762,0.0,0.0,0.0,0.0,0.0,0.0,0.0,0.0,0.0,0.0,0.0,0.0,0.0,0.0215,0.6916,1.4355,1.426,1.436,0.0,0.0,0.0,0.0,0.0,0.0,0.0,0.0,0.0,0.0,0.0,0.0,0.0,0.0,0.0,0.0,0.0,0.0,0.0,0.0,0.0,0.0,0.0,0.0,0.0,0.0,0.0,0.0,0.0,0.0,0.0,0.0,2.1475,2.1475,2.1475,2.1475,2.1455,2.1441,2.1441,2.1455,2.1475,2.1475,2.1475,2.1223,1.8506,1.7163,1.7163,1.7174,1.719,1.719,1.719,1.719,1.719,1.719,1.719,1.719,0.0,0.0,0.0,0.0,0.0,0.0,0.0,0.0,0.0,0.0,0.0,0.0,0.0,0.0,0.0,0.0,0.0,0.0,1.2172,1.2172,1.2172,1.2172,1.2172,1.2172,1.2172,1.2172,1.2172,1.2172,1.2259,1.2488,1.2494,1.2428,1.2482,1.2681,1.3188,1.3459,1.3499,1.379,1.4325,1.4672,1.3592,1.259,1.1826,0.0,0.0,0.0,0.0,0.0,0.0,0.0,0.0,0.0,0.1074,0.0,0.129,0.7991,1.197,1.4255,1.4349,1.4222,0.0,0.0,0.0,0.0,0.0,0.0,0.0,0.0,0.0,0.0,0.0,0.0,0.0,0.0,0.0,0.0,0.0,0.0,0.0,0.0,0.0,0.0,0.0,0.0,0.0,0.0,0.0,0.0,0.0,2.1049,2.1408,2.1441,2.1455,2.1455,2.1455,2.1455,2.1441,2.1441,2.1441,2.1441,2.1455,2.1455,2.1455,2.1475,2.0405,1.905,1.7163,1.7174,1.719,1.719,1.719,1.719,1.719,1.719,1.719,1.719,0.0,0.0,0.0,0.0,0.0,0.0,0.0,0.0,0.0,0.0,0.0,0.0,0.0,0.0,0.0,0.0,0.0,0.0,0.0,1.2172,1.2172,1.2172,1.2172,1.2194,1.2243,1.2243,1.227,1.2314,1.2341,1.2571,1.2808,1.2547,1.2602,1.2998,1.3319,1.3597,1.3643,1.3872,1.4379,1.4721,1.3615,1.32,1.3042,0.0,0.0,0.0,0.0,0.0,0.0,0.0,0.0,0.0,0.6221,0.5594,0.6908,1.2571,1.4216,1.4349,1.4387,0.0,0.0,0.0,0.0,0.0,0.0,0.0,0.0,0.0,0.0,0.0,0.0,0.0,0.0,0.0,0.0,0.0,0.0,0.0,0.0,0.0,0.0,0.0,0.0,0.0,0.0,0.0,0.0,0.0,0.0,2.1387,2.1441,2.1441,2.1441,2.1441,2.1441,2.1441,2.1441,2.1441,2.1441,2.1441,2.1441,2.1441,2.1441,2.1455,2.0114,1.8778,1.7174,1.719,1.719,1.719,1.719,1.719,1.719,1.719,1.719,1.719,0.0,0.0,0.0,0.0,0.0,0.0,0.0,0.0,0.0,0.0,0.0,0.0,0.0,0.0,0.0,0.0,0.0,0.0,0.0,1.2172,1.2172,1.2172,1.2183,1.2243,1.2352,1.2368,1.2428,1.2553,1.2439,1.2632,1.332,1.2863,1.3116,1.3516,1.3649,1.3759,1.3846,1.4343,1.4166,1.3869,1.3869,1.3408,1.2944,1.3167,0.0,0.0,0.0,0.0,0.0,0.0,0.0,0.0,1.376,1.4017,1.4327,1.4344,1.4266,1.4404,1.4195,0.0,0.0,0.0,0.0,0.0,0.0,0.0,0.0,0.0,0.0,0.0,0.0,0.0,0.0,0.0,0.0,0.0,0.0,0.0,0.0,0.0,0.0,0.0,0.0,0.0,0.0,0.0,0.0,0.0,0.0,2.1441,2.1441,2.1441,2.1441,2.1441,2.1441,2.1441,2.1441,2.1441,2.1441,2.1441,2.1441,2.1441,2.1441,2.1169,1.8476,1.7147,1.719,1.719,1.719,1.719,1.719,1.719,1.719,1.719,1.719,1.719,0.0,0.0,0.0,0.0,0.0,0.0,0.0,0.0,0.0,0.0,0.0,0.0,0.0,0.0,0.0,0.0,0.0,0.0,0.0,1.2172,1.2172,1.2172,1.2265,1.233,1.2357,1.2449,1.2553,1.2667,1.264,1.264,1.2863,1.3189,1.3251,1.3051,1.3977,1.3995,1.3128,1.3799,1.3649,1.3272,1.3272,1.3311,1.3178,1.3325,1.3368,0.0,0.0,0.0,0.0,0.0,0.0,0.0,1.4117,1.4128,1.4106,1.4288,1.4376,1.4195,1.4265,1.4309,0.0,0.0,0.0,0.0,0.0,0.0,0.0,0.0,0.0,0.0,0.0,0.0,0.0,0.0,0.0,0.0,0.0,0.0,0.0,0.0,0.0,0.0,0.0,0.0,0.0,0.0,0.0,0.0,2.1441,2.1441,2.1441,2.1441,2.1441,2.1441,2.1441,2.1441,2.1441,0.0,2.1441,2.1441,2.1441,2.1441,2.1455,2.1203,1.8488,1.7147,1.7174,1.719,1.719,1.719,1.719,1.719,1.719,1.719,1.719,1.719,0.0,0.0,0.0,0.0,0.0,0.0,0.0,0.0,0.0,0.0,0.0,0.0,0.0,0.0,0.0,0.0,0.0,0.0,0.0,0.0,1.2199,1.2254,1.2379,1.2466,1.252,1.2585,1.2672,1.2792,1.299,1.3189,1.3189,1.3854,1.3884,1.329,1.396,1.3782,1.2982,1.3441,1.33,1.3156,1.3216,1.3276,1.3341,1.3461,1.351,1.3526,0.0,0.0,0.0,0.0,0.0,0.0,0.0,0.0,1.4249,1.4376,1.4211,1.4265,1.4309,0.0,0.0,1.432,0.0,0.0,0.0,0.0,0.0,0.0,0.0,0.0,0.0,0.0,0.0,0.0,0.0,0.0,0.0,0.0,0.0,0.0,0.0,0.0,0.0,0.0,0.0,0.0,0.0,2.0917,2.1441,2.1441,2.1441,2.1441,2.1441,2.1441,2.1441,2.1441,2.1441,2.1441,2.1441,2.1441,2.1441,2.1441,2.1455,2.1203,1.9854,1.8506,1.7163,1.7174,1.719,1.719,1.719,1.719,1.719,1.719,1.719,1.719,0.0,0.0,0.0,0.0,0.0,0.0,0.0,0.0,0.0,0.0,0.0,0.0,0.0,0.0,0.0,0.0,0.0,0.0,0.0,0.0,0.0,1.2379,1.2498,1.2607,1.2705,1.2727,1.2786,1.309,1.349,1.3889,0.0,0.0,1.4283,1.369,1.3736,1.3598,1.3075,1.3134,1.3205,1.3281,1.3401,1.345,1.3466,1.3591,1.3635,1.3651,0.0,0.0,0.0,0.0,0.0,0.0,0.0,0.0,1.4404,1.4195,1.4265,1.432,1.432,1.432,1.432,1.432,1.4417,0.0,1.4532,0.0,0.0,0.0,0.0,0.0,0.0,0.0,0.0,0.0,0.0,0.0,0.0,0.0,0.0,0.0,0.0,0.0,0.0,0.0,0.0,0.0,0.0,2.1441,2.1441,2.1441,2.1441,2.1441,2.1441,2.1441,2.1441,2.1441,2.1441,2.1441,2.1441,2.1441,2.1441,2.1441,2.1455,2.1475,2.1489,1.9867,1.7163,1.7174,1.719,1.719,1.719,1.719,1.719,1.719,1.719,1.719,0.0,0.0,0.0,0.0,0.0,0.0,0.0,0.0,0.0,0.0,0.0,0.0,0.0,0.0,0.0,0.0,0.0,0.0,0.0,0.0,0.0,1.2509,1.2623,1.2689,1.2705,1.2808,1.3073,1.369,1.4083,0.0,0.0,0.0,0.0,1.3701,1.3915,1.3553,1.3091,1.3401,1.3482,1.3406,1.3531,1.358,1.3591,1.3716,1.3765,0.0,0.0,0.0,0.0,0.0,0.0,0.0,0.0,0.0,1.4195,1.4282,1.4309,1.432,1.432,1.432,1.432,0.0,1.4417,1.4532,0.0,0.0,1.4885,0.0,0.0,0.0,0.0,0.0,0.0,0.0,0.0,0.0,0.0,0.0,0.0,0.0,0.0,0.0,0.0,0.0,0.0,0.0,2.0911,2.1441,2.1441,2.1441,2.1441,2.1441,2.1441,2.1441,2.1441,2.1441,2.1441,2.1441,2.1441,2.1441,2.1441,2.1441,2.1455,2.1475,2.1489,1.9867,1.7163,1.7174,1.719,1.719,1.719,1.719,1.719,1.719,1.719,1.719,0.0,0.0,0.0,0.0,0.0,0.0,0.0,0.0,0.0,0.0,0.0,0.0,0.0,0.0,0.0,1.2368,1.2428,1.2455,0.0,0.0,0.0,1.2629,1.2743,1.2808,1.2808,1.2857,1.309,1.369,0.0,0.0,0.0,1.4391,1.3989,0.0,0.0,0.0,1.3699,1.3929,1.3996,1.3962,1.394,1.3765,1.3711,1.3765,1.3787,0.0,0.0,0.0,0.0,0.0,0.0,0.0,1.4124,0.0,0.0,0.0,1.432,1.432,1.432,1.432,1.432,1.432,1.4461,1.4619,1.4657,1.4825,1.4967,1.5021,0.0,0.0,0.0,0.0,0.0,0.0,0.0,0.0,0.0,0.0,0.0,0.0,0.0,0.0,0.0,0.0,0.0,0.0,2.0917,2.1441,2.1441,2.1441,2.1441,2.1441,2.1441,2.1441,2.1441,2.1441,2.1441,2.1441,2.1441,2.1441,2.1441,2.1441,2.1441,2.1189,1.9835,1.8222,1.7147,1.7174,1.719,1.719,1.719,1.719,1.719,1.719,1.719,1.719,0.0,0.0,0.0,0.0,0.0,0.0,0.0,0.0,0.0,0.0,0.0,0.0,0.0,0.0,0.0,0.0,1.2564,1.2591,1.2623,0.0,0.0,1.2754,1.2841,1.289,1.289,1.309,1.3301,1.3736,0.0,0.0,1.4733,1.4327,1.4159,0.0,1.4632,0.0,0.0,0.0,0.0,0.0,0.0,1.4073,1.4001,1.4001,0.0,1.4001,1.3819,0.0,0.0,0.0,0.0,0.0,0.0,0.0,0.0,0.0,0.0,1.432,1.432,1.432,1.432,1.432,1.4504,1.4673,1.4673,0.0,1.5037,0.0,0.0,0.0,0.0,0.0,0.0,0.0,0.0,0.0,0.0,0.0,0.0,0.0,0.0,0.0,0.0,0.0,0.0,0.0,2.1183,2.1441,2.1441,2.1441,2.1441,2.1441,2.1441,2.1441,2.1441,2.1441,2.1441,2.1441,2.1441,2.1441,2.1441,2.1441,2.1441,2.1169,1.9292,1.7945,1.7136,1.7174,1.7174,1.719,1.719,1.719,1.719,1.719,1.719,1.719,0.0,0.0,0.0,0.0,0.0,0.0,0.0,0.0,0.0,0.0,0.0,0.0,0.0,1.2526,1.2531,1.2536,1.2634,1.2743,1.2863,1.2873,1.2879,1.2879,1.2884,0.0,1.289,1.349,1.3747,0.0,0.0,0.0,1.488,1.488,1.5014,1.5252,1.4628,1.4844,1.5289,0.0,0.0,0.0,0.0,0.0,0.0,0.0,0.0,0.0,0.0,0.0,0.0,0.0,0.0,0.0,0.0,0.0,0.0,0.0,0.0,0.0,1.432,1.432,1.432,1.432,1.4504,1.4673,1.4673,0.0,1.5037,1.5037,1.5222,1.5461,1.57,0.0,0.0,0.0,0.0,0.0,0.0,0.0,0.0,0.0,0.0,0.0,0.0,0.0,0.0,0.0,2.1441,2.1441,2.1441,2.1441,2.1441,2.1441,2.1441,2.1441,2.1441,2.1441,2.1441,2.1441,2.1441,2.1441,2.1441,2.1441,2.1441,2.1441,2.1189,1.9563,1.7136,1.7163,1.7163,1.7163,1.719,1.719,1.719,1.719,1.719,1.719,0.0,0.0,0.0,0.0,0.0,0.0,0.0,0.0,0.0,0.0,0.0,0.0,0.0,1.2645,1.2678,1.2754,1.2797,1.2841,1.2884,1.289,1.289,1.289,1.289,1.2922,1.3004,1.3206,1.3469,0.0,0.0,1.4264,1.502,1.4606,1.4952,1.6054,1.5754,1.5599,1.5552,1.5434,0.0,0.0,0.0,0.0,0.0,0.0,0.0,0.0,0.0,0.0,0.0,0.0,0.0,0.0,0.0,0.0,0.0,0.0,0.0,1.432,1.432,1.432,1.432,1.432,1.4504,1.4673,1.4673,1.4858,1.5064,1.5135,1.5276,1.5488,1.5809,1.5967,1.6135,1.6429,1.6472,1.6472,1.6472,1.6472,1.6728,1.6984,1.7347,1.8255,1.9415,2.0076,2.0488,2.1421,0.0,2.1441,2.1441,2.1441,2.1441,2.1441,2.1441,2.1441,2.1441,2.1441,2.1441,2.1441,2.1441,2.1441,2.1441,2.134,2.1306,2.1285,2.148,2.0745,1.9835,1.9773,1.8923,1.7302,1.723,1.7219,1.7219,1.7219,1.7219,1.7219,0.0,0.0,0.0,0.0,0.0,0.0,0.0,0.0,0.0,0.0,0.0,0.0,0.0,0.0,1.2797,1.2879,1.289,1.289,1.289,1.289,1.2906,1.295,1.295,1.3004,1.3124,1.3289,1.3553,0.0,0.0,0.0,0.0,1.5155,1.5487,1.635,1.6511,1.6382,0.0,0.0,0.0,1.5135,0.0,0.0,1.5356,0.0,0.0,0.0,0.0,0.0,0.0,0.0,0.0,0.0,0.0,0.0,0.0,0.0,0.0,0.0,1.432,1.432,1.4336,1.4379,1.4532,1.4689,1.4727,1.4896,1.5064,1.5189,1.5304,1.5488,1.5809,1.5994,1.619,1.6429,1.6472,1.6472,1.6472,1.6472,1.6734,1.7483,1.782,1.8441,1.9864,2.0266,2.0673,2.1353,2.1408,0.0,2.1441,2.1441,2.1441,2.1441,2.1441,2.1441,2.1441,2.1441,2.1441,2.1441,2.1387,2.1367,2.1353,2.148,2.1405,2.1143,2.1034,2.1129,2.1319,2.1501,2.0115,1.8236,1.8433,1.787,1.707,1.7087,1.7087,1.7087,0.0,0.0,0.0,0.0,0.0,0.0,0.0,0.0,0.0,1.2694,0.0,0.0,0.0,0.0,0.0,1.2895,1.2895,1.2895,1.2895,1.2895,1.295,1.3069,1.3075,1.3129,1.3243,1.374,1.4007,1.4261,0.0,1.5239,1.6131,0.0,1.6215,1.6363,1.7136,1.6988,1.6556,0.0,1.5266,1.5698,0.0,1.6131,1.6576,0.0,0.0,0.0,1.4719,1.432,0.0,0.0,0.0,0.0,0.0,0.0,0.0,0.0,0.0,0.0,0.0,0.0,0.0,1.4477,1.4586,1.47,1.4825,1.4956,1.5064,1.5189,1.5304,1.5461,1.5711,1.5951,1.6179,1.6429,1.6472,1.6472,1.6472,1.6472,1.6717,1.7483,1.7993,1.8808,1.9728,2.064,2.1055,2.1197,2.1353,2.1441,2.1441,2.1441,2.1441,2.1441,2.1441,2.1441,2.1441,2.1441,2.1441,2.1441,2.1279,2.1211,2.119,2.1322,2.1001,2.0467,2.0448,2.0721,2.1253,2.1274,2.1021,2.0481,2.0514,1.8925,1.6527,1.6543,1.6543,1.6543,0.0,0.0,0.0,0.0,0.0,0.0,0.0,0.0,0.0,0.0,0.0,0.0,1.2884,1.289,1.2922,1.3015,1.302,1.3053,1.3134,1.314,1.3156,1.3189,1.3194,1.3454,1.399,1.4169,1.444,1.5024,1.5191,1.5425,1.6131,1.6131,1.6478,0.0,1.6862,1.6733,1.6705,1.6493,0.0,0.0,1.6237,1.6493,0.0,0.0,0.0,0.0,0.0,1.4758,0.0,0.0,1.432,1.432,0.0,0.0,0.0,0.0,0.0,0.0,1.432,0.0,0.0,0.0,0.0,0.0,1.4825,1.4956,1.5064,1.5189,1.5304,1.5461,1.5711,1.588,1.6065,1.6304,1.6418,1.6472,1.6472,1.6472,1.6978,1.7993,1.8497,1.9069,2.0506,2.0804,2.0892,0.0,2.1197,2.1279,2.1279,2.1387,2.1441,2.1441,2.1441,2.1441,2.1441,2.1333,2.1279,2.1265,2.1123,2.1055,2.1055,2.1157,2.1102,2.0824,2.0716,2.0661,2.0689,2.079,2.058,2.056,2.0486,1.8888,1.6527,1.6554,1.657,1.657,0.0,0.0,0.0,0.0,0.0,0.0,0.0,0.0,0.0,0.0,0.0,0.0,1.3031,1.3031,1.3064,1.3134,1.314,1.3167,1.3232,1.3238,1.3259,1.3727,1.3727,1.3996,1.4749,1.4701,1.4946,1.571,1.5647,1.5889,1.6644,1.6644,1.6763,0.0,0.0,0.0,0.0,0.0,0.0,0.0,1.6801,0.0,0.0,1.7177,1.676,0.0,0.0,0.0,1.4758,1.4986,1.4986,0.0,0.0,0.0,0.0,0.0,0.0,0.0,0.0,0.0,0.0,0.0,0.0,0.0,1.4896,1.4983,1.5064,1.5189,1.5304,1.5445,1.5641,1.5809,1.5978,1.6119,1.6288,1.6418,1.6456,1.6472,1.6978,1.8242,1.8497,1.9038,2.0406,2.0736,2.0811,2.0892,2.1034,2.1143,2.1211,2.1353,2.1441,2.1441,2.1441,2.1408,2.1353,2.1265,2.1177,2.1123,2.098,2.0912,2.0892,2.0756,2.0689,2.0668,2.058,2.0539,2.0539,2.0627,2.0419,2.0406,2.0607,1.8764,1.6418,1.6456,1.6472,1.6472,0.0,0.0,0.0,0.0,0.0,0.0,0.0,0.0,0.0,0.0,1.302,1.3129,1.3227,1.3238,1.3243,1.3259,1.3259,1.3265,1.3276,1.3281,1.3744,1.4481,1.4487,1.4749,1.5283,1.5173,1.5591,1.6131,1.623,0.0,0.0,0.0,0.0,0.0,0.0,0.0,0.0,0.0,0.0,1.7027,1.7157,1.7424,0.0,0.0,1.6988,0.0,1.6323,1.5862,1.5424,1.5868,0.0,0.0,0.0,0.0,0.0,0.0,1.4336,0.0,0.0,0.0,0.0,0.0,0.0,0.0,1.501,1.5037,1.5064,1.5179,1.5304,1.5418,1.5532,1.5738,1.5907,1.5923,1.6108,1.6288,1.6429,1.6456,1.6978,1.8242,1.8497,1.9007,2.0285,2.0668,2.0756,2.0756,2.0892,2.1034,2.1211,2.1333,2.1421,2.1441,2.1421,2.1353,2.1211,2.1177,2.1109,2.0967,2.0824,2.0756,2.0736,2.0614,2.0539,2.0539,2.0539,2.0539,2.0539,2.0539,2.0539,2.0539,2.0573,1.8764,1.6418,1.6456,1.6472,1.6472,0.0,0.0,0.0,0.0,0.0,0.0,0.0,0.0,1.3069,1.3156,1.3189,1.3216,1.3238,1.3238,1.3276,1.3379,1.3385,1.3636,1.4155,1.4167,1.4383,1.5036,1.5036,1.5469,1.592,1.5895,1.6105,1.6768,1.6855,0.0,0.0,0.0,0.0,0.0,0.0,0.0,0.0,0.0,0.0,1.7599,1.7639,0.0,0.0,1.786,1.7424,1.6988,1.676,1.6545,1.5868,0.0,1.6089,1.5862,0.0,0.0,0.0,0.0,0.0,0.0,0.0,0.0,0.0,0.0,0.0,0.0,1.501,1.5037,1.5037,1.5064,1.5249,1.5401,1.5418,1.563,1.5809,1.5907,1.5967,1.6076,1.6288,1.6418,1.6978,1.8242,1.8497,1.9007,2.0285,2.0573,2.0594,2.0594,2.0736,2.0933,2.1197,2.1245,2.1319,2.1441,2.1319,2.1245,2.1211,2.098,2.0845,2.0811,2.0668,2.0594,2.058,2.056,2.0539,2.0539,2.0539,2.0539,2.0539,2.0539,2.0539,2.0539,2.0573,1.8764,1.6418,1.6456,1.6472,1.6472,0.0,0.0,0.0,0.0,0.0,0.0,0.0,0.0,1.3172,1.3232,1.3498,1.3766,1.3834,1.4042,1.407,1.3929,1.4138,1.4377,1.4446,1.4657,1.5078,1.5704,1.571,1.5952,1.6657,1.6657,1.6909,1.7202,1.727,0.0,0.0,0.0,0.0,0.0,0.0,0.0,0.0,0.0,1.786,1.786,1.786,0.0,1.786,1.786,1.7639,1.7424,1.7424,1.7249,1.7104,1.6939,1.674,0.0,0.0,1.6285,1.6067,0.0,1.5225,1.5271,0.0,0.0,0.0,1.4841,0.0,0.0,0.0,1.5037,1.5037,1.5037,1.5222,1.5391,1.5391,1.5586,1.5771,1.5825,1.588,1.5967,1.6092,1.626,1.6894,1.8146,1.8467,1.9007,2.0285,2.0539,2.0539,2.0539,2.0682,2.0845,2.098,2.1123,2.1245,2.1319,2.1245,2.1177,2.1109,2.0878,2.0736,2.0648,2.0573,2.0539,2.0539,2.0539,2.0539,2.0539,2.0539,2.0539,2.0539,2.0539,2.0539,2.0539,2.0573,1.8764,1.6418,1.6445,1.6456,1.6456,0.0,0.0,0.0,0.0,0.0,0.0,0.0,0.0,1.3487,1.3509,1.4019,1.454,1.4645,1.5078,1.5084,1.4698,1.5115,1.5127,0.0,0.0,1.5785,1.6426,1.6426,1.669,1.7236,1.7236,1.7297,1.7419,1.7453,1.7528,1.765,1.7684,0.0,0.0,0.0,0.0,0.0,0.0,0.0,1.786,0.0,1.786,1.786,1.7901,1.7914,1.7914,1.7935,1.8036,1.8158,1.7589,0.0,1.7401,1.7401,1.7168,0.0,0.0,0.0,0.0,0.0,0.0,0.0,0.0,0.0,1.5037,0.0,0.0,0.0,1.5064,1.5249,1.5401,1.5418,1.5603,1.5744,1.57,1.5798,1.588,1.5825,1.6048,1.6731,1.8019,1.8357,1.8937,2.0245,2.0519,2.0539,2.0539,2.0668,2.0736,2.077,2.1001,2.1143,2.1177,2.1143,2.1068,2.0967,2.0804,2.0668,2.0539,2.0539,2.0539,2.0539,2.0539,2.0539,2.0539,2.0539,2.0539,2.0539,2.0539,2.0539,2.0539,2.056,1.9267,1.7182,1.7211,1.6961,1.6445,0.0,0.0,0.0,0.0,1.3216,1.3259,1.3385,1.3817,1.4481,1.5012,1.5042,1.5271,1.5283,0.0,0.0,0.0,0.0,0.0,1.6283,0.0,1.672,1.7157,1.7157,1.7378,1.7392,1.7392,1.7405,1.7419,1.7555,1.7629,1.765,1.7772,1.7846,0.0,1.786,0.0,0.0,0.0,1.786,0.0,1.786,1.786,0.0,1.8023,1.8077,1.8091,1.8213,1.8287,1.8301,0.0,1.7868,1.7401,0.0,1.7401,0.0,0.0,0.0,0.0,0.0,0.0,0.0,0.0,1.5021,0.0,0.0,0.0,1.5064,1.5179,0.0,1.5418,1.5532,0.0,0.0,1.5461,1.563,1.57,1.5472,1.5755,1.6259,1.7114,1.7893,1.8442,1.9329,1.9951,2.0539,2.0539,2.056,2.0627,2.077,2.0811,2.0878,2.1021,2.0892,2.0811,2.079,2.0648,2.056,2.0539,2.0539,2.0539,2.0539,2.0539,2.0539,2.0539,2.0539,2.0539,2.0539,2.0539,2.0539,2.0539,2.056,2.0312,2.0051,2.0071,1.8515,1.6445,0.0,0.0,0.0,0.0,1.3761,1.3806,1.3929,1.4575,1.5042,1.5387,1.5617,1.6073,0.0,0.0,0.0,0.0,0.0,0.0,0.0,0.0,1.7203,1.7419,1.7419,0.0,1.7548,1.7555,1.7595,1.7684,1.7738,1.7772,1.7772,1.7826,1.786,0.0,1.786,0.0,1.786,0.0,0.0,0.0,0.0,0.0,0.0,1.8111,1.8145,1.8247,1.8389,1.8443,1.8464,0.0,1.8349,0.0,0.0,0.0,0.0,0.0,0.0,0.0,0.0,0.0,0.0,0.0,0.0,0.0,0.0,0.0,1.526,0.0,0.0,0.0,0.0,0.0,0.0,0.0,1.5684,1.5711,1.5613,1.5738,1.6121,1.6992,1.7305,1.7911,1.929,1.9951,2.0539,2.0539,2.0539,2.0573,2.0627,2.0716,2.0811,2.0858,2.0811,2.077,2.077,2.0614,2.0539,2.0539,2.0539,2.0539,2.0539,2.0539,2.0539,2.0539,2.0539,2.0539,2.0539,2.0539,2.0539,2.0539,2.056,2.056,2.056,2.0573,1.9809,1.8515,0.0,0.0,0.0,0.0,0.0,1.4563,1.4903,1.5344,1.5605,1.5955,0.0,0.0,1.6759,1.7203,0.0,0.0,0.0,1.7284,0.0,0.0,1.7541,0.0,0.0,0.0,0.0,0.0,1.7758,1.786,1.786,1.786,1.786,1.786,1.786,1.786,0.0,1.786,1.786,0.0,0.0,1.8091,1.8145,1.8247,1.8375,1.8247,1.8301,1.8464,1.8599,1.8654,1.8674,1.883,1.8884,0.0,1.8884,0.0,0.0,0.0,0.0,0.0,1.584,0.0,0.0,0.0,0.0,0.0,0.0,0.0,0.0,0.0,0.0,0.0,0.0,0.0,0.0,0.0,0.0,1.5728,1.5673,1.5711,1.6032,1.6608,1.6975,1.7607,1.873,1.9633,1.9985,2.0278,2.0298,2.0278,2.0539,2.0648,2.0702,2.0702,2.0702,2.0702,2.0702,2.0594,2.0539,2.0539,2.0539,2.0539,2.0539,2.0539,2.0539,2.0539,2.0539,2.0539,2.0539,2.0539,2.0539,2.0539,2.0539,2.0539,2.0539,2.056,2.0573,2.0071,0.0,1.6118,0.0,0.0,0.0,1.5537,1.6318,1.6344,1.6609,0.0,0.0,0.0,0.0,0.0,0.0,0.0,0.0,1.7704,1.7846,0.0,1.7846,0.0,0.0,0.0,0.0,0.0,0.0,1.786,1.786,1.786,1.786,1.786,1.786,1.786,0.0,1.786,1.788,1.8023,1.8091,1.8111,1.8247,1.8389,1.8531,0.0,1.862,1.8762,1.8918,0.0,0.0,1.9128,1.8714,0.0,0.0,0.0,0.0,0.0,0.0,0.0,0.0,0.0,0.0,0.0,0.0,0.0,0.0,0.0,1.5418,0.0,0.0,0.0,0.0,0.0,0.0,0.0,0.0,0.0,0.0,1.5603,1.5755,1.5755,1.6608,1.7217,1.81,1.8228,1.8616,1.9509,1.9528,1.9776,2.0539,2.0539,2.0539,2.0539,2.0539,2.0539,2.0539,2.0539,2.0539,2.0539,2.0539,2.0539,2.0539,2.0539,2.0539,2.0539,2.0539,2.0539,2.0539,2.0539,2.0539,2.0539,2.0539,2.0539,2.0539,2.0539,2.056,2.0071,0.0,0.0,0.0,0.0,0.0,0.0,1.6895,1.713,1.7183,0.0,0.0,0.0,0.0,0.0,1.7738,0.0,0.0,1.7812,1.786,1.786,0.0,0.0,0.0,1.786,0.0,0.0,0.0,0.0,0.0,1.786,1.786,1.786,1.786,1.786,0.0,1.7914,0.0,0.0,0.0,0.0,0.0,1.8796,1.883,0.0,0.0,1.8938,1.9081,1.9128,0.0,1.9183,1.8959,1.8972,1.9203,1.8959,1.8734,1.8496,1.8258,0.0,0.0,0.0,1.7299,1.6351,0.0,0.0,0.0,0.0,0.0,0.0,0.0,0.0,0.0,0.0,0.0,0.0,0.0,0.0,0.0,1.57,1.5755,1.5755,0.0,0.0,1.7464,1.8424,1.9083,1.938,1.9978,2.0278,2.0539,2.0539,2.0539,2.0539,2.0539,2.0539,2.0539,2.0539,2.0539,2.0539,2.0539,2.0539,2.0539,2.0539,2.0539,2.0539,2.0539,2.0539,2.0539,2.0539,2.0539,2.0539,2.0539,2.0539,2.0539,2.0539,2.056,2.0319,1.727,0.0,0.0,0.0,0.0,0.0,0.0,1.75,0.0,0.0,1.7717,0.0,0.0,0.0,1.786,0.0,1.786,1.786,1.786,1.786,0.0,0.0,1.786,0.0,0.0,0.0,0.0,0.0,0.0,1.786,1.786,1.786,1.786,1.786,0.0,1.8002,1.8091,0.0,1.8389,0.0,0.0,1.9094,0.0,0.0,1.9169,1.9094,0.0,1.9359,1.9379,1.9481,1.9522,1.9522,1.9522,1.9522,1.9515,1.9039,1.8999,1.8725,1.7996,1.8211,0.0,0.0,1.7266,0.0,0.0,0.0,0.0,0.0,0.0,0.0,0.0,0.0,0.0,0.0,0.0,0.0,0.0,1.5755,0.0,0.0,0.0,0.0,1.6917,1.8106,1.9,1.9309,1.9945,2.0298,2.0539,2.0539,2.0539,2.0539,2.0539,2.0539,2.0539,2.0539,2.0539,2.0539,2.0539,2.0539,2.0539,2.0539,2.0539,2.0539,2.0539,2.0539,2.0539,2.0539,2.0539,2.0539,2.0539,2.0539,2.0539,2.0539,2.056,2.056,0.0,0.0,0.0,0.0,1.7439,0.0,0.0,0.0,1.7704,0.0,1.786,1.786,1.786,1.786,1.786,1.786,0.0,0.0,1.786,1.786,0.0,0.0,1.786,1.786,0.0,0.0,0.0,0.0,0.0,0.0,1.786,1.786,1.788,1.788,1.8036,0.0,1.8124,1.8423,1.864,1.8816,1.9115,1.9305,1.9468,1.9624,0.0,1.9291,1.9576,1.9678,1.9732,2.001,2.0098,2.0098,2.0098,2.0098,2.0098,2.0098,1.9997,1.9888,1.9143,1.8793,1.8703,1.7971,0.0,0.0,0.0,0.0,1.6738,0.0,0.0,0.0,0.0,0.0,0.0,1.6488,1.6238,1.5755,0.0,0.0,0.0,0.0,0.0,0.0,1.69,1.7766,1.8393,1.929,1.9432,1.9776,2.0539,2.0539,2.0539,2.0539,2.0539,2.0539,2.0539,2.0539,2.0539,2.0539,2.0539,2.0539,2.0539,2.0539,2.0539,2.0539,2.0539,2.0539,2.0539,2.0539,2.0539,2.0539,2.0539,2.0539,2.0539,2.0539,2.0539,2.0539,1.7589,1.767,1.7758,0.0,1.7758,1.7758,0.0,0.0,0.0,0.0,1.786,1.786,1.786,1.786,1.786,1.786,1.786,0.0,0.0,0.0,0.0,1.786,1.786,1.786,1.786,0.0,0.0,1.786,0.0,0.0,1.786,1.7989,1.8036,1.8036,1.8199,1.8321,1.8423,1.862,1.8918,1.9271,1.9468,1.9624,0.0,0.0,1.9942,1.9875,1.9963,1.9997,1.9997,2.0085,2.0098,2.0098,2.0098,2.0098,2.0098,2.0098,2.0064,2.0044,1.9796,1.9776,1.9488,1.8993,1.8739,1.8485,0.0,0.0,0.0,0.0,0.0,0.0,0.0,0.0,0.0,0.0,0.0,0.0,0.0,0.0,0.0,1.6488,0.0,0.0,1.6767,1.788,1.8758,1.9142,1.9793,2.0178,2.0539,2.0539,2.0539,2.0539,2.0539,2.0539,2.0539,2.0539,2.0539,2.0539,2.0539,2.0539,2.0539,2.0539,2.0539,2.0539,2.0539,2.0539,2.0539,2.0539,2.0539,2.0539,2.0539,2.0539,2.0539,2.0539,2.0539,2.0539,1.7738,0.0,0.0,0.0,0.0,0.0,1.786,0.0,0.0,1.786,0.0,0.0,1.786,1.7914,1.7968,1.7968,1.8023,0.0,0.0,0.0,0.0,1.8057,1.8057,1.8057,1.8057,1.8057,0.0,1.8057,0.0,0.0,1.8057,1.8145,1.8199,1.8199,1.8335,1.8498,1.8654,1.9006,1.9305,1.9556,1.9766,0.0,0.0,2.0173,2.0241,2.0295,2.0295,2.0261,2.0207,2.0275,2.0295,2.0295,2.0295,2.0295,2.0295,2.0295,2.0241,2.0207,2.0207,2.0153,2.0098,1.9588,1.9601,1.9352,1.8598,1.8598,1.8598,0.0,0.0,0.0,0.0,0.0,0.0,0.0,0.0,0.0,0.0,0.0,0.0,0.0,1.7709,0.0,1.7209,1.8555,1.9449,1.9588,1.9984,2.0397,2.0539,2.0539,2.0539,2.0539,2.0539,2.0539,2.0539,2.0539,2.0539,2.0539,2.0539,2.0539,2.0539,2.0539,2.0539,2.0539,2.0539,2.0539,2.0539,2.0539,2.0539,2.0539,2.0539,2.0539,2.0539,2.0539,2.0539,2.0539,0.0,0.0,0.0,0.0,0.0,0.0,0.0,1.788,0.0,1.7901,0.0,1.7901,0.0,1.8036,1.8124,0.0,0.0,1.8321,0.0,1.8321,0.0,1.8321,1.8321,1.8321,1.8321,1.8321,0.0,0.0,0.0,0.0,1.8321,1.8335,1.8355,1.8355,1.8511,1.8694,1.8918,1.9434,1.9698,1.9766,2.0031,2.0227,2.0363,2.0363,2.0438,2.0539,2.0539,2.0471,2.0383,2.0505,2.0539,2.0539,2.0539,2.0539,2.0539,2.0539,2.0451,2.0363,2.0363,2.0261,2.0153,2.0153,2.0153,1.9903,1.9404,1.9398,1.9398,1.9398,1.8905,0.0,0.0,0.0,0.0,0.0,0.0,0.0,0.0,0.0,0.0,0.0,0.0,0.0,1.7959,1.9032,1.9922,2.0078,2.022,2.0363,0.0,0.0,2.0539,2.0539,2.0539,2.0539,2.0539,2.0539,2.0539,2.0539,2.0539,2.0539,2.0539,2.0539,2.0539,2.0539,2.0539,2.0539,2.0539,2.0539,2.0539,2.0539,2.0539,2.0539,2.0539,2.0539,2.0539,2.0539,0.0,0.0,0.0,0.0,0.0,0.0,0.0,1.7948,1.7914,1.8036,1.8057,0.0,1.8233,1.8267,1.8287,1.8287,1.8301,0.0,0.0,0.0,0.0,1.8321,1.8321,1.8321,1.8321,1.8321,1.8321,0.0,0.0,0.0,1.8321,1.8443,1.8498,1.8511,1.8776,1.9135,1.9501,1.961,0.0,2.0227,2.0275,2.0383,2.0505,2.0505,2.0526,2.0539,2.0539,2.0526,2.0505,2.0539,2.0539,2.0539,2.0539,2.0539,2.0539,2.0539,2.0526,2.0505,2.0505,2.0485,2.0471,2.0471,2.0471,2.0471,2.0211,2.0211,2.0211,2.0211,2.0211,1.9951,1.9705,0.0,0.0,0.0,0.0,0.0,0.0,0.0,0.0,0.0,0.0,0.0,0.0,1.9678,0.0,0.0,0.0,0.0,0.0,0.0,2.0539,0.0,2.0539,2.0539,0.0,0.0,2.0539,2.0539,2.0539,2.0539,2.0539,2.0539,2.0539,2.0539,2.0539,2.0539,2.0539,2.0539,2.0539,2.0539,2.0539,2.0539,2.0539,2.0539,2.0539,2.0539,0.0,0.0,0.0,0.0,0.0,0.0,0.0,1.8145,0.0,1.8199,1.8213,1.8233,1.8321,1.8389,1.8423,1.8423,1.8498,1.8552,0.0,1.862,1.8674,1.8674,1.8742,0.0,1.8776,0.0,1.8776,0.0,0.0,0.0,0.0,1.885,1.8884,1.8884,1.9203,1.9468,1.9678,0.0,0.0,2.0329,2.0417,2.0485,2.0539,2.0627,2.0668,2.0668,2.075,2.077,2.075,2.0594,2.0539,2.0539,2.0539,2.0539,2.0539,2.0539,2.0539,2.0539,2.0539,2.0539,2.0539,2.0539,2.0539,2.0539,2.0539,2.0539,2.0539,2.0539,2.0539,2.0278,1.9528,1.9217,0.0,0.0,0.0,0.0,0.0,0.0,0.0,0.0,0.0,0.0,0.0,0.0,0.0,0.0,0.0,0.0,0.0,2.0539,2.0539,0.0,0.0,0.0,0.0,0.0,0.0,2.0539,2.0539,2.0539,2.0539,2.0539,2.0539,2.0539,2.0539,2.0539,2.0539,2.0539,2.0539,2.0539,2.0539,2.0539,2.0539,2.0539,2.0539,2.0539,0.0,1.8145,0.0,0.0,1.8321,0.0,0.0,1.8409,1.8409,1.8375,1.8375,1.8389,1.8464,1.8565,1.864,1.8674,1.8782,1.885,1.885,1.8972,1.904,1.904,1.9149,1.9203,1.9203,1.9203,0.0,0.0,0.0,0.0,0.0,1.9183,1.9237,1.9305,0.0,0.0,0.0,0.0,2.0349,2.0383,2.0526,2.0594,2.0614,2.0756,2.0824,2.0845,2.0967,2.1001,2.0967,2.0716,2.0648,2.0648,2.0648,2.0648,2.0648,2.0648,2.0648,2.0627,2.0594,2.0594,2.0573,2.0539,2.0539,2.0539,2.0539,2.0539,2.0539,2.0539,2.0539,2.0285,1.9776,1.979,0.0,0.0,0.0,0.0,0.0,0.0,0.0,0.0,0.0,0.0,0.0,0.0,0.0,0.0,0.0,0.0,2.0526,0.0,0.0,0.0,0.0,2.0539,2.0539,0.0,2.0539,2.0539,2.0539,2.0539,2.0539,2.0539,2.0539,2.0539,2.0539,2.0539,2.0539,2.0539,2.0539,2.0539,2.0539,2.0539,2.0539,2.0539,2.0539,2.0539,0.0,0.0,0.0,0.0,0.0,0.0,0.0,1.8728,1.8674,1.8531,1.8511,1.862,1.8905,1.8938,1.9006,1.9128,1.9149,1.9169,1.9169,1.9169,1.9183,1.9183,1.9203,1.9203,1.9203,1.9203,1.9203,0.0,0.0,0.0,0.0,0.0,0.0,0.0,0.0,0.0,0.0,2.0309,2.0397,2.0539,2.0682,2.0756,2.077,2.0912,2.098,2.098,2.1001,2.1001,2.1001,2.0967,2.0967,2.0967,2.0967,2.0967,2.0967,2.0967,2.0967,2.0933,2.079,2.0756,2.0716,2.0573,2.0539,2.0539,2.0539,2.0539,2.0539,2.0539,2.0539,2.0539,2.0539,2.0285,2.0285,0.0,0.0,0.0,0.0,0.0,0.0,0.0,0.0,0.0,0.0,2.0064,0.0,0.0,2.0173,0.0,0.0,0.0,0.0,2.0539,0.0,2.0539,2.0539,2.0539,2.0539,2.0539,2.0539,2.0539,2.0539,2.0539,2.0539,2.0539,2.0539,2.0539,2.0539,2.0539,2.0539,2.0539,2.0539,2.0539,2.0539,2.0539,2.0539,2.0539,0.0,0.0,0.0,0.0,0.0,0.0,0.0,1.9169,1.9169,1.9203,1.904,1.9006,1.9237,1.9257,1.9305,1.9468,1.9488,1.9488,1.9488,1.9556,1.961,1.961,1.9698,1.9746,1.9746,1.9746,1.9746,0.0,0.0,0.0,0.0,0.0,0.0,0.0,0.0,2.0207,2.0349,2.0526,2.0627,2.0702,2.0845,2.0912,2.0933,2.1068,2.1123,2.1143,2.1231,2.1265,2.1265,2.1265,2.1143,2.1001,2.1001,2.1001,2.1001,2.1001,2.1001,2.098,2.0933,2.0912,2.0892,2.0824,2.0824,2.079,2.0702,2.0682,2.0648,2.056,2.0539,2.0539,2.0539,2.0539,2.0539,0.0,0.0,0.0,0.0,0.0,0.0,0.0,0.0,0.0,0.0,0.0,0.0,0.0,0.0,0.0,0.0,0.0,0.0,2.0539,0.0,2.0539,2.0539,2.0539,2.0539,2.0539,2.0539,2.0539,2.0539,2.0539,2.0539,2.0539,2.0539,2.0539,2.0539,2.0539,2.0539,2.0539,2.0539,2.0539,2.0539,2.0539,2.0539,2.0539,1.8905,0.0,1.904,0.0,1.9345,1.9393,1.9535,1.9556,1.961,1.9766,1.961,1.9481,1.9556,1.9556,1.9624,1.9786,1.9786,1.9786,1.9786,1.9888,1.9942,1.9942,2.0051,0.0,2.0098,2.0098,2.0098,2.0098,2.0098,0.0,0.0,0.0,0.0,0.0,2.0329,2.0417,2.0471,2.0682,2.079,2.0858,2.1001,2.1068,2.1068,2.1231,2.1279,2.1299,2.1408,2.1408,2.1367,2.1367,2.1211,2.1021,2.1109,2.1123,2.1123,2.1068,2.1068,2.1034,2.0967,2.0933,2.0933,2.0878,2.0858,2.0845,2.0736,2.0702,2.0668,2.056,2.0539,2.0539,2.0539,2.0539,2.0539,2.0539,0.0,0.0,0.0,0.0,0.0,0.0,0.0,2.0397,2.0397,2.0295,0.0,0.0,0.0,0.0,0.0,0.0,0.0,0.0,0.0,0.0,0.0,2.0539,2.0539,2.0539,2.0539,2.0539,2.0539,2.0539,2.0539,2.0539,2.0539,2.0539,2.0539,2.0539,2.0539,2.0539,2.0539,2.0539,2.0539,2.0539,2.0539,2.0539,1.9393,1.9427,1.9468,1.9624,1.9664,1.9698,1.9841,1.9875,1.9922,2.0085,2.0098,2.0031,1.9888,1.9875,1.9929,2.0085,2.0098,2.0098,2.0098,2.0098,2.0098,0.0,0.0,2.0098,2.0098,2.0098,2.0098,2.0098,0.0,0.0,1.9875,0.0,2.0187,2.0329,2.0471,2.0627,2.077,2.077,2.0858,2.1021,2.1157,2.1211,2.1231,2.1387,2.1441,2.1441,2.1441,2.1333,2.1211,2.1211,2.1123,2.1055,2.1333,2.1441,2.1408,2.1245,2.1211,2.1143,2.0858,2.077,2.0736,2.058,2.0539,2.0539,2.0539,2.0539,2.0539,2.0539,2.0539,2.0539,2.0539,2.0539,2.0539,2.0539,0.0,0.0,0.0,0.0,0.0,0.0,2.0539,2.0539,2.0539,2.0539,0.0,0.0,0.0,0.0,0.0,0.0,0.0,2.0539,2.0539,0.0,2.0539,2.0539,2.0539,2.0539,2.0539,2.0539,2.0539,2.0539,2.0539,2.0539,2.0539,2.0539,2.0539,2.0539,2.0539,2.0539,2.0539,2.0539,2.0539,2.0539,2.0539,2.0539,1.9698,1.9732,1.9786,1.9942,1.9963,2.001,2.0153,2.0187,2.0275,2.0526,2.056,2.058,2.0627,2.0363,2.0241,0.0,2.0397,2.0397,0.0,2.0397,2.0397,2.0397,2.0397,2.0397,2.0397,2.0397,2.0397,2.0397,0.0,0.0,0.0,2.0383,2.0492,2.0627,2.0682,2.079,2.0933,2.1034,2.1109,2.1157,2.1299,2.1367,2.1367,2.1299,2.1279,2.1265,2.1177,2.1109,2.1068,2.1068,2.1034,2.1021,2.1109,2.1143,2.1123,2.1089,2.1068,2.1055,2.0946,2.0933,2.0912,2.0858,2.0858,2.0824,2.0716,2.0614,2.0539,2.0539,2.0539,2.0539,2.0539,2.0539,2.0539,2.0539,0.0,0.0,0.0,0.0,0.0,0.0,2.0539,2.0539,0.0,2.0539,0.0,0.0,0.0,0.0,0.0,0.0,0.0,0.0,2.0539,0.0,2.0539,2.0539,2.0539,2.0539,2.0539,2.0539,2.0539,2.0539,2.0539,2.0539,2.0539,2.0539,2.0539,2.0539,2.0539,2.0539,2.0539,2.0539,2.0539,2.0539,2.0539,2.0539,2.001,2.0051,2.0105,2.0315,2.0349,2.0404,2.056,2.058,2.0648,2.0845,2.0858,2.0892,2.098,2.0756,0.0,2.0702,2.0716,2.0716,2.0716,2.0716,2.0716,2.0716,2.0716,2.0716,2.0716,0.0,0.0,2.0716,2.0716,2.0716,2.0716,2.0716,2.077,2.0858,2.0858,2.0946,2.1089,2.1177,2.1245,2.1299,2.1333,2.1353,2.1333,2.1197,2.1123,2.1123,2.1034,2.0967,2.0912,2.0912,2.0878,2.0824,2.0824,2.0824,2.0845,2.0892,2.0912,2.0892,2.0845,2.0824,2.0824,2.0824,2.0824,2.0804,2.0702,2.0614,2.0539,2.0539,2.0539,2.0539,2.0539,2.0539,2.0539,2.0539,2.0539,2.0539,0.0,0.0,0.0,0.0,0.0,0.0,0.0,2.0539,0.0,0.0,0.0,0.0,0.0,0.0,0.0,2.0539,2.0539,0.0,2.0539,2.0539,2.0539,2.0539,2.0539,2.0539,2.0539,2.0539,2.0539,2.0539,2.0539,2.0539,2.0539,2.0539,2.0539,2.0539,2.0539,2.0539,2.0539,2.0539,2.0539,2.0539,2.0349,2.0383,0.0,0.0,2.079,0.0,2.098,2.1001,2.1001,2.1021,2.1021,2.1021,2.1034,2.1034,2.1034,2.1034,0.0,0.0,0.0,2.1001,2.1001,2.1001,2.1001,2.1001,2.1001,2.1001,2.1001,2.1001,2.1001,2.1001,2.1001,2.1001,2.1001,2.1021,2.1021,2.1089,2.1211,2.1211,2.1285,2.1408,2.1245,2.1197,2.1177,2.1034,2.098,2.098,2.0967,2.0878,2.0756,2.0756,2.0668,2.0539,2.0539,2.0539,2.0573,2.0716,2.0756,2.0716,2.0573,2.0539,2.0539,2.0539,2.0539,2.0539,2.0539,2.0539,2.0539,2.0539,2.0539,2.0539,2.0539,2.0539,2.0539,2.0539,2.0539,2.0539,2.0539,0.0,0.0,0.0,0.0,0.0,0.0,2.0539,2.0539,0.0,0.0,0.0,0.0,0.0,2.0539,2.0539,2.0539,2.0539,2.0539,2.0539,2.0539,2.0539,2.0539,2.0539,2.0539,2.0539,2.0539,2.0539,2.0539,2.0539,2.0539,2.0539,2.0539,2.0539,2.0539,2.0539,2.0539,2.0539,2.0539,2.0539,0.0,0.0,2.0858,2.0933,2.0946,2.0967,2.1001,2.1001,2.1034,2.1143,2.1157,2.1211,2.1319,2.1333,2.1333,2.1333,2.1123,2.1001,2.1001,2.1001,2.1001,2.1001,2.1001,2.1001,2.1001,2.1001,2.1001,2.1001,2.1001,2.1001,2.1001,2.1001,2.1055,2.1157,2.1157,2.1177,2.1211,2.1211,2.1177,2.1109,2.1068,2.1055,2.1034,2.0878,2.0824,2.0811,2.0702,2.0627,2.0594,2.0594,2.0573,2.0539,2.0539,2.0539,2.0539,2.058,2.0594,2.0594,2.056,2.0539,2.0539,2.0539,2.0539,2.0539,2.0539,2.0539,2.0539,2.0539,2.0539,2.0539,2.0539,2.0539,2.0539,2.0539,2.0539,2.0539,2.0539,2.0539,0.0,0.0,2.0539,2.0539,2.0539,2.0539,2.0539,0.0,0.0,0.0,0.0,2.0539,2.0539,2.0539,2.0539,2.0539,2.0539,2.0539,2.0539,2.0539,2.0539,2.0539,2.0539,2.0539,2.0539,2.0539,2.0539,2.0539,2.0539,2.0539,2.0539,2.0539,2.0539,2.0539,2.0539,2.0539,2.0539,2.0539,2.1001,2.1001,2.1021,2.1089,2.1089,2.1123,2.119,2.1197,2.1231,2.1299,2.1319,2.1353,2.1421,2.1441,2.1441,2.1441,2.1299,2.1197,2.1197,2.1197,2.1197,2.1197,2.1197,2.1197,2.1197,2.1197,2.1197,2.1197,2.1197,2.1197,2.1197,2.1197,2.1211,2.1211,2.1211,2.1177,2.1123,2.1123,2.1068,2.1001,2.0933,2.0892,2.0878,2.0716,2.0668,2.0648,2.0573,2.0539,2.0539,2.0539,2.0539,2.0539,2.0539,2.0539,2.0539,2.0539,2.0539,2.0539,2.0539,2.0539,2.0539,2.0539,2.0539,2.0539,2.0539,2.0539,2.0539,2.0539,2.0539,2.0539,2.0539,2.0539,2.0539,2.0539,2.0539,2.0539,2.0539,2.0539,0.0,2.0539,2.0539,2.0539,2.0539,2.0539,2.0539,2.0539,0.0,0.0,2.0539,2.0539,2.0539,2.0539,2.0539,2.0539,2.0539,2.0539,2.0539,2.0539,2.0539,2.0539,2.0539,2.0539,2.0539,2.0539,2.0539,2.0539,2.0539,2.0539,2.0539,2.0539,2.0539,2.0539,2.0539,2.0539,2.0539,2.0539,2.1068,2.1068,2.1109,2.1231,2.1245,2.1285,2.1421,2.1441,2.1441,2.1441,2.1441,2.1441,2.1441,2.1421,2.1408,2.1408,2.1387,2.1387,2.1441,2.1441,2.1421,2.1408,2.1408,2.1387,2.1367,2.1367,2.1367,2.1367,2.1367,2.1367,2.1367,2.1367,2.1299,2.1177,2.1177,2.1109,2.0967,2.0967,2.0946,2.0912,2.079,2.0736,2.0716,2.0594,2.0539,2.0539,2.0539,2.0539,2.0539,2.0539,2.0539,2.0539,2.0539,2.0539,2.0539,2.0539,2.0539,2.0539,2.0539,2.0539,2.0539,2.0539,2.0539,2.0539,2.0539,2.0539,2.0539,2.0539,2.0539,2.0539,2.0539,2.0539,2.0539,2.0539,2.0539,2.0539,2.0539,0.0,2.0539,2.0539,2.0539,2.0539,2.0539,2.0539,2.0539,2.0539,2.0539,2.0539,2.0539,2.0539,2.0539,2.0539,2.0539,2.0539,2.0539,2.0539,2.0539,2.0539,2.0539,2.0539,2.0539,2.0539,2.0539,2.0539,2.0539,2.0539,2.0539,2.0539,2.0539,2.0539,2.0539,2.0539,2.0539,2.0539,2.0539,2.0539,2.1367,2.1367,2.1387,2.1408,2.1408,2.1408,2.1441,2.1441,2.1441,2.1441,2.1441,2.1441,2.1441,2.1319,2.1245,2.1245,2.1143,2.1177,2.1421,2.1441,2.1387,2.1245,2.1245,2.1197,2.1068,2.1068,2.1068,2.1068,2.1068,2.1068,2.1068,2.1068,2.1055,2.1034,2.1034,2.0946,2.0811,2.0811,2.0736,2.0614,2.0594,2.0573,2.0573,2.056,2.0539,2.0539,2.0539,2.0539,2.0539,2.0539,2.0539,2.0539,2.0539,2.0539,2.0539,2.0539,2.0539,2.0539,2.0539,2.0539,2.0539,2.0539,2.0539,2.0539,2.0539,2.0539,2.0539,2.0539,2.0539,2.0539,2.0539,2.0539,2.0539,2.0539,2.0539,2.0539,2.0539,0.0,2.0539,2.0539,2.0539,2.0539,2.0539,2.0539,2.0539,2.0539,2.0539,2.0539,2.0539,2.0539,2.0539,2.0539,2.0539,2.0539,2.0539,2.0539,2.0539,2.0539,2.0539,2.0539,2.0539,2.0539,2.0539,2.0539,2.0539,2.0539,2.0539,2.0539,2.0539,2.0539,2.0539,2.0539,2.0539,2.0539,2.0539,2.0539,2.1441,2.1441,2.1441,2.1441,2.1441,2.1441,2.1441,2.1441,2.1441,2.1441,2.1367,2.1319,2.1319,2.119,2.1109,2.1109,2.1034,2.1055,2.1197,2.1211,2.1177,2.1109,2.1109,2.1068,2.1001,2.1001,2.1001,2.1001,2.1001,2.1001,2.1001,2.1001,2.0946,2.0878,2.0878,2.079,2.0648,2.0648,2.0614,2.0539,2.0539,2.0539,2.0539,2.0539,2.0539,2.0539,2.0539,2.0539,2.0539,2.0539,2.0539,2.0539,2.0539,2.0539,2.0539,2.0539,2.0539,2.0539,2.0539,2.0539,2.0539,2.0539,2.0539,2.0539,2.0539,2.0539,2.0539,2.0539,2.0539,2.0539,2.0539,2.0539,2.0539,2.0539,2.0539,0.0,0.0,2.0539,2.0539,2.0539,2.0539,2.0539,2.0539,2.0539,2.0539,2.0539,2.0539,2.0539,2.0539,2.0539,2.0539,2.0539,2.0539,2.0539,2.0539,2.0539,2.0539,2.0539,2.0539,2.0539,2.0539,2.0539,2.0539,2.0539,2.0539,2.0539,2.0539,2.0539,2.0539,2.0539,2.0539,2.0539,2.0539,2.0539,2.0539,2.0539,2.1441,2.1441,2.1441,2.1441,2.1441,2.1421,2.1387,2.1387,2.1367,2.1333,2.1231,2.1157,2.1157,2.1034,2.0946,2.0946,2.0912,2.0892,2.0892,2.0892,2.0912,2.0946,2.0912,2.0892,2.0892,2.0892,2.0892,2.0892,2.0892,2.0892,2.0892,2.0892,2.0824,2.0716,2.0716,2.0648,2.0539,2.0539,2.0539,2.0539,2.0539,2.0539,2.0539,2.0539,2.0539,2.0539,2.0539,2.0539,2.0539,2.0539,2.0539,2.0539,2.0539,2.0539,2.0539,2.0539,2.0539,2.0539,2.0539,2.0539,2.0539,2.0539,2.0539,2.0539,2.0539,2.0539,2.0539,2.0539,2.0539,2.0539,2.0539,2.0539,2.0539,2.0539,0.0,0.0,0.0,2.0539,2.0539,2.0539,2.0539,2.0539,2.0539,2.0539,2.0539,2.0539,2.0539,2.0539,2.0539,2.0539,2.0539,2.0539,2.0539,2.0539,2.0539,2.0539,2.0539,2.0539,2.0539,2.0539,2.0539,2.0539,2.0539,2.0539,2.0539,2.0539,2.0539,2.0539,2.0539,2.0539,2.0539,2.0539,2.0539,2.0539,2.0539,2.0539,2.1441,2.1441,2.1441,2.1441,2.1441,2.1387,2.1245,2.1231,2.1177,2.1055,2.1021,2.1021,2.1021,2.0878,2.079,2.079,2.0661,2.0573,2.0573,2.0573,2.0648,2.079,2.0648,2.0573,2.0573,2.0573,2.0573,2.0573,2.0573,2.0573,2.0573,2.0573,2.0573,2.056,2.056,2.056,2.0539,2.0539,2.0539,2.0539,2.0539,2.0539,2.0539,2.0539,2.0539,2.0539,2.0539,2.0539,2.0539,2.0539,2.0539,2.0539,2.0539,2.0539,2.0539,2.0539,2.0539,2.0539,2.0539,2.0539,2.0539,2.0539,2.0539,2.0539,2.0539,2.0539,2.0539,2.0539,2.0539,2.0539,2.0539,2.0539,2.0539,2.0539,0.0,0.0,2.0539,2.0539,2.0539,2.0539,2.0539,2.0539,2.0539,2.0539,2.0539,2.0539,2.0539,2.0539,2.0539,2.0539,2.0539,2.0539,2.0539,2.0539,2.0539,2.0539,2.0539,2.0539,2.0539,2.0539,2.0539,2.0539,2.0539,2.0539,2.0539,2.0539,2.0539,2.0539,2.0539,2.0539,2.0539,2.0539,2.0539,2.0539,2.0539,2.0539,2.1441,2.1367,2.1299,2.1299,2.1231,2.1143,2.1089,2.1089,2.1055,2.1001,2.0912,2.0858,2.0858,2.0716,2.0627,2.0627,2.0573,2.0539,2.0539,2.0539,2.056,2.0627,2.0573,2.0539,2.0539,2.0539,2.0539,2.0539,2.0539,2.0539,2.0539,2.0539,2.0539,2.0539,2.0539,2.0539,2.0539,2.0539,2.0539,2.0539,2.0539,2.0539,2.0539,2.0539,2.0539,2.0539,2.0539,2.0539,2.0539,2.0539,2.0539,2.0539,2.0539,2.0539,2.0539,2.0539,2.0539,2.0539,2.0539,2.0539,2.0539,2.0539,2.0539,2.0539,2.0539,2.0539,2.0539,2.0539,2.0539,2.0539,2.0539,2.0539,2.0539,2.0539,0.0,2.0539,2.0539,2.0539,2.0539,2.0539,2.0539,2.0539,2.0539,2.0539,2.0539,2.0539,2.0539,2.0539,2.0539,2.0539,2.0539,2.0539,2.0539,2.0539,2.0539,2.0539,2.0539,2.0539,2.0539,2.0539,2.0539,2.0539,2.0539,2.0539,2.0539,2.0539,2.0539,2.0539,2.0539,2.0539,2.0539,2.0539,2.0539,2.0539,2.0539,2.0539,2.1299,2.1211,2.1143,2.1143,2.1068,2.098,2.0933,2.0933,2.0912,2.0858,2.077,2.0702,2.0702,2.0614,2.0539,2.0539,2.0539,2.0539,2.0539,2.0539,2.0539,2.0539,2.0539,2.0539,2.0539,2.0539,2.0539,2.0539,2.0539,2.0539,2.0539,2.0539,2.0539,2.0539,2.0539,2.0539,2.0539,2.0539,2.0539,2.0539,2.0539,2.0539,2.0539,2.0539,2.0539,2.0539,2.0539,2.0539,2.0539,2.0539,2.0539,2.0539,2.0539,2.0539,2.0539,2.0539,2.0539,2.0539,2.0539,2.0539,2.0539,2.0539,2.0539,2.0539,2.0539,2.0539,2.0539,2.0539,2.0539,2.0539,2.0539,2.0539,2.0539,2.0539,2.0539,2.0539,2.0539,2.0539,2.0539,2.0539,2.0539,2.0539,2.0539,2.0539,2.0539,2.0539,2.0539,2.0539,2.0539,2.0539,2.0539,2.0539,2.0539,2.0539,2.0539,2.0539,2.0539,2.0539,2.0539,2.0539,2.0539,2.0539,2.0539,2.0539,2.0539,2.0539,2.0539,2.0539,2.0539,2.0539,2.0539,2.0539,2.0539,2.0539,2.0539,2.0539,2.1001,2.1001,2.1001,2.1001,2.1001,2.0946,2.079,2.077,2.0716,2.056,2.0539,2.0539,2.0539,2.0539,2.0539,2.0539,2.0539,2.0539,2.0539,2.0539,2.0539,2.0539,2.0539,2.0539,2.0539,2.0539,2.0539,2.0539,2.0539,2.0539,2.0539,2.0539,2.0539,2.0539,2.0539,2.0539,2.0539,2.0539,2.0539,2.0539,2.0539,2.0539,2.0539,2.0539,2.0539,2.0539,2.0539,2.0539,2.0539,2.0539,2.0539,2.0539,2.0539,2.0539,2.0539,2.0539,2.0539,2.0539,2.0539,2.0539,2.0539,2.0539,2.0539,2.0539,2.0539,2.0539,2.0539,2.0539,2.0539,2.0539,2.0539,2.0539,2.0539,2.0539,2.0539,2.0539,2.0539,2.0539,2.0539,2.0539,2.0539,2.0539,2.0539,2.0539,2.0539,2.0539,2.0539,2.0539,2.0539,2.0539,2.0539,2.0539,2.0539,2.0539,2.0539,2.0539,2.0539,2.0539,2.0539,2.0539,2.0539,2.0539,2.0539,2.0539,2.0539,2.0539,2.0539,2.0539,2.0539,2.0539,2.0539,2.0539,2.0539,2.0539,2.0539,2.0539,2.1001,2.0912,2.0845,2.0845,2.0756,2.0661,2.0614,2.0614,2.0594,2.0539,2.0539,2.0539,2.0539,2.0539,2.0539,2.0539,2.0539,2.0539,2.0539,2.0539,2.0539,2.0539,2.0539,2.0539,2.0539,2.0539,2.0539,2.0539,2.0539,2.0539,2.0539,2.0539,2.0539,2.0539,2.0539,2.0539,2.0539,2.0539,2.0539,2.0539,2.0539,2.0539,2.0539,2.0539,2.0539,2.0539,2.0539,2.0539,2.0539,2.0539,2.0539,2.0539,2.0539,2.0539,2.0539,2.0539,2.0539,2.0539,2.0539,2.0539,2.0539,2.0539,2.0539,2.0539,2.0539,2.0539,2.0539,2.0539,2.0539,2.0539,2.0539,2.0539,2.0539,2.0539,2.0539,2.0539,2.0539,2.0539,2.0539,2.0539,2.0539,2.0539,2.0539,2.0539,2.0539,2.0539,2.0539,2.0539,2.0539,2.0539,2.0539,2.0539,2.0539,2.0539,2.0539,2.0539,2.0539,2.0539,2.0539,2.0539,2.0539,2.0539,2.0539,2.0539,2.0539,2.0539,2.0539,2.0539,2.0539,2.0539,2.0539,2.0539,2.0539,2.0539,2.0539,2.0539,2.0824,2.0736,2.0682,2.0682,2.0614,2.0539,2.0539,2.0539,2.0539,2.0539,2.0539,2.0539,2.0539,2.0539,2.0539,2.0539,2.0539,2.0539,2.0539,2.0539,2.0539,2.0539,2.0539,2.0539,2.0539,2.0539,2.0539,2.0539,2.0539,2.0539,2.0539,2.0539,2.0539,2.0539,2.0539,2.0539,2.0539,2.0539,2.0539,2.0539,2.0539,2.0539,2.0539,2.0539,2.0539,2.0539,2.0539,2.0539,2.0539,2.0539,2.0539,2.0539,2.0539,2.0539,2.0539,2.0539,2.0539,2.0539,2.0539,2.0539,2.0539,2.0539,2.0539,2.0539,2.0539,2.0539,2.0539,2.0539,2.0539,2.0539,2.0539,2.0539,2.0539,2.0539,2.0539,2.0539,2.0539,2.0539,2.0539,2.0539,2.0539,2.0539,2.0539,2.0539,2.0539,2.0539,2.0539,2.0539,2.0539,2.0539,2.0539,2.0539,2.0539,2.0539,2.0539,2.0539,2.0539,2.0539,2.0539,2.0539,2.0539,2.0539,2.0539,2.0539,2.0539,2.0539,2.0539,2.0539,2.0539,2.0539,2.0539,2.0539,2.0539,2.0539,2.0539,2.0539,2.0539,2.0539,2.0539,2.0539,2.0539,2.0539,2.0539,2.0539,2.0539,2.0539,2.0539,2.0539,2.0539,2.0539,2.0539,2.0539,2.0539,2.0539,2.0539,2.0539,2.0539,2.0539,2.0539,2.0539,2.0539,2.0539,2.0539,2.0539,2.0539,2.0539,2.0539,2.0539,2.0539,2.0539,2.0539,2.0539,2.0539,2.0539,2.0539,2.0539,2.0539,2.0539,2.0539,2.0539,2.0539,2.0539,2.0539,2.0539,2.0539,2.0539,2.0539,2.0539,2.0539,2.0539,2.0539,2.0539,2.0539,2.0539,2.0539,2.0539,2.0539,2.0539,2.0539,2.0539,2.0539,2.0539,2.0539,2.0539,2.0539,2.0539,2.0539,2.0539,2.0539,2.0539,2.0539,2.0539,2.0539,2.0539,2.0539,2.0539,2.0539,2.0539,2.0539,2.0539,2.0539,2.0539,2.0539,2.0539,2.0539,2.0539,2.0539,2.0539,2.0539,2.0539,2.0539,2.0539,2.0539,2.0539,2.0539,2.0539,2.0539,2.0539,2.0539,2.0539,2.0539,2.0539,2.0539,2.0539,2.0539,2.0539,2.0539,2.0539,2.0539,2.0539,2.0539,2.0539,2.0539,2.0539,2.0539,2.0539,2.0539,2.0539,2.0539,2.0539,2.0539,2.0539,2.0539,2.0539,2.0539,2.0539,2.0539,2.0539,2.0539,2.0539,2.0539,2.0539,2.0539,2.0539,2.0539,2.0539,2.0539,2.0539,2.0539,2.0539,2.0539,2.0539,2.0539,2.0539,2.0539,2.0539,2.0539,2.0539,2.0539,2.0539,2.0539,2.0539,2.0539,2.0539,2.0539,2.0539,2.0539,2.0539,2.0539,2.0539,2.0539,2.0539,2.0539,2.0539,2.0539,2.0539,2.0539,2.0539,2.0539,2.0539,2.0539,2.0539,2.0539,2.0539,2.0539,2.0539,2.0539,2.0539,2.0539,2.0539,2.0539,2.0539,2.0539,2.0539,2.0539,2.0539,2.0539,2.0539,2.0539,2.0539,2.0539,2.0539,2.0539,2.0539,2.0539,2.0539,2.0539,2.0539,2.0539,2.0539,2.0539,2.0539,2.0539,2.0539,2.0539,2.0539,2.0539,2.0539,2.0539,2.0539,2.0539,2.0539,2.0539,2.0539,2.0539,2.0539,2.0539,2.0539,2.0539,2.0539,2.0539,2.0539,2.0539,2.0539,2.0539,2.0539,2.0539,2.0539,2.0539,2.0539,2.0539,2.0539,2.0539,2.0539,2.0539,2.0539,2.0539,2.0539,2.0539,2.0539,2.0539,2.0539,2.0539,2.0539,2.0539,2.0539,2.0539,2.0539,2.0539,2.0539,2.0539,2.0539,2.0539,2.0539,2.0539,2.0539,2.0539,2.0539,2.0539,2.0539,2.0539,2.0539,2.0539,2.0539,2.0539,2.0539,2.0539,2.0539,2.0539,2.0539,2.0539,2.0539,2.0539,2.0539,2.0539,2.0539,2.0539,2.0539,2.0539,2.0539,2.0539,2.0539,2.0539,2.0539,2.0539,2.0539,2.0539,2.0539,2.0539,2.0539,2.0539,2.0539,2.0539,2.0539,2.0539,2.0539,2.0539,2.0539,2.0539,2.0539,2.0539,2.0539,2.0539,2.0539,2.0539,2.0539,2.0539,2.0539,2.0539,2.0539,2.0539,2.0539,2.0539,2.0539,2.0539,2.0539,2.0539,2.0539,2.0539,2.0539,2.0539,2.0539,2.0539,2.0539,2.0539,2.0539,2.0539,2.0539,2.0539,2.0539,2.0539,2.0539,2.0539,2.0539,2.0539,2.0539,2.0539,2.0539,2.0539,2.0539,2.0539,2.0539,2.0539,2.0539,2.0539,2.0539,2.0539,2.0539,2.0539,2.0539,2.0539,2.0539,2.0539,2.0539,2.0539,2.0539,2.0539,2.0539,2.0539,2.0539,2.0539,2.0539,2.0539,2.0539,2.0539,2.0539,2.0539,2.0539,2.0539,2.0539,2.0539,2.0539,2.0539,2.0539,2.0539,2.0539,2.0539,2.0539,2.0539,2.0539,2.0539,2.0539,2.0539,2.0539,2.0539,2.0539,2.0539,2.0539,2.0539,2.0539,2.0539,2.0539,2.0539,2.0539,2.0539,2.0539,2.0539,2.0539,2.0539,2.0539,2.0539,2.0539,2.0539,2.0539,2.0539,2.0539,2.0539,2.0539,2.0539,2.0539,2.0539,2.0539,2.0539,2.0539,2.0539,2.0539,2.0539,2.0539,2.0539,2.0539,2.0539,2.0539,2.0539,2.0539,2.0539,2.0539,2.0539,2.0539,2.0539,2.0539,2.0539,2.0539,2.0539,2.0539,2.0539,2.0539,2.0539,2.0539,2.0539,2.0539,2.0539,2.0539,2.0539,2.0539,2.0539,2.0539,2.0539,2.0539,2.0539,2.0539,2.0539,2.0539,2.0539,2.0539,2.0539,2.0539,2.0539,2.0539,2.0539,2.0539,2.0539,2.0539,2.0539,2.0539,2.0539,2.0539,2.0539,2.0539,2.0539,2.0539,2.0539,2.0539,2.0539,2.0539,2.0539,2.0539,2.0539,2.0539,2.0539,2.0539,2.0539,2.0539,2.0539,2.0539,2.0539,2.0539,2.0539,2.0539,2.0539,2.0539,2.0539,2.0539,2.0539,2.0539,2.0539,2.0539,2.0539,2.0539,2.0539,2.0539,2.0539,2.0539,2.0539,2.0539,2.0539,2.0539,2.0539,2.0539,2.0539,2.0539,2.0539,2.0539,2.0539,2.0539,2.0539,2.0539,2.0539,2.0539,2.0539,2.0539,2.0539,2.0539,2.0539,2.0539,2.0539,2.0539,2.0539,2.0539,2.0539,2.0539,2.0539,2.0539,2.0539,2.0539,2.0539,2.0539,2.0539,2.0539,2.0539,2.0539,2.0539,2.0539,2.0539,2.0539,2.0539,2.0539,2.0539,2.0539,2.0539,2.0539,2.0539,2.0539,2.0539,2.0539,2.0539,2.0539,2.0539,2.0539,2.0539,2.0539,2.0539,2.0539,2.0539,2.0539,2.0539,2.0539,2.0539,2.0539,2.0539,2.0539,2.0539,2.0539,2.0539,2.0539,2.0539,2.0539,2.0539,2.0539,2.0539,2.0539,2.0539,2.0539,2.0539,2.0539,2.0539,2.0539,2.0539,2.0539,2.0539,2.0539,2.0539,2.0539,2.0539,2.0539,2.0539,2.0539,2.0539,2.0539,2.0539,2.0539,2.0539,2.0539,2.0539,2.0539,2.0539,2.0539,2.0539,2.0539,2.0539,2.0539,2.0539,2.0539,2.0539,2.0539,2.0539,2.0539,2.0539,2.0539,2.0539,2.0539,2.0539,2.0539,2.0539,2.0539,2.0539,2.0539,2.0539,2.0539,2.0539,2.0539,2.0539,2.0539,2.0539,2.0539,2.0539,2.0539,2.0539,2.0539,2.0539,2.0539,2.0539,2.0539,2.0539,2.0539,2.0539,2.0539,2.0539,2.0539,2.0539,2.0539,2.0539,2.0539,2.0539,2.0539,2.0539,2.0539,2.0539,2.0539,2.0539,2.0539,2.0539,2.0539,2.0539,2.0539,2.0539,2.0539,2.0539,2.0539,2.0539,2.0539,2.0539,2.0539,2.0539,2.0539,2.0539,2.0539,2.0539,2.0539,2.0539,2.0539,2.0539,2.0539,2.0539,2.0539,2.0539,2.0539,2.0539,2.0539,2.0539,2.0539,2.0539,2.0539]}]]